<?xml version='1.0' encoding='UTF-8'?><gpx version="1.1" creator="JPX - https://github.com/jenetics/jpx" xmlns="http://www.topografix.com/GPX/1/1"><trk><trkseg><trkpt lat="41.797647217664505" lon="13.010709368396402"><ele>261.1666666666667</ele><time>2026-04-18T10:25:24.001Z</time></trkpt><trkpt lat="41.797620197237286" lon="13.010836147110828"><ele>261.3333333333333</ele><time>2026-04-18T10:25:26.001Z</time></trkpt><trkpt lat="41.79760245133368" lon="13.010976865055442"><ele>261.5</ele><time>2026-04-18T10:25:28.001Z</time></trkpt><trkpt lat="41.797613600764485" lon="13.011099130446548"><ele>261.66666666666663</ele><time>2026-04-18T10:25:30.001Z</time></trkpt><trkpt lat="41.79761571586552" lon="13.011203467498877"><ele>261.8333333333333</ele><time>2026-04-18T10:25:32.001Z</time></trkpt><trkpt lat="41.79758147155052" lon="13.01127932186548"><ele>262.0</ele><time>2026-04-18T10:25:34.001Z</time></trkpt><trkpt lat="41.79749403607558" lon="13.011350604045754"><ele>262.0</ele><time>2026-04-18T10:25:36.001Z</time></trkpt><trkpt lat="41.79740861658973" lon="13.011388137183582"><ele>262.0</ele><time>2026-04-18T10:25:37.001Z</time></trkpt><trkpt lat="41.797318922746676" lon="13.011437819981294"><ele>262.0</ele><time>2026-04-18T10:25:38.001Z</time></trkpt><trkpt lat="41.79722990785852" lon="13.011498511979486"><ele>262.0</ele><time>2026-04-18T10:25:39.001Z</time></trkpt><trkpt lat="41.79713546052635" lon="13.011511433353036"><ele>262.0</ele><time>2026-04-18T10:25:40.001Z</time></trkpt><trkpt lat="41.797061101332595" lon="13.011557869005388"><ele>262.0</ele><time>2026-04-18T10:25:41.001Z</time></trkpt><trkpt lat="41.79698914407909" lon="13.011602804698914"><ele>262.0</ele><time>2026-04-18T10:25:42.001Z</time></trkpt><trkpt lat="41.796921403481264" lon="13.011645107177372"><ele>262.0</ele><time>2026-04-18T10:25:43.001Z</time></trkpt><trkpt lat="41.79686080881955" lon="13.011682947186621"><ele>262.0</ele><time>2026-04-18T10:25:44.001Z</time></trkpt><trkpt lat="41.79678124457599" lon="13.011733622261174"><ele>262.0</ele><time>2026-04-18T10:25:46.001Z</time></trkpt><trkpt lat="41.796720160899454" lon="13.011785167461628"><ele>262.0</ele><time>2026-04-18T10:25:48.001Z</time></trkpt><trkpt lat="41.79667883816142" lon="13.011905189760757"><ele>260.6</ele><time>2026-04-18T10:25:54.001Z</time></trkpt><trkpt lat="41.79671730556779" lon="13.012036816389589"><ele>259.2</ele><time>2026-04-18T10:25:56.001Z</time></trkpt><trkpt lat="41.796739820303365" lon="13.012185301070742"><ele>257.8</ele><time>2026-04-18T10:25:58.001Z</time></trkpt><trkpt lat="41.796752809016645" lon="13.01227096163068"><ele>256.4</ele><time>2026-04-18T10:25:59.001Z</time></trkpt><trkpt lat="41.79677341670063" lon="13.012403577983985"><ele>255.0</ele><time>2026-04-18T10:26:00.001Z</time></trkpt><trkpt lat="41.79679371046487" lon="13.012528761544358"><ele>254.2</ele><time>2026-04-18T10:26:01.001Z</time></trkpt><trkpt lat="41.79681218521418" lon="13.012639560234788"><ele>253.4</ele><time>2026-04-18T10:26:02.001Z</time></trkpt><trkpt lat="41.79682980314948" lon="13.012743367490453"><ele>252.60000000000002</ele><time>2026-04-18T10:26:03.001Z</time></trkpt><trkpt lat="41.79684898393811" lon="13.012856383300848"><ele>251.8</ele><time>2026-04-18T10:26:04.001Z</time></trkpt><trkpt lat="41.79687356248339" lon="13.013001203386022"><ele>251.0</ele><time>2026-04-18T10:26:05.001Z</time></trkpt><trkpt lat="41.79689719785078" lon="13.013141459106912"><ele>251.00000000000003</ele><time>2026-04-18T10:26:06.001Z</time></trkpt><trkpt lat="41.79691869481383" lon="13.013270987439785"><ele>251.0</ele><time>2026-04-18T10:26:07.001Z</time></trkpt><trkpt lat="41.79695459715045" lon="13.013385936108822"><ele>251.0</ele><time>2026-04-18T10:26:08.001Z</time></trkpt><trkpt lat="41.796970042764016" lon="13.013492156968695"><ele>251.0</ele><time>2026-04-18T10:26:09.001Z</time></trkpt><trkpt lat="41.79698611214981" lon="13.013598801500326"><ele>251.00000000000003</ele><time>2026-04-18T10:26:10.001Z</time></trkpt><trkpt lat="41.79700498924396" lon="13.013703457468148"><ele>251.0</ele><time>2026-04-18T10:26:11.001Z</time></trkpt><trkpt lat="41.79700702226541" lon="13.013815891298908"><ele>250.4</ele><time>2026-04-18T10:26:12.001Z</time></trkpt><trkpt lat="41.79702888355493" lon="13.01395237495757"><ele>249.8</ele><time>2026-04-18T10:26:13.001Z</time></trkpt><trkpt lat="41.7970509970188" lon="13.014090432982897"><ele>249.20000000000002</ele><time>2026-04-18T10:26:14.001Z</time></trkpt><trkpt lat="41.7970706331621" lon="13.014213024678229"><ele>248.60000000000002</ele><time>2026-04-18T10:26:15.001Z</time></trkpt><trkpt lat="41.797090270959025" lon="13.014335397528564"><ele>248.0</ele><time>2026-04-18T10:26:16.001Z</time></trkpt><trkpt lat="41.79711080710951" lon="13.014461764235792"><ele>247.2</ele><time>2026-04-18T10:26:17.001Z</time></trkpt><trkpt lat="41.79713201117631" lon="13.01459224090438"><ele>246.4</ele><time>2026-04-18T10:26:18.001Z</time></trkpt><trkpt lat="41.79715425045169" lon="13.014729087585707"><ele>245.59999999999997</ele><time>2026-04-18T10:26:19.001Z</time></trkpt><trkpt lat="41.797175327196314" lon="13.014858780760637"><ele>244.79999999999998</ele><time>2026-04-18T10:26:20.001Z</time></trkpt><trkpt lat="41.79719539480551" lon="13.014982264363683"><ele>244.0</ele><time>2026-04-18T10:26:21.001Z</time></trkpt><trkpt lat="41.79721571743088" lon="13.01510731716534"><ele>243.2</ele><time>2026-04-18T10:26:22.001Z</time></trkpt><trkpt lat="41.79723575517874" lon="13.015230618097506"><ele>242.39999999999998</ele><time>2026-04-18T10:26:23.001Z</time></trkpt><trkpt lat="41.79725614894852" lon="13.015356762489676"><ele>241.6</ele><time>2026-04-18T10:26:24.001Z</time></trkpt><trkpt lat="41.79727540955544" lon="13.015475897755781"><ele>240.8</ele><time>2026-04-18T10:26:25.001Z</time></trkpt><trkpt lat="41.79729437150686" lon="13.015593185725631"><ele>240.0</ele><time>2026-04-18T10:26:26.001Z</time></trkpt><trkpt lat="41.79731281333102" lon="13.015707256466577"><ele>239.6</ele><time>2026-04-18T10:26:27.001Z</time></trkpt><trkpt lat="41.797333593696166" lon="13.015835792112076"><ele>239.2</ele><time>2026-04-18T10:26:28.001Z</time></trkpt><trkpt lat="41.79735286958301" lon="13.015963422148129"><ele>238.8</ele><time>2026-04-18T10:26:29.001Z</time></trkpt><trkpt lat="41.79737073946437" lon="13.016088647695652"><ele>238.4</ele><time>2026-04-18T10:26:30.001Z</time></trkpt><trkpt lat="41.79738982870124" lon="13.016209317856775"><ele>238.0</ele><time>2026-04-18T10:26:31.001Z</time></trkpt><trkpt lat="41.79741545564536" lon="13.016322398906036"><ele>238.0</ele><time>2026-04-18T10:26:32.001Z</time></trkpt><trkpt lat="41.797457977747406" lon="13.016419384913096"><ele>238.0</ele><time>2026-04-18T10:26:33.001Z</time></trkpt><trkpt lat="41.79749314294821" lon="13.016523849323661"><ele>238.0</ele><time>2026-04-18T10:26:34.001Z</time></trkpt><trkpt lat="41.79754765716466" lon="13.016629188427544"><ele>238.0</ele><time>2026-04-18T10:26:35.001Z</time></trkpt><trkpt lat="41.797615940783736" lon="13.01671685887067"><ele>238.0</ele><time>2026-04-18T10:26:36.001Z</time></trkpt><trkpt lat="41.79767475324541" lon="13.01680896395261"><ele>237.60000000000002</ele><time>2026-04-18T10:26:37.001Z</time></trkpt><trkpt lat="41.79772195155742" lon="13.016917521751662"><ele>237.20000000000002</ele><time>2026-04-18T10:26:38.001Z</time></trkpt><trkpt lat="41.797779165676644" lon="13.01700858766843"><ele>236.8</ele><time>2026-04-18T10:26:39.001Z</time></trkpt><trkpt lat="41.79783816472197" lon="13.017102494627038"><ele>236.4</ele><time>2026-04-18T10:26:40.001Z</time></trkpt><trkpt lat="41.79789796410047" lon="13.017197675441826"><ele>236.0</ele><time>2026-04-18T10:26:41.002Z</time></trkpt><trkpt lat="41.797957367824004" lon="13.017292226501329"><ele>236.00000000000003</ele><time>2026-04-18T10:26:42.002Z</time></trkpt><trkpt lat="41.79801240432517" lon="13.017379826394805"><ele>236.0</ele><time>2026-04-18T10:26:43.002Z</time></trkpt><trkpt lat="41.798067913465324" lon="13.017468178532901"><ele>236.0</ele><time>2026-04-18T10:26:44.002Z</time></trkpt><trkpt lat="41.79811280947179" lon="13.017549479994567"><ele>236.0</ele><time>2026-04-18T10:26:45.002Z</time></trkpt><trkpt lat="41.79815496335586" lon="13.017624409664428"><ele>236.00000000000003</ele><time>2026-04-18T10:26:46.002Z</time></trkpt><trkpt lat="41.798189761620705" lon="13.017698022864"><ele>236.0</ele><time>2026-04-18T10:26:47.002Z</time></trkpt><trkpt lat="41.798209183257086" lon="13.01781889143199"><ele>236.00000000000003</ele><time>2026-04-18T10:26:49.002Z</time></trkpt><trkpt lat="41.79819649620982" lon="13.017951683302954"><ele>236.0</ele><time>2026-04-18T10:26:51.002Z</time></trkpt><trkpt lat="41.79819132787231" lon="13.018036773133097"><ele>236.0</ele><time>2026-04-18T10:26:52.002Z</time></trkpt><trkpt lat="41.79818502689835" lon="13.018122676413393"><ele>236.0</ele><time>2026-04-18T10:26:53.002Z</time></trkpt><trkpt lat="41.79817753250818" lon="13.018209025087518"><ele>236.00000000000003</ele><time>2026-04-18T10:26:54.002Z</time></trkpt><trkpt lat="41.79816205345759" lon="13.01836919642722"><ele>236.0</ele><time>2026-04-18T10:26:56.002Z</time></trkpt><trkpt lat="41.79814627421043" lon="13.018498023648247"><ele>236.0</ele><time>2026-04-18T10:26:58.002Z</time></trkpt><trkpt lat="41.79813508149759" lon="13.01858733575092"><ele>236.00000000000003</ele><time>2026-04-18T10:27:00.002Z</time></trkpt><trkpt lat="41.79807154559273" lon="13.018677161488386"><ele>236.00000000000003</ele><time>2026-04-18T10:28:53.001Z</time></trkpt><trkpt lat="41.797970841934706" lon="13.018675446122247"><ele>236.0</ele><time>2026-04-18T10:28:55.001Z</time></trkpt><trkpt lat="41.79786237082921" lon="13.018664428049199"><ele>236.0</ele><time>2026-04-18T10:28:57.001Z</time></trkpt><trkpt lat="41.79776437540835" lon="13.018642564241846"><ele>236.0</ele><time>2026-04-18T10:28:59.002Z</time></trkpt><trkpt lat="41.797673351285695" lon="13.018636866521183"><ele>236.00000000000003</ele><time>2026-04-18T10:29:01.002Z</time></trkpt><trkpt lat="41.79757411593001" lon="13.018607860446584"><ele>236.00000000000003</ele><time>2026-04-18T10:29:03.002Z</time></trkpt><trkpt lat="41.79748650284933" lon="13.018619590091575"><ele>236.0</ele><time>2026-04-18T10:29:05.002Z</time></trkpt><trkpt lat="41.797396361940955" lon="13.018624995106372"><ele>236.0</ele><time>2026-04-18T10:29:07.002Z</time></trkpt><trkpt lat="41.79730655299494" lon="13.018583592683491"><ele>236.00000000000003</ele><time>2026-04-18T10:29:09.002Z</time></trkpt><trkpt lat="41.79725230580856" lon="13.01853118550642"><ele>236.0</ele><time>2026-04-18T10:29:10.002Z</time></trkpt><trkpt lat="41.797195766722155" lon="13.018476622341563"><ele>236.0</ele><time>2026-04-18T10:29:11.002Z</time></trkpt><trkpt lat="41.79708765551404" lon="13.018398662107291"><ele>236.0</ele><time>2026-04-18T10:29:13.002Z</time></trkpt><trkpt lat="41.79699283054316" lon="13.018316912304956"><ele>236.00000000000003</ele><time>2026-04-18T10:29:15.002Z</time></trkpt><trkpt lat="41.79692840672198" lon="13.01826839050232"><ele>236.0</ele><time>2026-04-18T10:29:16.002Z</time></trkpt><trkpt lat="41.79686318294564" lon="13.018227527561324"><ele>236.20000000000002</ele><time>2026-04-18T10:29:17Z</time></trkpt><trkpt lat="41.79679550062998" lon="13.018189950681348"><ele>236.40000000000003</ele><time>2026-04-18T10:29:18Z</time></trkpt><trkpt lat="41.79667221015679" lon="13.018184319880897"><ele>236.6</ele><time>2026-04-18T10:29:20Z</time></trkpt><trkpt lat="41.79660615008662" lon="13.018172205507511"><ele>236.8</ele><time>2026-04-18T10:29:21Z</time></trkpt><trkpt lat="41.79647429516626" lon="13.018143722428762"><ele>237.0</ele><time>2026-04-18T10:29:23Z</time></trkpt><trkpt lat="41.7963938979548" lon="13.018135306094086"><ele>236.99999999999997</ele><time>2026-04-18T10:29:24Z</time></trkpt><trkpt lat="41.796327563479046" lon="13.018120990345185"><ele>237.0</ele><time>2026-04-18T10:29:25Z</time></trkpt><trkpt lat="41.79626108221779" lon="13.018118273405065"><ele>236.99999999999997</ele><time>2026-04-18T10:29:26Z</time></trkpt><trkpt lat="41.79618942477715" lon="13.018119896968715"><ele>236.99999999999997</ele><time>2026-04-18T10:29:27Z</time></trkpt><trkpt lat="41.79612169699488" lon="13.01812060149343"><ele>237.0</ele><time>2026-04-18T10:29:28Z</time></trkpt><trkpt lat="41.79605296438835" lon="13.018113606954856"><ele>236.99999999999997</ele><time>2026-04-18T10:29:29Z</time></trkpt><trkpt lat="41.795976135452435" lon="13.018109651296092"><ele>236.99999999999997</ele><time>2026-04-18T10:29:30Z</time></trkpt><trkpt lat="41.79590925156196" lon="13.018104689046979"><ele>237.0</ele><time>2026-04-18T10:29:31Z</time></trkpt><trkpt lat="41.79577473979894" lon="13.01809266515369"><ele>237.0</ele><time>2026-04-18T10:29:33Z</time></trkpt><trkpt lat="41.79570541016069" lon="13.018084327716194"><ele>237.0</ele><time>2026-04-18T10:29:34Z</time></trkpt><trkpt lat="41.795632600699314" lon="13.018092767583706"><ele>237.0</ele><time>2026-04-18T10:29:35Z</time></trkpt><trkpt lat="41.79556540273473" lon="13.018084731151014"><ele>237.0</ele><time>2026-04-18T10:29:36Z</time></trkpt><trkpt lat="41.79549787857715" lon="13.01807264003009"><ele>237.0</ele><time>2026-04-18T10:29:37Z</time></trkpt><trkpt lat="41.79543379454626" lon="13.018044311131993"><ele>237.0</ele><time>2026-04-18T10:29:38Z</time></trkpt><trkpt lat="41.7953202218381" lon="13.018005764301119"><ele>237.0</ele><time>2026-04-18T10:29:40Z</time></trkpt><trkpt lat="41.79521637408956" lon="13.017965965545017"><ele>237.0</ele><time>2026-04-18T10:29:42Z</time></trkpt><trkpt lat="41.79509127159081" lon="13.017926389716523"><ele>237.0</ele><time>2026-04-18T10:29:44Z</time></trkpt><trkpt lat="41.79502828956536" lon="13.017894860034419"><ele>237.0</ele><time>2026-04-18T10:29:45Z</time></trkpt><trkpt lat="41.79492186761831" lon="13.017859427373967"><ele>237.39999999999998</ele><time>2026-04-18T10:29:47Z</time></trkpt><trkpt lat="41.79483479231905" lon="13.01779977393589"><ele>237.79999999999998</ele><time>2026-04-18T10:29:49Z</time></trkpt><trkpt lat="41.794735215965005" lon="13.01774604376728"><ele>238.2</ele><time>2026-04-18T10:29:51Z</time></trkpt><trkpt lat="41.794630250258486" lon="13.017707425425655"><ele>238.6</ele><time>2026-04-18T10:29:53Z</time></trkpt><trkpt lat="41.794544365345416" lon="13.017698166806207"><ele>239.0</ele><time>2026-04-18T10:29:55Z</time></trkpt><trkpt lat="41.79447939483347" lon="13.017707695820224"><ele>239.00000000000003</ele><time>2026-04-18T10:29:58Z</time></trkpt><trkpt lat="41.794391722999215" lon="13.01769436393696"><ele>239.0</ele><time>2026-04-18T10:30:00Z</time></trkpt><trkpt lat="41.794311008888535" lon="13.017662390053594"><ele>239.0</ele><time>2026-04-18T10:30:02Z</time></trkpt><trkpt lat="41.79420577079457" lon="13.017643197862972"><ele>239.0</ele><time>2026-04-18T10:30:04Z</time></trkpt><trkpt lat="41.79412173200635" lon="13.017647363768644"><ele>239.00000000000003</ele><time>2026-04-18T10:30:06Z</time></trkpt><trkpt lat="41.79404525065959" lon="13.017659486213597"><ele>239.0</ele><time>2026-04-18T10:30:08Z</time></trkpt><trkpt lat="41.79395359517244" lon="13.017660975640096"><ele>238.83333333333334</ele><time>2026-04-18T10:30:10Z</time></trkpt><trkpt lat="41.79382722257282" lon="13.01766394552139"><ele>238.66666666666669</ele><time>2026-04-18T10:30:12Z</time></trkpt><trkpt lat="41.793767422886376" lon="13.017636879052999"><ele>238.5</ele><time>2026-04-18T10:30:13Z</time></trkpt><trkpt lat="41.793692155935574" lon="13.017631963381428"><ele>238.33333333333331</ele><time>2026-04-18T10:30:14Z</time></trkpt><trkpt lat="41.79362694093908" lon="13.017627432209466"><ele>238.16666666666666</ele><time>2026-04-18T10:30:15Z</time></trkpt><trkpt lat="41.79356467753347" lon="13.017642968252536"><ele>238.0</ele><time>2026-04-18T10:30:16Z</time></trkpt><trkpt lat="41.79345488240033" lon="13.017624686924398"><ele>237.60000000000002</ele><time>2026-04-18T10:30:18Z</time></trkpt><trkpt lat="41.79334827332446" lon="13.01761184984676"><ele>237.20000000000002</ele><time>2026-04-18T10:30:20.001Z</time></trkpt><trkpt lat="41.79325806702053" lon="13.017570210500532"><ele>236.8</ele><time>2026-04-18T10:30:22.001Z</time></trkpt><trkpt lat="41.79315029583858" lon="13.017544597792552"><ele>236.4</ele><time>2026-04-18T10:30:24.001Z</time></trkpt><trkpt lat="41.79304271761547" lon="13.017531471460558"><ele>236.0</ele><time>2026-04-18T10:30:26.001Z</time></trkpt><trkpt lat="41.792966572822074" lon="13.017512465592837"><ele>236.00000000000003</ele><time>2026-04-18T10:30:28.001Z</time></trkpt><trkpt lat="41.79290095569335" lon="13.017495017479831"><ele>236.0</ele><time>2026-04-18T10:30:31.001Z</time></trkpt><trkpt lat="41.79281687470604" lon="13.017461359227887"><ele>236.0</ele><time>2026-04-18T10:30:36.001Z</time></trkpt><trkpt lat="41.79274612868266" lon="13.017409922533503"><ele>236.0</ele><time>2026-04-18T10:30:39.001Z</time></trkpt><trkpt lat="41.7926792750968" lon="13.017367262984996"><ele>236.00000000000003</ele><time>2026-04-18T10:30:41.001Z</time></trkpt><trkpt lat="41.79260349164707" lon="13.017331310485995"><ele>236.0</ele><time>2026-04-18T10:30:44.001Z</time></trkpt><trkpt lat="41.79253355673686" lon="13.017332106626204"><ele>235.71428571428572</ele><time>2026-04-18T10:30:47.001Z</time></trkpt><trkpt lat="41.792468281656134" lon="13.0173227978361"><ele>235.42857142857144</ele><time>2026-04-18T10:30:50.001Z</time></trkpt><trkpt lat="41.79238594510648" lon="13.017302949331413"><ele>235.14285714285717</ele><time>2026-04-18T10:30:54.001Z</time></trkpt><trkpt lat="41.79231851104057" lon="13.017295906501811"><ele>234.85714285714286</ele><time>2026-04-18T10:30:56.001Z</time></trkpt><trkpt lat="41.79224178306089" lon="13.01729912723908"><ele>234.5714285714286</ele><time>2026-04-18T10:30:58.001Z</time></trkpt><trkpt lat="41.79217032149262" lon="13.017299112567715"><ele>234.2857142857143</ele><time>2026-04-18T10:31:00.001Z</time></trkpt><trkpt lat="41.792104914644916" lon="13.017339562437863"><ele>234.0</ele><time>2026-04-18T10:31:02.001Z</time></trkpt><trkpt lat="41.79205096285278" lon="13.017396825599567"><ele>234.0</ele><time>2026-04-18T10:31:04.001Z</time></trkpt><trkpt lat="41.792006781058284" lon="13.01746198210053"><ele>234.00000000000003</ele><time>2026-04-18T10:31:06.001Z</time></trkpt><trkpt lat="41.79193588967708" lon="13.017547869005456"><ele>234.0</ele><time>2026-04-18T10:31:09.001Z</time></trkpt><trkpt lat="41.79188012298284" lon="13.017592037348283"><ele>234.0</ele><time>2026-04-18T10:31:11.001Z</time></trkpt><trkpt lat="41.79181615158542" lon="13.017592085014543"><ele>234.00000000000003</ele><time>2026-04-18T10:31:13.001Z</time></trkpt><trkpt lat="41.791744755471626" lon="13.017553337617192"><ele>234.0</ele><time>2026-04-18T10:31:15.001Z</time></trkpt><trkpt lat="41.79168216326665" lon="13.017500569006948"><ele>234.0</ele><time>2026-04-18T10:31:18.001Z</time></trkpt><trkpt lat="41.79160560419948" lon="13.017373094442483"><ele>234.16666666666666</ele><time>2026-04-18T10:32:04.001Z</time></trkpt><trkpt lat="41.79154381359066" lon="13.017242079221859"><ele>234.33333333333331</ele><time>2026-04-18T10:32:06.001Z</time></trkpt><trkpt lat="41.79149806852798" lon="13.017168309761617"><ele>234.5</ele><time>2026-04-18T10:32:08.001Z</time></trkpt><trkpt lat="41.79143723532054" lon="13.01709512567292"><ele>234.66666666666666</ele><time>2026-04-18T10:32:11.001Z</time></trkpt><trkpt lat="41.79137260452313" lon="13.017036781144576"><ele>234.83333333333331</ele><time>2026-04-18T10:32:16.001Z</time></trkpt><trkpt lat="41.79130724131278" lon="13.017011150558853"><ele>235.0</ele><time>2026-04-18T10:32:18.001Z</time></trkpt><trkpt lat="41.7912370078458" lon="13.01692788208347"><ele>235.0</ele><time>2026-04-18T10:32:20.001Z</time></trkpt><trkpt lat="41.79113392810028" lon="13.016863223119639"><ele>235.0</ele><time>2026-04-18T10:32:22.001Z</time></trkpt><trkpt lat="41.79106661931525" lon="13.016779689100055"><ele>235.0</ele><time>2026-04-18T10:32:24.001Z</time></trkpt><trkpt lat="41.79098942904054" lon="13.016691546433448"><ele>235.0</ele><time>2026-04-18T10:32:26.001Z</time></trkpt><trkpt lat="41.790916737567" lon="13.016629092460024"><ele>235.0</ele><time>2026-04-18T10:32:28.001Z</time></trkpt><trkpt lat="41.79084736794605" lon="13.016570805898821"><ele>234.8</ele><time>2026-04-18T10:32:30.001Z</time></trkpt><trkpt lat="41.79078275570971" lon="13.01652545851515"><ele>234.6</ele><time>2026-04-18T10:32:32.001Z</time></trkpt><trkpt lat="41.790746141249315" lon="13.016435079805339"><ele>234.39999999999998</ele><time>2026-04-18T10:32:34.001Z</time></trkpt><trkpt lat="41.790657378746964" lon="13.016371449724822"><ele>234.2</ele><time>2026-04-18T10:32:36.001Z</time></trkpt><trkpt lat="41.790553410355024" lon="13.016367238680793"><ele>234.0</ele><time>2026-04-18T10:32:38.001Z</time></trkpt><trkpt lat="41.79044712073319" lon="13.016379281499141"><ele>234.0</ele><time>2026-04-18T10:32:40.001Z</time></trkpt><trkpt lat="41.79032552215646" lon="13.016441967326697"><ele>233.99999999999997</ele><time>2026-04-18T10:32:42.001Z</time></trkpt><trkpt lat="41.79026652720743" lon="13.016477926292328"><ele>233.99999999999997</ele><time>2026-04-18T10:32:43.001Z</time></trkpt><trkpt lat="41.79015690697293" lon="13.016514420028766"><ele>234.0</ele><time>2026-04-18T10:32:45.001Z</time></trkpt><trkpt lat="41.790092648509585" lon="13.016517387451117"><ele>234.0</ele><time>2026-04-18T10:32:46.001Z</time></trkpt><trkpt lat="41.79001660354872" lon="13.016490715965626"><ele>234.2</ele><time>2026-04-18T10:32:48.001Z</time></trkpt><trkpt lat="41.78990389459692" lon="13.016443129824076"><ele>234.39999999999998</ele><time>2026-04-18T10:32:50.001Z</time></trkpt><trkpt lat="41.78983418084924" lon="13.016405895537163"><ele>234.6</ele><time>2026-04-18T10:32:51.001Z</time></trkpt><trkpt lat="41.78974398388669" lon="13.016371222979966"><ele>234.8</ele><time>2026-04-18T10:32:52.001Z</time></trkpt><trkpt lat="41.78963988104437" lon="13.01632934747573"><ele>235.0</ele><time>2026-04-18T10:32:53.001Z</time></trkpt><trkpt lat="41.789527915267584" lon="13.01628569997152"><ele>235.0</ele><time>2026-04-18T10:32:54.001Z</time></trkpt><trkpt lat="41.78942858224922" lon="13.016249518633336"><ele>235.0</ele><time>2026-04-18T10:32:55.001Z</time></trkpt><trkpt lat="41.78934336955664" lon="13.01623247206738"><ele>235.0</ele><time>2026-04-18T10:32:56.001Z</time></trkpt><trkpt lat="41.789262344491" lon="13.016215218706305"><ele>235.0</ele><time>2026-04-18T10:32:57.001Z</time></trkpt><trkpt lat="41.78919591998151" lon="13.016186253208897"><ele>235.0</ele><time>2026-04-18T10:32:58.001Z</time></trkpt><trkpt lat="41.78907113601733" lon="13.01614021576497"><ele>235.33333333333331</ele><time>2026-04-18T10:33:00.001Z</time></trkpt><trkpt lat="41.789009556883244" lon="13.016108757581003"><ele>235.66666666666666</ele><time>2026-04-18T10:33:01.001Z</time></trkpt><trkpt lat="41.788948936891984" lon="13.016081744365717"><ele>236.0</ele><time>2026-04-18T10:33:02.001Z</time></trkpt><trkpt lat="41.788846859900936" lon="13.016019801358219"><ele>236.33333333333331</ele><time>2026-04-18T10:33:04.001Z</time></trkpt><trkpt lat="41.7887623750069" lon="13.01598040457957"><ele>236.66666666666666</ele><time>2026-04-18T10:33:06.001Z</time></trkpt><trkpt lat="41.78868417110585" lon="13.015939330255357"><ele>237.0</ele><time>2026-04-18T10:33:08.001Z</time></trkpt><trkpt lat="41.788606979877976" lon="13.015874914445641"><ele>238.5</ele><time>2026-04-18T10:33:10.001Z</time></trkpt><trkpt lat="41.7884916874514" lon="13.0158342968597"><ele>240.0</ele><time>2026-04-18T10:33:12.001Z</time></trkpt><trkpt lat="41.78842941442944" lon="13.015797967366593"><ele>241.5</ele><time>2026-04-18T10:33:13.001Z</time></trkpt><trkpt lat="41.78836826165025" lon="13.015757528167292"><ele>243.0</ele><time>2026-04-18T10:33:14.001Z</time></trkpt><trkpt lat="41.78830291117263" lon="13.015707675599039"><ele>244.5</ele><time>2026-04-18T10:33:15.001Z</time></trkpt><trkpt lat="41.78822796930769" lon="13.015611144901655"><ele>246.0</ele><time>2026-04-18T10:33:17.001Z</time></trkpt><trkpt lat="41.788146407628055" lon="13.015524960501724"><ele>245.8</ele><time>2026-04-18T10:33:19.001Z</time></trkpt><trkpt lat="41.78806831446624" lon="13.015407499911532"><ele>245.60000000000002</ele><time>2026-04-18T10:33:21.001Z</time></trkpt><trkpt lat="41.788009603454285" lon="13.01530077510167"><ele>245.4</ele><time>2026-04-18T10:33:23.001Z</time></trkpt><trkpt lat="41.78795769793443" lon="13.015170936728046"><ele>245.2</ele><time>2026-04-18T10:33:25.002Z</time></trkpt><trkpt lat="41.78789033518562" lon="13.015035736964101"><ele>245.0</ele><time>2026-04-18T10:33:27.002Z</time></trkpt><trkpt lat="41.78782287347119" lon="13.01490392715679"><ele>245.00000000000003</ele><time>2026-04-18T10:33:29.001Z</time></trkpt><trkpt lat="41.78777807055821" lon="13.014836987503687"><ele>245.0</ele><time>2026-04-18T10:33:30.001Z</time></trkpt><trkpt lat="41.787707246497" lon="13.014729756909565"><ele>245.0</ele><time>2026-04-18T10:33:32.001Z</time></trkpt><trkpt lat="41.787665296539515" lon="13.014646420137675"><ele>245.0</ele><time>2026-04-18T10:33:34.001Z</time></trkpt><trkpt lat="41.7876146354031" lon="13.014557018971642"><ele>245.00000000000003</ele><time>2026-04-18T10:33:37.001Z</time></trkpt><trkpt lat="41.78757672382127" lon="13.014476072897942"><ele>245.0</ele><time>2026-04-18T10:33:39.001Z</time></trkpt><trkpt lat="41.787533696911254" lon="13.014397846871464"><ele>246.50000000000003</ele><time>2026-04-18T10:33:41.001Z</time></trkpt><trkpt lat="41.787501963487685" lon="13.01430519792534"><ele>248.0</ele><time>2026-04-18T10:33:43.001Z</time></trkpt><trkpt lat="41.7874503157536" lon="13.014227203457263"><ele>249.5</ele><time>2026-04-18T10:33:45.001Z</time></trkpt><trkpt lat="41.787397643792204" lon="13.014129078695424"><ele>251.0</ele><time>2026-04-18T10:33:47.001Z</time></trkpt><trkpt lat="41.78734878390458" lon="13.014047487077365"><ele>252.50000000000003</ele><time>2026-04-18T10:33:49.001Z</time></trkpt><trkpt lat="41.78730111469687" lon="13.013949107907472"><ele>254.0</ele><time>2026-04-18T10:33:51.001Z</time></trkpt><trkpt lat="41.78725179717251" lon="13.013849533599462"><ele>254.2</ele><time>2026-04-18T10:33:53.001Z</time></trkpt><trkpt lat="41.787207875073165" lon="13.013758106533029"><ele>254.39999999999998</ele><time>2026-04-18T10:33:55.001Z</time></trkpt><trkpt lat="41.787153872629666" lon="13.013647534400237"><ele>254.6</ele><time>2026-04-18T10:33:57.001Z</time></trkpt><trkpt lat="41.78709363981067" lon="13.013539271029835"><ele>254.8</ele><time>2026-04-18T10:33:59.001Z</time></trkpt><trkpt lat="41.787027600323874" lon="13.013446992123304"><ele>255.0</ele><time>2026-04-18T10:34:01.001Z</time></trkpt><trkpt lat="41.786962878853465" lon="13.013339680376419"><ele>255.14285714285717</ele><time>2026-04-18T10:34:03.001Z</time></trkpt><trkpt lat="41.78690090065578" lon="13.01325661830349"><ele>255.2857142857143</ele><time>2026-04-18T10:34:05.001Z</time></trkpt><trkpt lat="41.78683503120982" lon="13.013195034639391"><ele>255.42857142857144</ele><time>2026-04-18T10:34:07.001Z</time></trkpt><trkpt lat="41.78678600096207" lon="13.013138681315787"><ele>255.57142857142856</ele><time>2026-04-18T10:34:09.001Z</time></trkpt><trkpt lat="41.78673061444608" lon="13.013098170102115"><ele>255.7142857142857</ele><time>2026-04-18T10:34:15.001Z</time></trkpt><trkpt lat="41.78675953215435" lon="13.013184755494073"><ele>255.85714285714283</ele><time>2026-04-18T10:34:19.001Z</time></trkpt><trkpt lat="41.78682958026517" lon="13.013191250651756"><ele>256.0</ele><time>2026-04-18T10:34:21.001Z</time></trkpt><trkpt lat="41.786888724263356" lon="13.013249539775037"><ele>255.83333333333331</ele><time>2026-04-18T10:34:25.001Z</time></trkpt><trkpt lat="41.78694131335222" lon="13.013325885305347"><ele>255.66666666666666</ele><time>2026-04-18T10:34:29.001Z</time></trkpt><trkpt lat="41.786999157582535" lon="13.01340591497596"><ele>255.5</ele><time>2026-04-18T10:34:31.001Z</time></trkpt><trkpt lat="41.78708896608178" lon="13.013535022904914"><ele>255.33333333333331</ele><time>2026-04-18T10:34:33.001Z</time></trkpt><trkpt lat="41.78713349250043" lon="13.013607436513642"><ele>255.16666666666666</ele><time>2026-04-18T10:34:34.001Z</time></trkpt><trkpt lat="41.787175665731944" lon="13.013690917236113"><ele>255.0</ele><time>2026-04-18T10:34:35.001Z</time></trkpt><trkpt lat="41.78721503044516" lon="13.013782898515599"><ele>255.0</ele><time>2026-04-18T10:34:36.001Z</time></trkpt><trkpt lat="41.78726577842984" lon="13.013883355845532"><ele>255.0</ele><time>2026-04-18T10:34:37.001Z</time></trkpt><trkpt lat="41.787317154684516" lon="13.013982686653414"><ele>255.0</ele><time>2026-04-18T10:34:38.001Z</time></trkpt><trkpt lat="41.7873664920365" lon="13.014086072787562"><ele>255.0</ele><time>2026-04-18T10:34:39.001Z</time></trkpt><trkpt lat="41.78741130343777" lon="13.014183425784198"><ele>255.0</ele><time>2026-04-18T10:34:40.001Z</time></trkpt><trkpt lat="41.787463141130026" lon="13.014276802869468"><ele>255.0</ele><time>2026-04-18T10:34:41.001Z</time></trkpt><trkpt lat="41.7875127961749" lon="13.014372079460815"><ele>254.85714285714286</ele><time>2026-04-18T10:34:42.001Z</time></trkpt><trkpt lat="41.787556057837065" lon="13.01447399399909"><ele>254.71428571428572</ele><time>2026-04-18T10:34:43.001Z</time></trkpt><trkpt lat="41.78759707987511" lon="13.014562156842405"><ele>254.57142857142858</ele><time>2026-04-18T10:34:44.001Z</time></trkpt><trkpt lat="41.78763799312222" lon="13.014636641814286"><ele>254.42857142857144</ele><time>2026-04-18T10:34:45.001Z</time></trkpt><trkpt lat="41.787680822641796" lon="13.014714412108626"><ele>254.28571428571428</ele><time>2026-04-18T10:34:46.001Z</time></trkpt><trkpt lat="41.787722505118474" lon="13.014781166681876"><ele>254.14285714285717</ele><time>2026-04-18T10:34:47.001Z</time></trkpt><trkpt lat="41.78776614558579" lon="13.014849682406812"><ele>254.0</ele><time>2026-04-18T10:34:48.001Z</time></trkpt><trkpt lat="41.787834231013726" lon="13.01495862462872"><ele>253.00000000000003</ele><time>2026-04-18T10:34:50.001Z</time></trkpt><trkpt lat="41.787893519625136" lon="13.015040463718265"><ele>252.0</ele><time>2026-04-18T10:34:52.001Z</time></trkpt><trkpt lat="41.78793641487227" lon="13.015125681046651"><ele>251.0</ele><time>2026-04-18T10:34:54.001Z</time></trkpt><trkpt lat="41.787983188260924" lon="13.015221272100458"><ele>250.0</ele><time>2026-04-18T10:34:56.001Z</time></trkpt><trkpt lat="41.788036865756965" lon="13.015328877008697"><ele>249.00000000000003</ele><time>2026-04-18T10:34:58.001Z</time></trkpt><trkpt lat="41.78809230081926" lon="13.015437066666356"><ele>248.0</ele><time>2026-04-18T10:35:00.001Z</time></trkpt><trkpt lat="41.78816031554019" lon="13.015538191047785"><ele>248.0</ele><time>2026-04-18T10:35:02.001Z</time></trkpt><trkpt lat="41.788236159845574" lon="13.01564045381425"><ele>248.0</ele><time>2026-04-18T10:35:04.001Z</time></trkpt><trkpt lat="41.788314321335974" lon="13.015727251728862"><ele>248.0</ele><time>2026-04-18T10:35:06.001Z</time></trkpt><trkpt lat="41.78840584133003" lon="13.015792715147542"><ele>248.0</ele><time>2026-04-18T10:35:08.001Z</time></trkpt><trkpt lat="41.788505672285496" lon="13.015852165093381"><ele>248.0</ele><time>2026-04-18T10:35:10.001Z</time></trkpt><trkpt lat="41.78859673983544" lon="13.015890633692699"><ele>245.8</ele><time>2026-04-18T10:35:12.001Z</time></trkpt><trkpt lat="41.788678027454694" lon="13.015926385246308"><ele>243.60000000000002</ele><time>2026-04-18T10:35:14.001Z</time></trkpt><trkpt lat="41.788737911037884" lon="13.01597724297308"><ele>241.39999999999998</ele><time>2026-04-18T10:35:16.001Z</time></trkpt><trkpt lat="41.78881637898898" lon="13.016008890514838"><ele>239.2</ele><time>2026-04-18T10:35:18.001Z</time></trkpt><trkpt lat="41.78893761948088" lon="13.016062093707127"><ele>237.0</ele><time>2026-04-18T10:35:20.001Z</time></trkpt><trkpt lat="41.78903077728385" lon="13.016109969957071"><ele>237.0</ele><time>2026-04-18T10:35:21.001Z</time></trkpt><trkpt lat="41.789148313375705" lon="13.016165531423145"><ele>237.0</ele><time>2026-04-18T10:35:22.001Z</time></trkpt><trkpt lat="41.78925187681273" lon="13.01620175908184"><ele>237.0</ele><time>2026-04-18T10:35:23.001Z</time></trkpt><trkpt lat="41.789342961940726" lon="13.016237465969901"><ele>237.0</ele><time>2026-04-18T10:35:24.001Z</time></trkpt><trkpt lat="41.7894222526938" lon="13.016259617682964"><ele>237.0</ele><time>2026-04-18T10:35:25.001Z</time></trkpt><trkpt lat="41.78951688765954" lon="13.016264769826497"><ele>236.66666666666666</ele><time>2026-04-18T10:35:27.001Z</time></trkpt><trkpt lat="41.78958141807974" lon="13.016316906606736"><ele>236.33333333333331</ele><time>2026-04-18T10:36:32.001Z</time></trkpt><trkpt lat="41.7896484671501" lon="13.01634291761214"><ele>236.0</ele><time>2026-04-18T10:36:33.001Z</time></trkpt><trkpt lat="41.789738081600724" lon="13.016366211864936"><ele>235.66666666666666</ele><time>2026-04-18T10:36:34.001Z</time></trkpt><trkpt lat="41.78980291025346" lon="13.016387094283232"><ele>235.33333333333331</ele><time>2026-04-18T10:36:35.001Z</time></trkpt><trkpt lat="41.789890441195176" lon="13.016424084601917"><ele>235.0</ele><time>2026-04-18T10:36:36.001Z</time></trkpt><trkpt lat="41.78995855850276" lon="13.016454905124553"><ele>235.0</ele><time>2026-04-18T10:36:37.001Z</time></trkpt><trkpt lat="41.79005922590674" lon="13.01650410671066"><ele>235.0</ele><time>2026-04-18T10:36:39.001Z</time></trkpt><trkpt lat="41.79014292956057" lon="13.01653292340493"><ele>235.0</ele><time>2026-04-18T10:36:41.001Z</time></trkpt><trkpt lat="41.79024919324438" lon="13.016537607866624"><ele>235.0</ele><time>2026-04-18T10:36:43.001Z</time></trkpt><trkpt lat="41.79035317284654" lon="13.016497322091707"><ele>235.0</ele><time>2026-04-18T10:36:45.001Z</time></trkpt><trkpt lat="41.7904476633305" lon="13.016462927267698"><ele>234.83333333333331</ele><time>2026-04-18T10:36:47.001Z</time></trkpt><trkpt lat="41.79051891924008" lon="13.016418671977396"><ele>234.66666666666666</ele><time>2026-04-18T10:36:49.001Z</time></trkpt><trkpt lat="41.79059377961575" lon="13.016409199253454"><ele>234.5</ele><time>2026-04-18T10:36:51.001Z</time></trkpt><trkpt lat="41.790672619477256" lon="13.016406416964614"><ele>234.33333333333331</ele><time>2026-04-18T10:36:53.001Z</time></trkpt><trkpt lat="41.79074604643563" lon="13.01645157854847"><ele>234.16666666666666</ele><time>2026-04-18T10:36:55.001Z</time></trkpt><trkpt lat="41.79080623414558" lon="13.016516232635846"><ele>234.0</ele><time>2026-04-18T10:36:57.001Z</time></trkpt><trkpt lat="41.79086473802119" lon="13.016600651311427"><ele>234.2</ele><time>2026-04-18T10:36:59.001Z</time></trkpt><trkpt lat="41.79093313649298" lon="13.016658176278174"><ele>234.39999999999998</ele><time>2026-04-18T10:37:01.001Z</time></trkpt><trkpt lat="41.79103403401126" lon="13.016738176680894"><ele>234.6</ele><time>2026-04-18T10:37:03.001Z</time></trkpt><trkpt lat="41.7911136134645" lon="13.01682456476361"><ele>234.8</ele><time>2026-04-18T10:37:05.001Z</time></trkpt><trkpt lat="41.79117816345204" lon="13.016887047579374"><ele>235.0</ele><time>2026-04-18T10:37:07.001Z</time></trkpt><trkpt lat="41.79125183130222" lon="13.016955788860187"><ele>234.99999999999997</ele><time>2026-04-18T10:37:09.001Z</time></trkpt><trkpt lat="41.79131748420087" lon="13.017004083948061"><ele>235.0</ele><time>2026-04-18T10:37:11.001Z</time></trkpt><trkpt lat="41.7913981297534" lon="13.017030055569341"><ele>235.0</ele><time>2026-04-18T10:37:14.001Z</time></trkpt><trkpt lat="41.79145699355906" lon="13.017089968825262"><ele>235.0</ele><time>2026-04-18T10:37:16.001Z</time></trkpt><trkpt lat="41.79149993064308" lon="13.017164051066862"><ele>234.99999999999997</ele><time>2026-04-18T10:37:17.001Z</time></trkpt><trkpt lat="41.791553115268414" lon="13.017251439179667"><ele>235.0</ele><time>2026-04-18T10:37:18.001Z</time></trkpt><trkpt lat="41.79161401371987" lon="13.017364985055014"><ele>234.99999999999997</ele><time>2026-04-18T10:37:20.001Z</time></trkpt><trkpt lat="41.7916528587075" lon="13.017478258777844"><ele>235.0</ele><time>2026-04-18T10:37:23.001Z</time></trkpt><trkpt lat="41.79162660015311" lon="13.017608218265295"><ele>235.0</ele><time>2026-04-18T10:37:25.001Z</time></trkpt><trkpt lat="41.7916490077864" lon="13.01771458767495"><ele>235.0</ele><time>2026-04-18T10:37:27.001Z</time></trkpt><trkpt lat="41.79167899370982" lon="13.017818832351091"><ele>234.99999999999997</ele><time>2026-04-18T10:37:29.001Z</time></trkpt><trkpt lat="41.79170418549087" lon="13.017908159254219"><ele>235.0</ele><time>2026-04-18T10:37:31.001Z</time></trkpt><trkpt lat="41.79173363349462" lon="13.018000167501373"><ele>235.33333333333331</ele><time>2026-04-18T10:37:33.001Z</time></trkpt><trkpt lat="41.79173818441707" lon="13.01813003041029"><ele>235.66666666666666</ele><time>2026-04-18T10:37:35.001Z</time></trkpt><trkpt lat="41.791729710253044" lon="13.018237640348282"><ele>236.0</ele><time>2026-04-18T10:37:37.001Z</time></trkpt><trkpt lat="41.79169405438714" lon="13.018363421510534"><ele>236.33333333333331</ele><time>2026-04-18T10:37:39.001Z</time></trkpt><trkpt lat="41.79169616654445" lon="13.018479358124866"><ele>236.66666666666666</ele><time>2026-04-18T10:37:41.001Z</time></trkpt><trkpt lat="41.79174559115678" lon="13.018562195337621"><ele>237.0</ele><time>2026-04-18T10:37:43.001Z</time></trkpt><trkpt lat="41.791807731499944" lon="13.018692556395148"><ele>236.66666666666666</ele><time>2026-04-18T10:37:45.001Z</time></trkpt><trkpt lat="41.79184422532426" lon="13.018769159389322"><ele>236.33333333333331</ele><time>2026-04-18T10:37:46.001Z</time></trkpt><trkpt lat="41.79191575054858" lon="13.018852866208057"><ele>236.0</ele><time>2026-04-18T10:37:47.001Z</time></trkpt><trkpt lat="41.79193983137641" lon="13.018956086939417"><ele>235.66666666666666</ele><time>2026-04-18T10:37:48.001Z</time></trkpt><trkpt lat="41.791985881046045" lon="13.01904483185496"><ele>235.33333333333331</ele><time>2026-04-18T10:37:49.001Z</time></trkpt><trkpt lat="41.79203134134039" lon="13.01913896140923"><ele>235.0</ele><time>2026-04-18T10:37:50.001Z</time></trkpt><trkpt lat="41.792094411771316" lon="13.019269554301566"><ele>235.0</ele><time>2026-04-18T10:37:51.001Z</time></trkpt><trkpt lat="41.79216089511511" lon="13.01940351314186"><ele>235.0</ele><time>2026-04-18T10:37:52.001Z</time></trkpt><trkpt lat="41.7922307364047" lon="13.019497879931187"><ele>235.0</ele><time>2026-04-18T10:37:53.001Z</time></trkpt><trkpt lat="41.79227048077755" lon="13.0196007674285"><ele>235.0</ele><time>2026-04-18T10:37:54.001Z</time></trkpt><trkpt lat="41.79232165711827" lon="13.0196861359671"><ele>235.0</ele><time>2026-04-18T10:37:55.001Z</time></trkpt><trkpt lat="41.79236615625232" lon="13.019760366079463"><ele>234.99999999999997</ele><time>2026-04-18T10:37:56.001Z</time></trkpt><trkpt lat="41.79242473254752" lon="13.019822491747492"><ele>235.0</ele><time>2026-04-18T10:37:57.001Z</time></trkpt><trkpt lat="41.79246353508187" lon="13.019927346411697"><ele>235.0</ele><time>2026-04-18T10:37:58.001Z</time></trkpt><trkpt lat="41.79252704756591" lon="13.020011259844889"><ele>235.0</ele><time>2026-04-18T10:37:59.001Z</time></trkpt><trkpt lat="41.79256212659611" lon="13.02008832229051"><ele>234.99999999999997</ele><time>2026-04-18T10:38:00.001Z</time></trkpt><trkpt lat="41.79261396842539" lon="13.020152724019297"><ele>235.0</ele><time>2026-04-18T10:38:01.001Z</time></trkpt><trkpt lat="41.79267620262943" lon="13.020240123397524"><ele>234.99999999999997</ele><time>2026-04-18T10:38:02.001Z</time></trkpt><trkpt lat="41.79275108852056" lon="13.020288411872693"><ele>235.0</ele><time>2026-04-18T10:38:03.001Z</time></trkpt><trkpt lat="41.79281418759318" lon="13.02035129981026"><ele>235.0</ele><time>2026-04-18T10:38:04.001Z</time></trkpt><trkpt lat="41.79286261451537" lon="13.020421980014449"><ele>235.0</ele><time>2026-04-18T10:38:05.001Z</time></trkpt><trkpt lat="41.79289660110781" lon="13.020549080233227"><ele>234.99999999999997</ele><time>2026-04-18T10:38:06.001Z</time></trkpt><trkpt lat="41.792965817968366" lon="13.020667518050537"><ele>235.0</ele><time>2026-04-18T10:38:07.001Z</time></trkpt><trkpt lat="41.79303711295811" lon="13.02074990130233"><ele>236.16666666666666</ele><time>2026-04-18T10:38:08.001Z</time></trkpt><trkpt lat="41.793124419676616" lon="13.020818566497471"><ele>237.33333333333331</ele><time>2026-04-18T10:38:09.001Z</time></trkpt><trkpt lat="41.79320741715241" lon="13.020876593613048"><ele>238.5</ele><time>2026-04-18T10:38:10.001Z</time></trkpt><trkpt lat="41.793265604387486" lon="13.020953870046327"><ele>239.66666666666669</ele><time>2026-04-18T10:38:11.001Z</time></trkpt><trkpt lat="41.793315826791954" lon="13.021013608549433"><ele>240.83333333333334</ele><time>2026-04-18T10:38:12.001Z</time></trkpt><trkpt lat="41.79335819898583" lon="13.02110393786098"><ele>242.0</ele><time>2026-04-18T10:38:13.001Z</time></trkpt><trkpt lat="41.79338982442531" lon="13.021189595222626"><ele>242.00000000000003</ele><time>2026-04-18T10:38:14.001Z</time></trkpt><trkpt lat="41.79342468304162" lon="13.021276384037492"><ele>242.0</ele><time>2026-04-18T10:38:15.001Z</time></trkpt><trkpt lat="41.79345555657325" lon="13.021352003618487"><ele>242.0</ele><time>2026-04-18T10:38:16.001Z</time></trkpt><trkpt lat="41.793493407750994" lon="13.021433497112172"><ele>242.0</ele><time>2026-04-18T10:38:17.001Z</time></trkpt><trkpt lat="41.79353940202125" lon="13.021518516190666"><ele>242.00000000000003</ele><time>2026-04-18T10:38:18.001Z</time></trkpt><trkpt lat="41.79358330953028" lon="13.021585266123648"><ele>242.0</ele><time>2026-04-18T10:38:19.001Z</time></trkpt><trkpt lat="41.793656434962955" lon="13.021691753556683"><ele>242.0</ele><time>2026-04-18T10:38:21.001Z</time></trkpt><trkpt lat="41.793703827225315" lon="13.021756087558272"><ele>242.0</ele><time>2026-04-18T10:38:22.001Z</time></trkpt><trkpt lat="41.79380554600486" lon="13.021860269316782"><ele>242.0</ele><time>2026-04-18T10:38:24.001Z</time></trkpt><trkpt lat="41.79386868701132" lon="13.021975358003717"><ele>242.0</ele><time>2026-04-18T10:38:26.001Z</time></trkpt><trkpt lat="41.793951269541715" lon="13.022085196240436"><ele>242.0</ele><time>2026-04-18T10:38:28.001Z</time></trkpt><trkpt lat="41.79402895679828" lon="13.02218852355688"><ele>242.0</ele><time>2026-04-18T10:38:30.001Z</time></trkpt><trkpt lat="41.79407428814948" lon="13.022248816158559"><ele>242.0</ele><time>2026-04-18T10:38:31.001Z</time></trkpt><trkpt lat="41.794159193405925" lon="13.022362600566954"><ele>242.0</ele><time>2026-04-18T10:38:33.001Z</time></trkpt><trkpt lat="41.79423822906124" lon="13.022476464705717"><ele>242.0</ele><time>2026-04-18T10:38:35.001Z</time></trkpt><trkpt lat="41.794304540914695" lon="13.022581380604379"><ele>242.0</ele><time>2026-04-18T10:38:37.001Z</time></trkpt><trkpt lat="41.7943578241314" lon="13.022673359818247"><ele>242.2</ele><time>2026-04-18T10:38:39.001Z</time></trkpt><trkpt lat="41.794410452446456" lon="13.022768885652331"><ele>242.39999999999998</ele><time>2026-04-18T10:38:41.001Z</time></trkpt><trkpt lat="41.79446251433207" lon="13.02288335594893"><ele>242.60000000000002</ele><time>2026-04-18T10:38:43.001Z</time></trkpt><trkpt lat="41.79451356095968" lon="13.023008029733495"><ele>242.8</ele><time>2026-04-18T10:38:45.001Z</time></trkpt><trkpt lat="41.794582956743454" lon="13.023119384473825"><ele>243.0</ele><time>2026-04-18T10:38:47.001Z</time></trkpt><trkpt lat="41.79461150882401" lon="13.023203247266014"><ele>243.0</ele><time>2026-04-18T10:38:50.001Z</time></trkpt><trkpt lat="41.79469097590774" lon="13.02330335085011"><ele>243.0</ele><time>2026-04-18T10:39:31.001Z</time></trkpt><trkpt lat="41.794768525097616" lon="13.023446612337379"><ele>243.0</ele><time>2026-04-18T10:39:33.001Z</time></trkpt><trkpt lat="41.79482231833428" lon="13.02350811846638"><ele>243.0</ele><time>2026-04-18T10:39:34.001Z</time></trkpt><trkpt lat="41.7949235120794" lon="13.023602963419261"><ele>243.0</ele><time>2026-04-18T10:39:36.001Z</time></trkpt><trkpt lat="41.79500519936722" lon="13.023714764524096"><ele>243.0</ele><time>2026-04-18T10:39:38.001Z</time></trkpt><trkpt lat="41.795093167950334" lon="13.023848598941973"><ele>243.0</ele><time>2026-04-18T10:39:40.001Z</time></trkpt><trkpt lat="41.7951569980438" lon="13.023999399849368"><ele>243.0</ele><time>2026-04-18T10:39:42.001Z</time></trkpt><trkpt lat="41.795178835259875" lon="13.02407984036902"><ele>243.0</ele><time>2026-04-18T10:39:43.001Z</time></trkpt><trkpt lat="41.79521190116664" lon="13.02424122613271"><ele>242.8</ele><time>2026-04-18T10:39:45.001Z</time></trkpt><trkpt lat="41.795259019288835" lon="13.024387598294004"><ele>242.60000000000002</ele><time>2026-04-18T10:39:47.001Z</time></trkpt><trkpt lat="41.7953285808005" lon="13.02449194324923"><ele>242.39999999999998</ele><time>2026-04-18T10:39:49.001Z</time></trkpt><trkpt lat="41.795431591210054" lon="13.024543180983624"><ele>242.2</ele><time>2026-04-18T10:39:51.001Z</time></trkpt><trkpt lat="41.79554359523379" lon="13.02453213452002"><ele>242.0</ele><time>2026-04-18T10:39:53.001Z</time></trkpt><trkpt lat="41.79561007545405" lon="13.024525124496115"><ele>242.00000000000003</ele><time>2026-04-18T10:39:54.001Z</time></trkpt><trkpt lat="41.795729545948596" lon="13.024551669136665"><ele>242.0</ele><time>2026-04-18T10:39:56.001Z</time></trkpt><trkpt lat="41.79583045986527" lon="13.024630867757764"><ele>242.0</ele><time>2026-04-18T10:39:58.001Z</time></trkpt><trkpt lat="41.79587884067753" lon="13.0246932958317"><ele>242.0</ele><time>2026-04-18T10:39:59.001Z</time></trkpt><trkpt lat="41.79592620178636" lon="13.024757883555898"><ele>242.00000000000003</ele><time>2026-04-18T10:40:00.001Z</time></trkpt><trkpt lat="41.79597253406588" lon="13.024822856078176"><ele>242.0</ele><time>2026-04-18T10:40:01.001Z</time></trkpt><trkpt lat="41.79602547703789" lon="13.024891428998123"><ele>242.33333333333334</ele><time>2026-04-18T10:40:02Z</time></trkpt><trkpt lat="41.796107818526345" lon="13.025008200503654"><ele>242.66666666666669</ele><time>2026-04-18T10:40:04Z</time></trkpt><trkpt lat="41.79619524790701" lon="13.025125218503808"><ele>243.0</ele><time>2026-04-18T10:40:06Z</time></trkpt><trkpt lat="41.79623420627889" lon="13.0251915502583"><ele>243.33333333333331</ele><time>2026-04-18T10:40:07Z</time></trkpt><trkpt lat="41.79627319617309" lon="13.025259287870401"><ele>243.66666666666666</ele><time>2026-04-18T10:40:08Z</time></trkpt><trkpt lat="41.796317337768116" lon="13.025324253927058"><ele>244.0</ele><time>2026-04-18T10:40:09Z</time></trkpt><trkpt lat="41.79635961149921" lon="13.025389075011967"><ele>244.0</ele><time>2026-04-18T10:40:10Z</time></trkpt><trkpt lat="41.79639642094247" lon="13.025466598451013"><ele>243.99999999999997</ele><time>2026-04-18T10:40:11Z</time></trkpt><trkpt lat="41.79647721360577" lon="13.025607313577419"><ele>243.99999999999997</ele><time>2026-04-18T10:40:13Z</time></trkpt><trkpt lat="41.79651097731723" lon="13.025681751713977"><ele>244.0</ele><time>2026-04-18T10:40:14Z</time></trkpt><trkpt lat="41.79655766004004" lon="13.025797199101827"><ele>244.0</ele><time>2026-04-18T10:40:16Z</time></trkpt><trkpt lat="41.796608025363035" lon="13.025914211197785"><ele>243.99999999999997</ele><time>2026-04-18T10:40:18Z</time></trkpt><trkpt lat="41.796639422266566" lon="13.02599396575029"><ele>244.0</ele><time>2026-04-18T10:40:19Z</time></trkpt><trkpt lat="41.79667394426228" lon="13.026089980526054"><ele>243.99999999999997</ele><time>2026-04-18T10:40:20Z</time></trkpt><trkpt lat="41.79670248840677" lon="13.0261714368397"><ele>243.99999999999997</ele><time>2026-04-18T10:40:21Z</time></trkpt><trkpt lat="41.79672962803904" lon="13.026255694591995"><ele>244.0</ele><time>2026-04-18T10:40:22Z</time></trkpt><trkpt lat="41.79676274523145" lon="13.026338959937146"><ele>243.99999999999997</ele><time>2026-04-18T10:40:23Z</time></trkpt><trkpt lat="41.796798875761446" lon="13.02642122141925"><ele>243.99999999999997</ele><time>2026-04-18T10:40:24Z</time></trkpt><trkpt lat="41.7968222265824" lon="13.026511335796766"><ele>244.16666666666666</ele><time>2026-04-18T10:40:25Z</time></trkpt><trkpt lat="41.796839470074055" lon="13.026611573316895"><ele>244.33333333333331</ele><time>2026-04-18T10:40:26Z</time></trkpt><trkpt lat="41.79684533614583" lon="13.026716966276018"><ele>244.5</ele><time>2026-04-18T10:40:27Z</time></trkpt><trkpt lat="41.79684142103222" lon="13.026818633649802"><ele>244.66666666666669</ele><time>2026-04-18T10:40:28Z</time></trkpt><trkpt lat="41.79684138484983" lon="13.026937468785075"><ele>244.83333333333334</ele><time>2026-04-18T10:40:29Z</time></trkpt><trkpt lat="41.796846707196046" lon="13.02703904247076"><ele>245.0</ele><time>2026-04-18T10:40:30Z</time></trkpt><trkpt lat="41.796848240742655" lon="13.027126272214955"><ele>245.0</ele><time>2026-04-18T10:40:31Z</time></trkpt><trkpt lat="41.79685446565458" lon="13.027232250738498"><ele>245.0</ele><time>2026-04-18T10:40:32Z</time></trkpt><trkpt lat="41.796859584315705" lon="13.027349966345021"><ele>245.0</ele><time>2026-04-18T10:40:33Z</time></trkpt><trkpt lat="41.796866212500916" lon="13.027494213993352"><ele>245.0</ele><time>2026-04-18T10:40:34Z</time></trkpt><trkpt lat="41.796884027942085" lon="13.027665730931941"><ele>245.0</ele><time>2026-04-18T10:40:35Z</time></trkpt><trkpt lat="41.79690622902722" lon="13.02782421638579"><ele>245.0</ele><time>2026-04-18T10:40:36Z</time></trkpt><trkpt lat="41.796928116289585" lon="13.027955931191848"><ele>245.0</ele><time>2026-04-18T10:40:37Z</time></trkpt><trkpt lat="41.79695466355881" lon="13.028075997634296"><ele>245.0</ele><time>2026-04-18T10:40:38Z</time></trkpt><trkpt lat="41.796989612633716" lon="13.028197419127622"><ele>245.0</ele><time>2026-04-18T10:40:39Z</time></trkpt><trkpt lat="41.79702561707116" lon="13.028336507979475"><ele>245.0</ele><time>2026-04-18T10:40:40Z</time></trkpt><trkpt lat="41.79705512410172" lon="13.028466890835897"><ele>245.2</ele><time>2026-04-18T10:40:41Z</time></trkpt><trkpt lat="41.79708456953589" lon="13.028587960675685"><ele>245.4</ele><time>2026-04-18T10:40:42Z</time></trkpt><trkpt lat="41.797114695975765" lon="13.028735237149597"><ele>245.60000000000002</ele><time>2026-04-18T10:40:43Z</time></trkpt><trkpt lat="41.79714627562876" lon="13.028869769167505"><ele>245.8</ele><time>2026-04-18T10:40:44Z</time></trkpt><trkpt lat="41.79716726561331" lon="13.029025382144159"><ele>246.0</ele><time>2026-04-18T10:40:45Z</time></trkpt><trkpt lat="41.797186660151795" lon="13.029177825062764"><ele>246.0</ele><time>2026-04-18T10:40:46Z</time></trkpt><trkpt lat="41.79721839948459" lon="13.02933468896043"><ele>246.0</ele><time>2026-04-18T10:40:47Z</time></trkpt><trkpt lat="41.79724203120826" lon="13.029493900441771"><ele>246.0</ele><time>2026-04-18T10:40:48Z</time></trkpt><trkpt lat="41.79726337917707" lon="13.029648178372632"><ele>246.0</ele><time>2026-04-18T10:40:49Z</time></trkpt><trkpt lat="41.797283249772605" lon="13.029794496436446"><ele>246.0</ele><time>2026-04-18T10:40:50Z</time></trkpt><trkpt lat="41.79729931922564" lon="13.029955648970233"><ele>246.00000000000003</ele><time>2026-04-18T10:40:51Z</time></trkpt><trkpt lat="41.79733065855705" lon="13.03012111406573"><ele>246.00000000000003</ele><time>2026-04-18T10:40:52Z</time></trkpt><trkpt lat="41.79736075483595" lon="13.030263338204112"><ele>246.0</ele><time>2026-04-18T10:40:53Z</time></trkpt><trkpt lat="41.797389323449444" lon="13.030375183590222"><ele>246.0</ele><time>2026-04-18T10:40:54Z</time></trkpt><trkpt lat="41.79741571610448" lon="13.030500466458912"><ele>246.4</ele><time>2026-04-18T10:40:55Z</time></trkpt><trkpt lat="41.79743194057033" lon="13.030619942445762"><ele>246.8</ele><time>2026-04-18T10:40:56Z</time></trkpt><trkpt lat="41.79744316935025" lon="13.030755901183687"><ele>247.20000000000002</ele><time>2026-04-18T10:40:57Z</time></trkpt><trkpt lat="41.79745791380223" lon="13.030897587441817"><ele>247.60000000000002</ele><time>2026-04-18T10:40:58Z</time></trkpt><trkpt lat="41.797480063171996" lon="13.031033541724618"><ele>248.0</ele><time>2026-04-18T10:40:59Z</time></trkpt><trkpt lat="41.79749861629851" lon="13.031167690568411"><ele>248.0</ele><time>2026-04-18T10:41:00Z</time></trkpt><trkpt lat="41.797516757155066" lon="13.031307892838097"><ele>248.0</ele><time>2026-04-18T10:41:01Z</time></trkpt><trkpt lat="41.79752775680183" lon="13.031442166765839"><ele>248.0</ele><time>2026-04-18T10:41:02Z</time></trkpt><trkpt lat="41.7975465480258" lon="13.031592650077785"><ele>248.0</ele><time>2026-04-18T10:41:03Z</time></trkpt><trkpt lat="41.79756319869968" lon="13.03175909483922"><ele>248.0</ele><time>2026-04-18T10:41:04Z</time></trkpt><trkpt lat="41.79758687274726" lon="13.031911268773472"><ele>248.83333333333334</ele><time>2026-04-18T10:41:05Z</time></trkpt><trkpt lat="41.797605493972746" lon="13.032040554918273"><ele>249.66666666666669</ele><time>2026-04-18T10:41:06Z</time></trkpt><trkpt lat="41.79762742236819" lon="13.032148454945442"><ele>250.5</ele><time>2026-04-18T10:41:07Z</time></trkpt><trkpt lat="41.79765173014126" lon="13.032277267676898"><ele>251.33333333333331</ele><time>2026-04-18T10:41:09Z</time></trkpt><trkpt lat="41.79761765351459" lon="13.032348578338564"><ele>252.16666666666666</ele><time>2026-04-18T10:41:23Z</time></trkpt><trkpt lat="41.79757935778951" lon="13.032447165016917"><ele>253.0</ele><time>2026-04-18T10:41:49.001Z</time></trkpt><trkpt lat="41.797597809823166" lon="13.032567471252014"><ele>253.0</ele><time>2026-04-18T10:41:51.001Z</time></trkpt><trkpt lat="41.79764947701054" lon="13.032667837419494"><ele>253.0</ele><time>2026-04-18T10:41:53.001Z</time></trkpt><trkpt lat="41.79767493270877" lon="13.032800274142344"><ele>253.0</ele><time>2026-04-18T10:41:55.001Z</time></trkpt><trkpt lat="41.797677596472965" lon="13.032931721796857"><ele>253.0</ele><time>2026-04-18T10:41:57.001Z</time></trkpt><trkpt lat="41.797678532716624" lon="13.033064973906994"><ele>253.0</ele><time>2026-04-18T10:41:59.001Z</time></trkpt><trkpt lat="41.79769258520007" lon="13.033213702992583"><ele>252.8</ele><time>2026-04-18T10:42:01.001Z</time></trkpt><trkpt lat="41.79772034261372" lon="13.033365322625736"><ele>252.60000000000002</ele><time>2026-04-18T10:42:03.001Z</time></trkpt><trkpt lat="41.79774534601336" lon="13.033512590710199"><ele>252.39999999999998</ele><time>2026-04-18T10:42:05.001Z</time></trkpt><trkpt lat="41.79777837839062" lon="13.033663072631551"><ele>252.2</ele><time>2026-04-18T10:42:07.001Z</time></trkpt><trkpt lat="41.797802143093165" lon="13.033775865282296"><ele>252.0</ele><time>2026-04-18T10:42:09.001Z</time></trkpt><trkpt lat="41.79780655299506" lon="13.033861204001006"><ele>252.0</ele><time>2026-04-18T10:42:11.001Z</time></trkpt><trkpt lat="41.79779015686211" lon="13.033952793974686"><ele>252.0</ele><time>2026-04-18T10:42:14Z</time></trkpt><trkpt lat="41.79774981869966" lon="13.034040435301753"><ele>252.0</ele><time>2026-04-18T10:42:33Z</time></trkpt><trkpt lat="41.79780853732501" lon="13.033997689959525"><ele>252.0</ele><time>2026-04-18T10:43:20Z</time></trkpt><trkpt lat="41.797804972608404" lon="13.03387530262823"><ele>252.0</ele><time>2026-04-18T10:43:24Z</time></trkpt><trkpt lat="41.79779541817406" lon="13.033761870400676"><ele>252.0</ele><time>2026-04-18T10:43:26Z</time></trkpt><trkpt lat="41.79777132614536" lon="13.033600700243015"><ele>252.0</ele><time>2026-04-18T10:43:28Z</time></trkpt><trkpt lat="41.79775036213615" lon="13.033517470926407"><ele>252.0</ele><time>2026-04-18T10:43:29Z</time></trkpt><trkpt lat="41.79770555261057" lon="13.033364291645134"><ele>252.0</ele><time>2026-04-18T10:43:31Z</time></trkpt><trkpt lat="41.79767736156156" lon="13.03320654598969"><ele>252.0</ele><time>2026-04-18T10:43:33Z</time></trkpt><trkpt lat="41.797671422764566" lon="13.033048864999472"><ele>252.0</ele><time>2026-04-18T10:43:35Z</time></trkpt><trkpt lat="41.797662088559065" lon="13.032908982233876"><ele>252.16666666666666</ele><time>2026-04-18T10:43:37Z</time></trkpt><trkpt lat="41.797657530111515" lon="13.03277572751767"><ele>252.33333333333331</ele><time>2026-04-18T10:43:39Z</time></trkpt><trkpt lat="41.79762861099528" lon="13.032666161588027"><ele>252.5</ele><time>2026-04-18T10:43:41Z</time></trkpt><trkpt lat="41.79759731465022" lon="13.032585144993789"><ele>252.66666666666666</ele><time>2026-04-18T10:43:43Z</time></trkpt><trkpt lat="41.79756684122861" lon="13.032477804807836"><ele>252.83333333333331</ele><time>2026-04-18T10:43:46Z</time></trkpt><trkpt lat="41.797626756777284" lon="13.03244400516104"><ele>253.0</ele><time>2026-04-18T10:43:56.001Z</time></trkpt><trkpt lat="41.797680543643104" lon="13.03254696806324"><ele>252.99999999999997</ele><time>2026-04-18T10:43:58.001Z</time></trkpt><trkpt lat="41.79772539975766" lon="13.032659165706823"><ele>253.0</ele><time>2026-04-18T10:44:00.001Z</time></trkpt><trkpt lat="41.79776617083648" lon="13.032725145869428"><ele>253.0</ele><time>2026-04-18T10:44:01.001Z</time></trkpt><trkpt lat="41.79781089988347" lon="13.032813959253424"><ele>253.0</ele><time>2026-04-18T10:44:02.001Z</time></trkpt><trkpt lat="41.797857578509664" lon="13.032904711900741"><ele>252.99999999999997</ele><time>2026-04-18T10:44:03.001Z</time></trkpt><trkpt lat="41.797902581903976" lon="13.033000968089508"><ele>253.0</ele><time>2026-04-18T10:44:04.001Z</time></trkpt><trkpt lat="41.79796086225362" lon="13.033106643040272"><ele>253.0</ele><time>2026-04-18T10:44:05.001Z</time></trkpt><trkpt lat="41.79801249623836" lon="13.033203775506912"><ele>253.0</ele><time>2026-04-18T10:44:06.001Z</time></trkpt><trkpt lat="41.79806424400148" lon="13.033301301698184"><ele>253.0</ele><time>2026-04-18T10:44:07.001Z</time></trkpt><trkpt lat="41.79812008101197" lon="13.033411318263802"><ele>253.0</ele><time>2026-04-18T10:44:08.001Z</time></trkpt><trkpt lat="41.79818557002991" lon="13.03351886231204"><ele>253.0</ele><time>2026-04-18T10:44:09.001Z</time></trkpt><trkpt lat="41.798252262899446" lon="13.033629905661583"><ele>252.75</ele><time>2026-04-18T10:44:10Z</time></trkpt><trkpt lat="41.79831972488518" lon="13.03374757999062"><ele>252.5</ele><time>2026-04-18T10:44:11Z</time></trkpt><trkpt lat="41.79838890971542" lon="13.033865835555174"><ele>252.25</ele><time>2026-04-18T10:44:12Z</time></trkpt><trkpt lat="41.798460805623364" lon="13.033997401101574"><ele>252.0</ele><time>2026-04-18T10:44:13Z</time></trkpt><trkpt lat="41.798524489258526" lon="13.03411584698632"><ele>252.5</ele><time>2026-04-18T10:44:14Z</time></trkpt><trkpt lat="41.79857510171935" lon="13.034205736394128"><ele>253.0</ele><time>2026-04-18T10:44:15Z</time></trkpt><trkpt lat="41.798620337652494" lon="13.034283551768342"><ele>253.5</ele><time>2026-04-18T10:44:16Z</time></trkpt><trkpt lat="41.7986613924055" lon="13.034348443931005"><ele>254.0</ele><time>2026-04-18T10:44:17Z</time></trkpt><trkpt lat="41.79874011320088" lon="13.034438982993366"><ele>254.5</ele><time>2026-04-18T10:44:19Z</time></trkpt><trkpt lat="41.798815132074786" lon="13.034414539592511"><ele>255.0</ele><time>2026-04-18T10:44:21Z</time></trkpt><trkpt lat="41.79887381136485" lon="13.034290035455244"><ele>255.0</ele><time>2026-04-18T10:44:23Z</time></trkpt><trkpt lat="41.79888407419778" lon="13.03420639261783"><ele>255.00000000000003</ele><time>2026-04-18T10:44:24Z</time></trkpt><trkpt lat="41.798875716443355" lon="13.034039784590615"><ele>255.0</ele><time>2026-04-18T10:44:26Z</time></trkpt><trkpt lat="41.79886200318113" lon="13.033953506551518"><ele>255.0</ele><time>2026-04-18T10:44:27Z</time></trkpt><trkpt lat="41.798847728129026" lon="13.033868475359615"><ele>255.00000000000003</ele><time>2026-04-18T10:44:28Z</time></trkpt><trkpt lat="41.798840165618685" lon="13.033784410542292"><ele>255.0</ele><time>2026-04-18T10:44:29Z</time></trkpt><trkpt lat="41.79884050982541" lon="13.033696646293395"><ele>255.0</ele><time>2026-04-18T10:44:30Z</time></trkpt><trkpt lat="41.79883277617733" lon="13.033600225760086"><ele>255.2857142857143</ele><time>2026-04-18T10:44:31Z</time></trkpt><trkpt lat="41.79882143620716" lon="13.033510666947345"><ele>255.5714285714286</ele><time>2026-04-18T10:44:32Z</time></trkpt><trkpt lat="41.798807798519974" lon="13.033422038170702"><ele>255.85714285714286</ele><time>2026-04-18T10:44:33Z</time></trkpt><trkpt lat="41.79878262419293" lon="13.0333371152954"><ele>256.14285714285717</ele><time>2026-04-18T10:44:34Z</time></trkpt><trkpt lat="41.79874331252175" lon="13.033255059759696"><ele>256.42857142857144</ele><time>2026-04-18T10:44:35Z</time></trkpt><trkpt lat="41.79868914774111" lon="13.033186542680701"><ele>256.7142857142857</ele><time>2026-04-18T10:44:36Z</time></trkpt><trkpt lat="41.798626819164326" lon="13.033113555943029"><ele>257.0</ele><time>2026-04-18T10:44:37Z</time></trkpt><trkpt lat="41.79857988114978" lon="13.033031136187718"><ele>256.57142857142856</ele><time>2026-04-18T10:44:38Z</time></trkpt><trkpt lat="41.79853782477911" lon="13.032940918860533"><ele>256.14285714285717</ele><time>2026-04-18T10:44:39Z</time></trkpt><trkpt lat="41.7985170220403" lon="13.032852036950205"><ele>255.71428571428572</ele><time>2026-04-18T10:44:40Z</time></trkpt><trkpt lat="41.798503533310786" lon="13.032755452338046"><ele>255.28571428571428</ele><time>2026-04-18T10:44:41Z</time></trkpt><trkpt lat="41.798496663792164" lon="13.032665882939142"><ele>254.85714285714283</ele><time>2026-04-18T10:44:42Z</time></trkpt><trkpt lat="41.79848927526077" lon="13.032575517588548"><ele>254.42857142857144</ele><time>2026-04-18T10:44:43Z</time></trkpt><trkpt lat="41.79848782986891" lon="13.032484025249538"><ele>254.0</ele><time>2026-04-18T10:44:44Z</time></trkpt><trkpt lat="41.798482500249314" lon="13.032330239370687"><ele>254.0</ele><time>2026-04-18T10:44:46Z</time></trkpt><trkpt lat="41.798464373918605" lon="13.03218899614626"><ele>253.99999999999997</ele><time>2026-04-18T10:44:48Z</time></trkpt><trkpt lat="41.79844425736206" lon="13.032043870184728"><ele>253.99999999999997</ele><time>2026-04-18T10:44:50Z</time></trkpt><trkpt lat="41.7984088242748" lon="13.031916816879708"><ele>254.0</ele><time>2026-04-18T10:44:52Z</time></trkpt><trkpt lat="41.798359879472805" lon="13.031771585611597"><ele>254.0</ele><time>2026-04-18T10:44:54Z</time></trkpt><trkpt lat="41.798334685520565" lon="13.031690578097654"><ele>254.2</ele><time>2026-04-18T10:44:55Z</time></trkpt><trkpt lat="41.79830981120236" lon="13.031612383675894"><ele>254.39999999999998</ele><time>2026-04-18T10:44:56Z</time></trkpt><trkpt lat="41.79828692375382" lon="13.031526009790007"><ele>254.6</ele><time>2026-04-18T10:44:57Z</time></trkpt><trkpt lat="41.79824162903227" lon="13.031364570949052"><ele>254.8</ele><time>2026-04-18T10:44:59Z</time></trkpt><trkpt lat="41.798233054356366" lon="13.03118840299073"><ele>255.0</ele><time>2026-04-18T10:45:01Z</time></trkpt><trkpt lat="41.79824730504214" lon="13.03108372908483"><ele>255.0</ele><time>2026-04-18T10:45:02Z</time></trkpt><trkpt lat="41.798253283914164" lon="13.030979921235538"><ele>255.0</ele><time>2026-04-18T10:45:03Z</time></trkpt><trkpt lat="41.79825737852973" lon="13.030868710757133"><ele>255.0</ele><time>2026-04-18T10:45:04Z</time></trkpt><trkpt lat="41.798245576532466" lon="13.030748795567515"><ele>255.0</ele><time>2026-04-18T10:45:05Z</time></trkpt><trkpt lat="41.798226891245946" lon="13.030626792009762"><ele>255.0</ele><time>2026-04-18T10:45:06Z</time></trkpt><trkpt lat="41.79821277446954" lon="13.030499359501427"><ele>255.0</ele><time>2026-04-18T10:45:07Z</time></trkpt><trkpt lat="41.798205692796394" lon="13.030372406685835"><ele>254.8</ele><time>2026-04-18T10:45:08Z</time></trkpt><trkpt lat="41.798196727759176" lon="13.030243971674494"><ele>254.6</ele><time>2026-04-18T10:45:09Z</time></trkpt><trkpt lat="41.79818232964281" lon="13.030113577685372"><ele>254.39999999999998</ele><time>2026-04-18T10:45:10Z</time></trkpt><trkpt lat="41.798170535302596" lon="13.029985296778802"><ele>254.2</ele><time>2026-04-18T10:45:11Z</time></trkpt><trkpt lat="41.79816478021241" lon="13.029861093167849"><ele>254.0</ele><time>2026-04-18T10:45:12Z</time></trkpt><trkpt lat="41.79814695213176" lon="13.029730490209424"><ele>254.0</ele><time>2026-04-18T10:45:13Z</time></trkpt><trkpt lat="41.798144267481966" lon="13.029588211396787"><ele>253.99999999999997</ele><time>2026-04-18T10:45:14Z</time></trkpt><trkpt lat="41.79814596060024" lon="13.029478882586972"><ele>253.99999999999997</ele><time>2026-04-18T10:45:15Z</time></trkpt><trkpt lat="41.798146032610134" lon="13.029331371755772"><ele>254.0</ele><time>2026-04-18T10:45:16Z</time></trkpt><trkpt lat="41.7981408725524" lon="13.029194356947507"><ele>254.0</ele><time>2026-04-18T10:45:17Z</time></trkpt><trkpt lat="41.79813923230165" lon="13.029066123845675"><ele>254.0</ele><time>2026-04-18T10:45:18Z</time></trkpt><trkpt lat="41.798147643327404" lon="13.028936744479763"><ele>253.99999999999997</ele><time>2026-04-18T10:45:19Z</time></trkpt><trkpt lat="41.79816618040856" lon="13.0288153637512"><ele>253.99999999999997</ele><time>2026-04-18T10:45:20Z</time></trkpt><trkpt lat="41.7981952821783" lon="13.028697435076458"><ele>254.0</ele><time>2026-04-18T10:45:21Z</time></trkpt><trkpt lat="41.79822694904578" lon="13.028586452039901"><ele>254.0</ele><time>2026-04-18T10:45:22Z</time></trkpt><trkpt lat="41.79825152231441" lon="13.028471109410178"><ele>254.0</ele><time>2026-04-18T10:45:23Z</time></trkpt><trkpt lat="41.798263335843465" lon="13.028350980335414"><ele>253.99999999999997</ele><time>2026-04-18T10:45:24Z</time></trkpt><trkpt lat="41.79825249107187" lon="13.028230643315716"><ele>253.99999999999997</ele><time>2026-04-18T10:45:25Z</time></trkpt><trkpt lat="41.798211588763884" lon="13.028112695230865"><ele>254.0</ele><time>2026-04-18T10:45:26Z</time></trkpt><trkpt lat="41.79815730241889" lon="13.02802221886036"><ele>254.0</ele><time>2026-04-18T10:45:27Z</time></trkpt><trkpt lat="41.79810440355537" lon="13.027925605295623"><ele>254.16666666666669</ele><time>2026-04-18T10:45:28Z</time></trkpt><trkpt lat="41.79804817094228" lon="13.02783286649485"><ele>254.33333333333334</ele><time>2026-04-18T10:45:29Z</time></trkpt><trkpt lat="41.79799286013005" lon="13.027740597322836"><ele>254.5</ele><time>2026-04-18T10:45:30Z</time></trkpt><trkpt lat="41.797935629812535" lon="13.027644420269114"><ele>254.66666666666669</ele><time>2026-04-18T10:45:31Z</time></trkpt><trkpt lat="41.79788127352534" lon="13.027551563287863"><ele>254.83333333333334</ele><time>2026-04-18T10:45:32Z</time></trkpt><trkpt lat="41.797830565513735" lon="13.027458451418433"><ele>255.0</ele><time>2026-04-18T10:45:33Z</time></trkpt><trkpt lat="41.797792349905215" lon="13.027364169988045"><ele>254.16666666666666</ele><time>2026-04-18T10:45:34Z</time></trkpt><trkpt lat="41.79777465363703" lon="13.027255477947875"><ele>253.33333333333331</ele><time>2026-04-18T10:45:35Z</time></trkpt><trkpt lat="41.7977688830643" lon="13.02714305245042"><ele>252.5</ele><time>2026-04-18T10:45:36Z</time></trkpt><trkpt lat="41.79779231172622" lon="13.027024977464402"><ele>251.66666666666666</ele><time>2026-04-18T10:45:37Z</time></trkpt><trkpt lat="41.79783331124284" lon="13.026933592979645"><ele>250.83333333333331</ele><time>2026-04-18T10:45:38Z</time></trkpt><trkpt lat="41.7978841342536" lon="13.026866618519342"><ele>250.0</ele><time>2026-04-18T10:45:39Z</time></trkpt><trkpt lat="41.79794223677237" lon="13.026822980564214"><ele>249.99999999999997</ele><time>2026-04-18T10:45:40Z</time></trkpt><trkpt lat="41.798016863942124" lon="13.026796043287836"><ele>250.0</ele><time>2026-04-18T10:45:41Z</time></trkpt><trkpt lat="41.79809801298948" lon="13.02678294339398"><ele>250.0</ele><time>2026-04-18T10:45:42Z</time></trkpt><trkpt lat="41.798183328293405" lon="13.026787947866602"><ele>250.0</ele><time>2026-04-18T10:45:43Z</time></trkpt><trkpt lat="41.79825572101409" lon="13.026806011489944"><ele>249.99999999999997</ele><time>2026-04-18T10:45:44Z</time></trkpt><trkpt lat="41.798326918775636" lon="13.026815795668513"><ele>250.0</ele><time>2026-04-18T10:45:45Z</time></trkpt><trkpt lat="41.79839417800636" lon="13.026811833614392"><ele>249.99999999999997</ele><time>2026-04-18T10:45:46Z</time></trkpt><trkpt lat="41.79844394243613" lon="13.02675681378315"><ele>250.0</ele><time>2026-04-18T10:45:47Z</time></trkpt><trkpt lat="41.79848881648165" lon="13.026606104179033"><ele>250.0</ele><time>2026-04-18T10:45:49Z</time></trkpt><trkpt lat="41.798516451336525" lon="13.026443913510281"><ele>250.0</ele><time>2026-04-18T10:45:51Z</time></trkpt><trkpt lat="41.7985278300541" lon="13.026356646176032"><ele>249.99999999999997</ele><time>2026-04-18T10:45:52Z</time></trkpt><trkpt lat="41.79854621129813" lon="13.026267967790483"><ele>250.0</ele><time>2026-04-18T10:45:53Z</time></trkpt><trkpt lat="41.798565723070055" lon="13.02617112576518"><ele>251.66666666666666</ele><time>2026-04-18T10:45:54Z</time></trkpt><trkpt lat="41.79858338021252" lon="13.026070804697833"><ele>253.33333333333331</ele><time>2026-04-18T10:45:55Z</time></trkpt><trkpt lat="41.79859979965962" lon="13.025986554615445"><ele>255.0</ele><time>2026-04-18T10:45:56Z</time></trkpt><trkpt lat="41.79862233387832" lon="13.025892611520124"><ele>256.6666666666667</ele><time>2026-04-18T10:45:57Z</time></trkpt><trkpt lat="41.7986526028084" lon="13.025742969871883"><ele>258.33333333333337</ele><time>2026-04-18T10:45:59Z</time></trkpt><trkpt lat="41.79869942585924" lon="13.025613067284441"><ele>260.0</ele><time>2026-04-18T10:46:01Z</time></trkpt><trkpt lat="41.79876638474705" lon="13.025524218421472"><ele>260.4</ele><time>2026-04-18T10:46:03Z</time></trkpt><trkpt lat="41.798844001276805" lon="13.025415997082721"><ele>260.8</ele><time>2026-04-18T10:46:05Z</time></trkpt><trkpt lat="41.7989140044487" lon="13.025322293723086"><ele>261.2</ele><time>2026-04-18T10:46:07Z</time></trkpt><trkpt lat="41.7990240472182" lon="13.025248365512015"><ele>261.6</ele><time>2026-04-18T10:46:09Z</time></trkpt><trkpt lat="41.799079717147784" lon="13.02520327705773"><ele>262.0</ele><time>2026-04-18T10:46:10Z</time></trkpt><trkpt lat="41.79913727617563" lon="13.025163168938763"><ele>262.0</ele><time>2026-04-18T10:46:11Z</time></trkpt><trkpt lat="41.79919050687079" lon="13.025117450361375"><ele>262.0</ele><time>2026-04-18T10:46:12Z</time></trkpt><trkpt lat="41.79925583715791" lon="13.025080150114825"><ele>262.0</ele><time>2026-04-18T10:46:13Z</time></trkpt><trkpt lat="41.799375788999846" lon="13.025019846095182"><ele>262.0</ele><time>2026-04-18T10:46:15Z</time></trkpt><trkpt lat="41.799434778450944" lon="13.024983712928082"><ele>262.0</ele><time>2026-04-18T10:46:16Z</time></trkpt><trkpt lat="41.79953968997992" lon="13.024881382601846"><ele>262.0</ele><time>2026-04-18T10:46:18Z</time></trkpt><trkpt lat="41.799592522486364" lon="13.024803576220041"><ele>262.0</ele><time>2026-04-18T10:46:19Z</time></trkpt><trkpt lat="41.799648879540335" lon="13.02472542057078"><ele>262.0</ele><time>2026-04-18T10:46:20Z</time></trkpt><trkpt lat="41.799704587853455" lon="13.024631900497804"><ele>262.0</ele><time>2026-04-18T10:46:21Z</time></trkpt><trkpt lat="41.79976304020173" lon="13.024537260545547"><ele>262.0</ele><time>2026-04-18T10:46:22Z</time></trkpt><trkpt lat="41.79982878149139" lon="13.024443024655445"><ele>262.0</ele><time>2026-04-18T10:46:23Z</time></trkpt><trkpt lat="41.79989101812168" lon="13.0243484563693"><ele>262.0</ele><time>2026-04-18T10:46:24Z</time></trkpt><trkpt lat="41.799955652579634" lon="13.024253806947518"><ele>262.0</ele><time>2026-04-18T10:46:25Z</time></trkpt><trkpt lat="41.800022336022685" lon="13.024155130890062"><ele>262.0</ele><time>2026-04-18T10:46:26Z</time></trkpt><trkpt lat="41.80008684029211" lon="13.02406573885262"><ele>262.0</ele><time>2026-04-18T10:46:27Z</time></trkpt><trkpt lat="41.800146895244275" lon="13.023976824662203"><ele>262.0</ele><time>2026-04-18T10:46:28Z</time></trkpt><trkpt lat="41.80020796141047" lon="13.023892520112367"><ele>262.8333333333333</ele><time>2026-04-18T10:46:29Z</time></trkpt><trkpt lat="41.80027192494544" lon="13.023796801728864"><ele>263.66666666666663</ele><time>2026-04-18T10:46:30Z</time></trkpt><trkpt lat="41.800330531957684" lon="13.023702702272773"><ele>264.5</ele><time>2026-04-18T10:46:31Z</time></trkpt><trkpt lat="41.8003880468267" lon="13.023617938421145"><ele>265.3333333333333</ele><time>2026-04-18T10:46:32Z</time></trkpt><trkpt lat="41.80045414968484" lon="13.023535847412077"><ele>266.1666666666667</ele><time>2026-04-18T10:46:33Z</time></trkpt><trkpt lat="41.80051306377317" lon="13.023452130221587"><ele>267.0</ele><time>2026-04-18T10:46:34Z</time></trkpt><trkpt lat="41.80057087536693" lon="13.023369727558933"><ele>267.0</ele><time>2026-04-18T10:46:35Z</time></trkpt><trkpt lat="41.800627732213464" lon="13.023289789146293"><ele>267.0</ele><time>2026-04-18T10:46:36Z</time></trkpt><trkpt lat="41.80068212441216" lon="13.02321703816706"><ele>267.0</ele><time>2026-04-18T10:46:37Z</time></trkpt><trkpt lat="41.800734444422325" lon="13.023147148697745"><ele>267.0</ele><time>2026-04-18T10:46:38Z</time></trkpt><trkpt lat="41.80080750024036" lon="13.023056783120113"><ele>267.0</ele><time>2026-04-18T10:46:40Z</time></trkpt><trkpt lat="41.80086279332057" lon="13.022998598183683"><ele>267.0</ele><time>2026-04-18T10:46:42Z</time></trkpt><trkpt lat="41.800923197543966" lon="13.022941444078501"><ele>267.0</ele><time>2026-04-18T10:46:58Z</time></trkpt><trkpt lat="41.80099515207988" lon="13.022867793672416"><ele>267.0</ele><time>2026-04-18T10:47:00Z</time></trkpt><trkpt lat="41.80104686048657" lon="13.02281500674934"><ele>267.0</ele><time>2026-04-18T10:47:01Z</time></trkpt><trkpt lat="41.80113464682571" lon="13.022723559616702"><ele>267.0</ele><time>2026-04-18T10:47:03Z</time></trkpt><trkpt lat="41.801209835605086" lon="13.022640570921538"><ele>267.0</ele><time>2026-04-18T10:47:05Z</time></trkpt><trkpt lat="41.801262533059166" lon="13.022585052465203"><ele>267.0</ele><time>2026-04-18T10:47:07Z</time></trkpt><trkpt lat="41.80131864416407" lon="13.022536771106974"><ele>265.42857142857144</ele><time>2026-04-18T10:47:09Z</time></trkpt><trkpt lat="41.80136840663962" lon="13.022474754550306"><ele>263.8571428571429</ele><time>2026-04-18T10:47:12Z</time></trkpt><trkpt lat="41.80141387908204" lon="13.022402425814647"><ele>262.2857142857143</ele><time>2026-04-18T10:47:14Z</time></trkpt><trkpt lat="41.801465020952556" lon="13.022344856149878"><ele>260.7142857142857</ele><time>2026-04-18T10:47:16Z</time></trkpt><trkpt lat="41.80148575418044" lon="13.022244961591273"><ele>259.1428571428571</ele><time>2026-04-18T10:47:19Z</time></trkpt><trkpt lat="41.80144401814736" lon="13.022317532957334"><ele>257.57142857142856</ele><time>2026-04-18T10:47:29Z</time></trkpt><trkpt lat="41.80141221460563" lon="13.02240974706009"><ele>256.0</ele><time>2026-04-18T10:47:34Z</time></trkpt><trkpt lat="41.80134705294097" lon="13.022463997006975"><ele>256.6</ele><time>2026-04-18T10:47:37Z</time></trkpt><trkpt lat="41.80128269160748" lon="13.022539253426206"><ele>257.20000000000005</ele><time>2026-04-18T10:47:39Z</time></trkpt><trkpt lat="41.80121067389781" lon="13.022612057811779"><ele>257.79999999999995</ele><time>2026-04-18T10:47:41Z</time></trkpt><trkpt lat="41.80112638873757" lon="13.02270983666479"><ele>258.4</ele><time>2026-04-18T10:47:43Z</time></trkpt><trkpt lat="41.801041217626775" lon="13.022800062196211"><ele>259.0</ele><time>2026-04-18T10:47:45Z</time></trkpt><trkpt lat="41.80096168479384" lon="13.022879898130778"><ele>260.3333333333333</ele><time>2026-04-18T10:47:47Z</time></trkpt><trkpt lat="41.80091238177128" lon="13.02293301380043"><ele>261.66666666666663</ele><time>2026-04-18T10:47:49Z</time></trkpt><trkpt lat="41.80084526766635" lon="13.02292194945174"><ele>263.0</ele><time>2026-04-18T10:47:52Z</time></trkpt><trkpt lat="41.800771349705975" lon="13.02283826302767"><ele>264.3333333333333</ele><time>2026-04-18T10:47:54Z</time></trkpt><trkpt lat="41.800716732679675" lon="13.022744849045267"><ele>265.6666666666667</ele><time>2026-04-18T10:47:56Z</time></trkpt><trkpt lat="41.800655984707795" lon="13.022701738604212"><ele>267.0</ele><time>2026-04-18T10:47:59Z</time></trkpt><trkpt lat="41.80055715449008" lon="13.022687811902758"><ele>267.0</ele><time>2026-04-18T10:48:07Z</time></trkpt><trkpt lat="41.80040584287204" lon="13.022637468587607"><ele>267.0</ele><time>2026-04-18T10:48:09Z</time></trkpt><trkpt lat="41.80032413601382" lon="13.022602800740321"><ele>267.0</ele><time>2026-04-18T10:48:10Z</time></trkpt><trkpt lat="41.80023716191582" lon="13.02256904383816"><ele>267.0</ele><time>2026-04-18T10:48:10.999Z</time></trkpt><trkpt lat="41.80014447353998" lon="13.02253604530051"><ele>267.0</ele><time>2026-04-18T10:48:11.999Z</time></trkpt><trkpt lat="41.800047979856664" lon="13.022507322743628"><ele>266.4</ele><time>2026-04-18T10:48:12.999Z</time></trkpt><trkpt lat="41.79995007377162" lon="13.022478400650803"><ele>265.79999999999995</ele><time>2026-04-18T10:48:13.999Z</time></trkpt><trkpt lat="41.79985529304545" lon="13.022446949629757"><ele>265.2</ele><time>2026-04-18T10:48:14.999Z</time></trkpt><trkpt lat="41.79975357397817" lon="13.022416538165741"><ele>264.59999999999997</ele><time>2026-04-18T10:48:15.999Z</time></trkpt><trkpt lat="41.799655382283525" lon="13.022382032278646"><ele>264.0</ele><time>2026-04-18T10:48:16.999Z</time></trkpt><trkpt lat="41.799570152760545" lon="13.022356737450954"><ele>264.0</ele><time>2026-04-18T10:48:17.999Z</time></trkpt><trkpt lat="41.79948638176372" lon="13.022334314247562"><ele>264.0</ele><time>2026-04-18T10:48:18.999Z</time></trkpt><trkpt lat="41.79939909436366" lon="13.022306052670752"><ele>264.0</ele><time>2026-04-18T10:48:19.999Z</time></trkpt><trkpt lat="41.7993114025791" lon="13.022272742307205"><ele>264.0</ele><time>2026-04-18T10:48:20.999Z</time></trkpt><trkpt lat="41.79922214622805" lon="13.022233481070709"><ele>264.0</ele><time>2026-04-18T10:48:21.999Z</time></trkpt><trkpt lat="41.79913929014619" lon="13.022190227694399"><ele>264.0</ele><time>2026-04-18T10:48:22.999Z</time></trkpt><trkpt lat="41.79905775219422" lon="13.022159633154525"><ele>263.8</ele><time>2026-04-18T10:48:24Z</time></trkpt><trkpt lat="41.798970958521956" lon="13.02213079151183"><ele>263.59999999999997</ele><time>2026-04-18T10:48:25Z</time></trkpt><trkpt lat="41.79887933513944" lon="13.022096135461156"><ele>263.4</ele><time>2026-04-18T10:48:26Z</time></trkpt><trkpt lat="41.79879181608499" lon="13.022060448202055"><ele>263.2</ele><time>2026-04-18T10:48:27Z</time></trkpt><trkpt lat="41.79869836513624" lon="13.022017612706128"><ele>263.0</ele><time>2026-04-18T10:48:28Z</time></trkpt><trkpt lat="41.79860888302199" lon="13.021978308810633"><ele>263.0</ele><time>2026-04-18T10:48:29Z</time></trkpt><trkpt lat="41.79851592518881" lon="13.021942336717458"><ele>263.0</ele><time>2026-04-18T10:48:30Z</time></trkpt><trkpt lat="41.79841951770629" lon="13.021906403350448"><ele>263.0</ele><time>2026-04-18T10:48:31Z</time></trkpt><trkpt lat="41.7983223656999" lon="13.021870670318823"><ele>263.0</ele><time>2026-04-18T10:48:32Z</time></trkpt><trkpt lat="41.798230232954076" lon="13.021826075959307"><ele>263.0</ele><time>2026-04-18T10:48:33Z</time></trkpt><trkpt lat="41.798134427017075" lon="13.021783524709257"><ele>263.33333333333337</ele><time>2026-04-18T10:48:34Z</time></trkpt><trkpt lat="41.79805478755829" lon="13.021737319538676"><ele>263.6666666666667</ele><time>2026-04-18T10:48:35Z</time></trkpt><trkpt lat="41.79798601969151" lon="13.021681541254054"><ele>264.0</ele><time>2026-04-18T10:48:36Z</time></trkpt><trkpt lat="41.79791933779932" lon="13.02162910338849"><ele>264.3333333333333</ele><time>2026-04-18T10:48:37Z</time></trkpt><trkpt lat="41.79786025245526" lon="13.021577696580277"><ele>264.66666666666663</ele><time>2026-04-18T10:48:38Z</time></trkpt><trkpt lat="41.79779069766513" lon="13.021506079019124"><ele>265.0</ele><time>2026-04-18T10:48:40Z</time></trkpt><trkpt lat="41.797769496177104" lon="13.021585962799945"><ele>265.0</ele><time>2026-04-18T10:48:44Z</time></trkpt><trkpt lat="41.797861014016995" lon="13.02162202715107"><ele>265.0</ele><time>2026-04-18T10:48:46Z</time></trkpt><trkpt lat="41.79794749725036" lon="13.021658421131686"><ele>265.0</ele><time>2026-04-18T10:48:48Z</time></trkpt><trkpt lat="41.79802917776591" lon="13.021712801137463"><ele>265.0</ele><time>2026-04-18T10:48:50Z</time></trkpt><trkpt lat="41.79812768996817" lon="13.021778548594696"><ele>265.0</ele><time>2026-04-18T10:48:52Z</time></trkpt><trkpt lat="41.79822995704974" lon="13.021843435454445"><ele>265.16666666666663</ele><time>2026-04-18T10:48:54Z</time></trkpt><trkpt lat="41.79835192182555" lon="13.021901492033981"><ele>265.3333333333333</ele><time>2026-04-18T10:48:56Z</time></trkpt><trkpt lat="41.79842034608221" lon="13.021928210037428"><ele>265.5</ele><time>2026-04-18T10:48:57Z</time></trkpt><trkpt lat="41.7984807730633" lon="13.021952307817322"><ele>265.6666666666667</ele><time>2026-04-18T10:48:58Z</time></trkpt><trkpt lat="41.798548991064415" lon="13.021979534259447"><ele>265.83333333333337</ele><time>2026-04-18T10:48:59Z</time></trkpt><trkpt lat="41.798621629117505" lon="13.02200511102203"><ele>266.0</ele><time>2026-04-18T10:49:00Z</time></trkpt><trkpt lat="41.798693286488486" lon="13.022022402674601"><ele>265.5</ele><time>2026-04-18T10:49:01Z</time></trkpt><trkpt lat="41.79876363262692" lon="13.022051826717266"><ele>265.0</ele><time>2026-04-18T10:49:02Z</time></trkpt><trkpt lat="41.79883555149218" lon="13.022082160066894"><ele>264.5</ele><time>2026-04-18T10:49:03Z</time></trkpt><trkpt lat="41.798914261682455" lon="13.022111818398418"><ele>264.0</ele><time>2026-04-18T10:49:04Z</time></trkpt><trkpt lat="41.79898669004469" lon="13.0221465905838"><ele>263.5</ele><time>2026-04-18T10:49:05Z</time></trkpt><trkpt lat="41.79906878821445" lon="13.022182574356469"><ele>263.0</ele><time>2026-04-18T10:49:06Z</time></trkpt><trkpt lat="41.79915213313961" lon="13.022216238243034"><ele>263.0</ele><time>2026-04-18T10:49:07Z</time></trkpt><trkpt lat="41.799239545799715" lon="13.022258379543723"><ele>263.0</ele><time>2026-04-18T10:49:08Z</time></trkpt><trkpt lat="41.79932026661937" lon="13.022290059065984"><ele>263.0</ele><time>2026-04-18T10:49:09Z</time></trkpt><trkpt lat="41.79940380416737" lon="13.022322803946526"><ele>263.0</ele><time>2026-04-18T10:49:10Z</time></trkpt><trkpt lat="41.79948651642157" lon="13.022355450887233"><ele>263.0</ele><time>2026-04-18T10:49:11Z</time></trkpt><trkpt lat="41.7995750920154" lon="13.022384550547908"><ele>263.0</ele><time>2026-04-18T10:49:12Z</time></trkpt><trkpt lat="41.799662324165446" lon="13.02240396160669"><ele>263.2</ele><time>2026-04-18T10:49:13Z</time></trkpt><trkpt lat="41.79975166113663" lon="13.022432436822955"><ele>263.4</ele><time>2026-04-18T10:49:14Z</time></trkpt><trkpt lat="41.799835713701924" lon="13.022462990974535"><ele>263.59999999999997</ele><time>2026-04-18T10:49:15Z</time></trkpt><trkpt lat="41.79992217100371" lon="13.022489932939395"><ele>263.8</ele><time>2026-04-18T10:49:16Z</time></trkpt><trkpt lat="41.80001021424046" lon="13.022523545583544"><ele>264.0</ele><time>2026-04-18T10:49:17Z</time></trkpt><trkpt lat="41.800101801825484" lon="13.022554870682317"><ele>264.5</ele><time>2026-04-18T10:49:18Z</time></trkpt><trkpt lat="41.8001942563031" lon="13.022581222565336"><ele>265.0</ele><time>2026-04-18T10:49:19Z</time></trkpt><trkpt lat="41.80027521921222" lon="13.022602044223659"><ele>265.5</ele><time>2026-04-18T10:49:20Z</time></trkpt><trkpt lat="41.80034962545654" lon="13.022628967330876"><ele>266.0</ele><time>2026-04-18T10:49:21Z</time></trkpt><trkpt lat="41.80041997203538" lon="13.022650951113194"><ele>266.5</ele><time>2026-04-18T10:49:22Z</time></trkpt><trkpt lat="41.800484026342545" lon="13.022671283490109"><ele>267.0</ele><time>2026-04-18T10:49:23Z</time></trkpt><trkpt lat="41.800583978374846" lon="13.022726774413224"><ele>267.0</ele><time>2026-04-18T10:49:25Z</time></trkpt><trkpt lat="41.80066220206561" lon="13.022771642233458"><ele>267.0</ele><time>2026-04-18T10:49:27Z</time></trkpt><trkpt lat="41.80071106027073" lon="13.022701962981666"><ele>267.0</ele><time>2026-04-18T10:49:31Z</time></trkpt><trkpt lat="41.80066792043597" lon="13.02260833740649"><ele>267.0</ele><time>2026-04-18T10:49:33Z</time></trkpt><trkpt lat="41.800636958765" lon="13.022476042861687"><ele>267.0</ele><time>2026-04-18T10:49:35Z</time></trkpt><trkpt lat="41.800621559514035" lon="13.022321558223723"><ele>266.5</ele><time>2026-04-18T10:49:37Z</time></trkpt><trkpt lat="41.80059966636724" lon="13.02214889393941"><ele>266.0</ele><time>2026-04-18T10:49:39Z</time></trkpt><trkpt lat="41.80058801522221" lon="13.022048093284956"><ele>265.5</ele><time>2026-04-18T10:49:40Z</time></trkpt><trkpt lat="41.80057364492077" lon="13.021945049859765"><ele>265.0</ele><time>2026-04-18T10:49:41Z</time></trkpt><trkpt lat="41.800560584421916" lon="13.021847903358665"><ele>264.5</ele><time>2026-04-18T10:49:42Z</time></trkpt><trkpt lat="41.800546807706674" lon="13.021746582755517"><ele>264.0</ele><time>2026-04-18T10:49:43Z</time></trkpt><trkpt lat="41.80052915728651" lon="13.02165866768751"><ele>263.0</ele><time>2026-04-18T10:49:44Z</time></trkpt><trkpt lat="41.80048642450194" lon="13.021497975579772"><ele>262.0</ele><time>2026-04-18T10:49:46Z</time></trkpt><trkpt lat="41.800469185976304" lon="13.02140826727159"><ele>261.0</ele><time>2026-04-18T10:49:47Z</time></trkpt><trkpt lat="41.80045201085901" lon="13.021315547168667"><ele>260.0</ele><time>2026-04-18T10:49:48Z</time></trkpt><trkpt lat="41.80042882646247" lon="13.021220352282047"><ele>259.0</ele><time>2026-04-18T10:49:49Z</time></trkpt><trkpt lat="41.800402097882305" lon="13.021124780200976"><ele>258.0</ele><time>2026-04-18T10:49:50Z</time></trkpt><trkpt lat="41.8003677401757" lon="13.021034263401024"><ele>258.0</ele><time>2026-04-18T10:49:51Z</time></trkpt><trkpt lat="41.800325817790615" lon="13.020948964617654"><ele>258.0</ele><time>2026-04-18T10:49:52Z</time></trkpt><trkpt lat="41.80027973223194" lon="13.020866678607538"><ele>258.0</ele><time>2026-04-18T10:49:53Z</time></trkpt><trkpt lat="41.80022835889297" lon="13.020779537152356"><ele>258.0</ele><time>2026-04-18T10:49:54Z</time></trkpt><trkpt lat="41.80018173534454" lon="13.020683285508632"><ele>258.0</ele><time>2026-04-18T10:49:55Z</time></trkpt><trkpt lat="41.80014201110268" lon="13.020594754750707"><ele>258.0</ele><time>2026-04-18T10:49:56Z</time></trkpt><trkpt lat="41.80009779333538" lon="13.020504282699424"><ele>256.5</ele><time>2026-04-18T10:49:57Z</time></trkpt><trkpt lat="41.80004644018545" lon="13.020413289323361"><ele>255.0</ele><time>2026-04-18T10:49:58Z</time></trkpt><trkpt lat="41.799996018117135" lon="13.020320348403093"><ele>253.5</ele><time>2026-04-18T10:49:59Z</time></trkpt><trkpt lat="41.79994355769575" lon="13.020229189586331"><ele>252.0</ele><time>2026-04-18T10:50:00Z</time></trkpt><trkpt lat="41.79988810005532" lon="13.020135151232596"><ele>250.5</ele><time>2026-04-18T10:50:01Z</time></trkpt><trkpt lat="41.799830505480536" lon="13.020041120778282"><ele>249.0</ele><time>2026-04-18T10:50:02Z</time></trkpt><trkpt lat="41.79976699677012" lon="13.019957245869083"><ele>247.0</ele><time>2026-04-18T10:50:03Z</time></trkpt><trkpt lat="41.799706723280806" lon="13.019886149688588"><ele>244.99999999999997</ele><time>2026-04-18T10:50:04Z</time></trkpt><trkpt lat="41.799652930070636" lon="13.01982117084214"><ele>242.99999999999997</ele><time>2026-04-18T10:50:05Z</time></trkpt><trkpt lat="41.79958504241768" lon="13.019686422754779"><ele>241.0</ele><time>2026-04-18T10:50:07Z</time></trkpt><trkpt lat="41.79956557110364" lon="13.019531475586303"><ele>239.0</ele><time>2026-04-18T10:50:09Z</time></trkpt><trkpt lat="41.799581762222715" lon="13.01943936904307"><ele>239.00000000000003</ele><time>2026-04-18T10:50:10Z</time></trkpt><trkpt lat="41.799603077196366" lon="13.01935175830848"><ele>239.0</ele><time>2026-04-18T10:50:11Z</time></trkpt><trkpt lat="41.799617330360725" lon="13.019266287776174"><ele>239.0</ele><time>2026-04-18T10:50:12Z</time></trkpt><trkpt lat="41.79962235528045" lon="13.019177059271714"><ele>239.0</ele><time>2026-04-18T10:50:13Z</time></trkpt><trkpt lat="41.79962603385352" lon="13.01908988207588"><ele>239.00000000000003</ele><time>2026-04-18T10:50:14Z</time></trkpt><trkpt lat="41.799637462009684" lon="13.018939378136558"><ele>239.0</ele><time>2026-04-18T10:50:16Z</time></trkpt><trkpt lat="41.799636694155346" lon="13.018820813368652"><ele>238.50000000000003</ele><time>2026-04-18T10:50:17.999Z</time></trkpt><trkpt lat="41.79967168515596" lon="13.01872086197412"><ele>238.0</ele><time>2026-04-18T10:50:21.999Z</time></trkpt><trkpt lat="41.79974951653704" lon="13.01870184362031"><ele>237.5</ele><time>2026-04-18T10:50:23.999Z</time></trkpt><trkpt lat="41.79986205424441" lon="13.018680611788382"><ele>237.0</ele><time>2026-04-18T10:50:25.999Z</time></trkpt><trkpt lat="41.799924983045464" lon="13.018665058974209"><ele>236.50000000000003</ele><time>2026-04-18T10:50:26.999Z</time></trkpt><trkpt lat="41.79999012488262" lon="13.018667208041158"><ele>236.0</ele><time>2026-04-18T10:50:27.999Z</time></trkpt><trkpt lat="41.80005929472781" lon="13.018676618071808"><ele>236.00000000000003</ele><time>2026-04-18T10:50:28.999Z</time></trkpt><trkpt lat="41.80012418092807" lon="13.018678952994527"><ele>236.0</ele><time>2026-04-18T10:50:29.999Z</time></trkpt><trkpt lat="41.80020615702584" lon="13.018678718251449"><ele>236.0</ele><time>2026-04-18T10:50:30.999Z</time></trkpt><trkpt lat="41.80029372727793" lon="13.018680941871379"><ele>236.0</ele><time>2026-04-18T10:50:31.999Z</time></trkpt><trkpt lat="41.800377704122816" lon="13.01867644075328"><ele>236.00000000000003</ele><time>2026-04-18T10:50:32.999Z</time></trkpt><trkpt lat="41.80046313744148" lon="13.018666063796074"><ele>236.0</ele><time>2026-04-18T10:50:33.999Z</time></trkpt><trkpt lat="41.800542699290816" lon="13.018658970186033"><ele>236.33333333333334</ele><time>2026-04-18T10:50:34.999Z</time></trkpt><trkpt lat="41.800620346176544" lon="13.018658627618311"><ele>236.66666666666669</ele><time>2026-04-18T10:50:35.999Z</time></trkpt><trkpt lat="41.80070147617249" lon="13.018658285050732"><ele>237.0</ele><time>2026-04-18T10:50:36.999Z</time></trkpt><trkpt lat="41.80078437290431" lon="13.018654423726822"><ele>237.33333333333331</ele><time>2026-04-18T10:50:37.999Z</time></trkpt><trkpt lat="41.80086571116299" lon="13.018648402079881"><ele>237.66666666666666</ele><time>2026-04-18T10:50:39Z</time></trkpt><trkpt lat="41.80095462408387" lon="13.018647552759488"><ele>238.0</ele><time>2026-04-18T10:50:40Z</time></trkpt><trkpt lat="41.80103898559785" lon="13.018639000294588"><ele>238.16666666666666</ele><time>2026-04-18T10:50:41Z</time></trkpt><trkpt lat="41.80112463761424" lon="13.018630800088777"><ele>238.33333333333331</ele><time>2026-04-18T10:50:42Z</time></trkpt><trkpt lat="41.80120520436666" lon="13.018627801552427"><ele>238.5</ele><time>2026-04-18T10:50:43Z</time></trkpt><trkpt lat="41.80129154984503" lon="13.018629577805905"><ele>238.66666666666669</ele><time>2026-04-18T10:50:44Z</time></trkpt><trkpt lat="41.80137491598672" lon="13.018638027678437"><ele>238.83333333333334</ele><time>2026-04-18T10:50:45Z</time></trkpt><trkpt lat="41.801458812076206" lon="13.018646909541074"><ele>239.0</ele><time>2026-04-18T10:50:46Z</time></trkpt><trkpt lat="41.8015386035304" lon="13.018650254789334"><ele>239.00000000000003</ele><time>2026-04-18T10:50:47Z</time></trkpt><trkpt lat="41.80162303394921" lon="13.018638400966093"><ele>239.0</ele><time>2026-04-18T10:50:48Z</time></trkpt><trkpt lat="41.80170359057759" lon="13.018628333229826"><ele>239.0</ele><time>2026-04-18T10:50:49Z</time></trkpt><trkpt lat="41.80177462837282" lon="13.018625856100531"><ele>239.0</ele><time>2026-04-18T10:50:50Z</time></trkpt><trkpt lat="41.80184509202274" lon="13.018628652723109"><ele>239.00000000000003</ele><time>2026-04-18T10:50:51Z</time></trkpt><trkpt lat="41.801927142641084" lon="13.018639108263345"><ele>239.0</ele><time>2026-04-18T10:50:52Z</time></trkpt><trkpt lat="41.80201208730318" lon="13.018646821776032"><ele>238.66666666666669</ele><time>2026-04-18T10:50:53Z</time></trkpt><trkpt lat="41.80209469090655" lon="13.01865349902784"><ele>238.33333333333334</ele><time>2026-04-18T10:50:54Z</time></trkpt><trkpt lat="41.8021736571349" lon="13.01865382767711"><ele>238.0</ele><time>2026-04-18T10:50:55Z</time></trkpt><trkpt lat="41.802247771636736" lon="13.018654304356083"><ele>237.66666666666669</ele><time>2026-04-18T10:50:56Z</time></trkpt><trkpt lat="41.802330055868794" lon="13.018658176476352"><ele>237.33333333333334</ele><time>2026-04-18T10:50:57Z</time></trkpt><trkpt lat="41.802414580648744" lon="13.018664981560013"><ele>237.0</ele><time>2026-04-18T10:50:58Z</time></trkpt><trkpt lat="41.80248576082199" lon="13.018669671280387"><ele>237.0</ele><time>2026-04-18T10:50:59Z</time></trkpt><trkpt lat="41.802556357731135" lon="13.018674916047075"><ele>237.0</ele><time>2026-04-18T10:51:00Z</time></trkpt><trkpt lat="41.802676168190224" lon="13.01869586452639"><ele>237.0</ele><time>2026-04-18T10:51:02Z</time></trkpt><trkpt lat="41.80274934540452" lon="13.018706080287966"><ele>237.0</ele><time>2026-04-18T10:51:03Z</time></trkpt><trkpt lat="41.80282437176529" lon="13.018716929319929"><ele>237.0</ele><time>2026-04-18T10:51:04Z</time></trkpt><trkpt lat="41.80295716714549" lon="13.018738795161843"><ele>237.0</ele><time>2026-04-18T10:51:06Z</time></trkpt><trkpt lat="41.80302901184068" lon="13.018756634885033"><ele>237.0</ele><time>2026-04-18T10:51:07Z</time></trkpt><trkpt lat="41.80309931567112" lon="13.018759963695327"><ele>237.0</ele><time>2026-04-18T10:51:08Z</time></trkpt><trkpt lat="41.803222422172354" lon="13.01876911428949"><ele>237.0</ele><time>2026-04-18T10:51:10Z</time></trkpt><trkpt lat="41.803291727840154" lon="13.018788274042182"><ele>237.0</ele><time>2026-04-18T10:51:11Z</time></trkpt><trkpt lat="41.80336447741975" lon="13.018805064372842"><ele>237.0</ele><time>2026-04-18T10:51:12Z</time></trkpt><trkpt lat="41.80343903457539" lon="13.018812408362693"><ele>237.16666666666666</ele><time>2026-04-18T10:51:13Z</time></trkpt><trkpt lat="41.803506229361076" lon="13.01882318860019"><ele>237.33333333333331</ele><time>2026-04-18T10:51:14Z</time></trkpt><trkpt lat="41.80358550816768" lon="13.018832767970133"><ele>237.5</ele><time>2026-04-18T10:51:15Z</time></trkpt><trkpt lat="41.803660173994174" lon="13.018851380186423"><ele>237.66666666666666</ele><time>2026-04-18T10:51:16Z</time></trkpt><trkpt lat="41.803722465558195" lon="13.018868358494554"><ele>237.83333333333331</ele><time>2026-04-18T10:51:17Z</time></trkpt><trkpt lat="41.80384060330179" lon="13.018927283605148"><ele>238.0</ele><time>2026-04-18T10:51:19Z</time></trkpt><trkpt lat="41.80391217616958" lon="13.018972719710058"><ele>237.99999999999997</ele><time>2026-04-18T10:51:20Z</time></trkpt><trkpt lat="41.803990227527436" lon="13.019001881670961"><ele>238.0</ele><time>2026-04-18T10:51:21Z</time></trkpt><trkpt lat="41.80405504466564" lon="13.019024520818009"><ele>238.0</ele><time>2026-04-18T10:51:22Z</time></trkpt><trkpt lat="41.80415891099916" lon="13.019083406593918"><ele>238.0</ele><time>2026-04-18T10:51:24Z</time></trkpt><trkpt lat="41.804240743167384" lon="13.019103851108834"><ele>237.99999999999997</ele><time>2026-04-18T10:51:26Z</time></trkpt><trkpt lat="41.80430243158079" lon="13.019137527002572"><ele>238.0</ele><time>2026-04-18T10:51:27Z</time></trkpt><trkpt lat="41.80436578979018" lon="13.019166398446323"><ele>238.14285714285714</ele><time>2026-04-18T10:51:28Z</time></trkpt><trkpt lat="41.80443594539243" lon="13.019188436618494"><ele>238.28571428571428</ele><time>2026-04-18T10:51:29Z</time></trkpt><trkpt lat="41.80450417681542" lon="13.019210498433598"><ele>238.42857142857144</ele><time>2026-04-18T10:51:30Z</time></trkpt><trkpt lat="41.80456996335398" lon="13.01924301416207"><ele>238.57142857142858</ele><time>2026-04-18T10:51:31Z</time></trkpt><trkpt lat="41.804656947687185" lon="13.01925389818771"><ele>238.71428571428572</ele><time>2026-04-18T10:51:32Z</time></trkpt><trkpt lat="41.80472454840275" lon="13.019274302901414"><ele>238.8571428571429</ele><time>2026-04-18T10:51:33Z</time></trkpt><trkpt lat="41.804789466945124" lon="13.019290628226102"><ele>239.00000000000003</ele><time>2026-04-18T10:51:34Z</time></trkpt><trkpt lat="41.804857648164" lon="13.0192988004246"><ele>239.00000000000003</ele><time>2026-04-18T10:51:35Z</time></trkpt><trkpt lat="41.80492550823571" lon="13.019302643844142"><ele>239.0</ele><time>2026-04-18T10:51:36Z</time></trkpt><trkpt lat="41.80499775410918" lon="13.019317647497573"><ele>239.00000000000003</ele><time>2026-04-18T10:51:37Z</time></trkpt><trkpt lat="41.80507840328154" lon="13.019334136193075"><ele>239.00000000000003</ele><time>2026-04-18T10:51:38Z</time></trkpt><trkpt lat="41.80515624017084" lon="13.019339155106444"><ele>239.0</ele><time>2026-04-18T10:51:39Z</time></trkpt><trkpt lat="41.8052257645242" lon="13.019343028105531"><ele>239.00000000000003</ele><time>2026-04-18T10:51:40Z</time></trkpt><trkpt lat="41.805290758554314" lon="13.019369489372673"><ele>239.00000000000003</ele><time>2026-04-18T10:51:41Z</time></trkpt><trkpt lat="41.805361833583426" lon="13.01939021730069"><ele>239.2</ele><time>2026-04-18T10:51:42Z</time></trkpt><trkpt lat="41.805432063124606" lon="13.0194031579847"><ele>239.39999999999998</ele><time>2026-04-18T10:51:43Z</time></trkpt><trkpt lat="41.805498137100756" lon="13.019416625596063"><ele>239.6</ele><time>2026-04-18T10:51:44Z</time></trkpt><trkpt lat="41.80556639941176" lon="13.01942459125896"><ele>239.8</ele><time>2026-04-18T10:51:45Z</time></trkpt><trkpt lat="41.80568601328772" lon="13.019458496406328"><ele>240.0</ele><time>2026-04-18T10:51:47Z</time></trkpt><trkpt lat="41.805828386125185" lon="13.019499778144022"><ele>240.0</ele><time>2026-04-18T10:51:49Z</time></trkpt><trkpt lat="41.80590064614062" lon="13.019560530794317"><ele>240.0</ele><time>2026-04-18T10:51:51Z</time></trkpt><trkpt lat="41.80600293471832" lon="13.019630234982598"><ele>240.0</ele><time>2026-04-18T10:51:53Z</time></trkpt><trkpt lat="41.80608622239593" lon="13.019719217732513"><ele>240.0</ele><time>2026-04-18T10:51:55Z</time></trkpt><trkpt lat="41.80616565100212" lon="13.019834964746627"><ele>240.0</ele><time>2026-04-18T10:51:57Z</time></trkpt><trkpt lat="41.80626703953528" lon="13.019946192027858"><ele>240.0</ele><time>2026-04-18T10:51:59Z</time></trkpt><trkpt lat="41.80632131232173" lon="13.020002622267393"><ele>240.0</ele><time>2026-04-18T10:52:00Z</time></trkpt><trkpt lat="41.80637643826026" lon="13.02007665351523"><ele>240.0</ele><time>2026-04-18T10:52:01Z</time></trkpt><trkpt lat="41.806429708546204" lon="13.020140929048518"><ele>240.0</ele><time>2026-04-18T10:52:02Z</time></trkpt><trkpt lat="41.80646813265576" lon="13.020213425646114"><ele>240.0</ele><time>2026-04-18T10:52:03Z</time></trkpt><trkpt lat="41.80651485069506" lon="13.020296519382796"><ele>240.0</ele><time>2026-04-18T10:52:04Z</time></trkpt><trkpt lat="41.806555267337245" lon="13.02038096299407"><ele>240.0</ele><time>2026-04-18T10:52:05Z</time></trkpt><trkpt lat="41.80657595628063" lon="13.020490295834858"><ele>240.0</ele><time>2026-04-18T10:52:06Z</time></trkpt><trkpt lat="41.80661684334305" lon="13.020578602440633"><ele>240.0</ele><time>2026-04-18T10:52:07Z</time></trkpt><trkpt lat="41.80664636265326" lon="13.020671517876167"><ele>240.0</ele><time>2026-04-18T10:52:08Z</time></trkpt><trkpt lat="41.80669658795605" lon="13.020752946181815"><ele>240.0</ele><time>2026-04-18T10:52:09Z</time></trkpt><trkpt lat="41.80674373983102" lon="13.020831257666545"><ele>240.0</ele><time>2026-04-18T10:52:10Z</time></trkpt><trkpt lat="41.806786067459996" lon="13.020913322755671"><ele>240.0</ele><time>2026-04-18T10:52:11Z</time></trkpt><trkpt lat="41.806834823745724" lon="13.020988625694564"><ele>241.0</ele><time>2026-04-18T10:52:12Z</time></trkpt><trkpt lat="41.80689075381634" lon="13.021056236024977"><ele>242.0</ele><time>2026-04-18T10:52:13Z</time></trkpt><trkpt lat="41.80695307272806" lon="13.021118383048055"><ele>243.0</ele><time>2026-04-18T10:52:14Z</time></trkpt><trkpt lat="41.807019221556715" lon="13.021188195276922"><ele>244.0</ele><time>2026-04-18T10:52:15Z</time></trkpt><trkpt lat="41.80707919198486" lon="13.021235303726082"><ele>245.0</ele><time>2026-04-18T10:52:16Z</time></trkpt><trkpt lat="41.807134595920594" lon="13.021279515614172"><ele>246.0</ele><time>2026-04-18T10:52:17Z</time></trkpt><trkpt lat="41.807231368563286" lon="13.02135209263748"><ele>246.0</ele><time>2026-04-18T10:52:19Z</time></trkpt><trkpt lat="41.807337454082976" lon="13.021418381304517"><ele>246.00000000000003</ele><time>2026-04-18T10:52:21Z</time></trkpt><trkpt lat="41.80746859237835" lon="13.021483831140134"><ele>246.00000000000003</ele><time>2026-04-18T10:52:22.999Z</time></trkpt><trkpt lat="41.807530652002605" lon="13.021509409674485"><ele>246.0</ele><time>2026-04-18T10:52:23.999Z</time></trkpt><trkpt lat="41.807599492787496" lon="13.021535900487471"><ele>246.0</ele><time>2026-04-18T10:52:24.999Z</time></trkpt><trkpt lat="41.80771533471495" lon="13.021605999968141"><ele>245.5</ele><time>2026-04-18T10:52:26.999Z</time></trkpt><trkpt lat="41.80779194847604" lon="13.021616671753327"><ele>245.0</ele><time>2026-04-18T10:52:27.999Z</time></trkpt><trkpt lat="41.807863531518805" lon="13.021612109918468"><ele>244.5</ele><time>2026-04-18T10:52:28.999Z</time></trkpt><trkpt lat="41.80794823023434" lon="13.02159502417726"><ele>244.0</ele><time>2026-04-18T10:52:29.999Z</time></trkpt><trkpt lat="41.808044229977035" lon="13.021596415841126"><ele>243.5</ele><time>2026-04-18T10:52:30.999Z</time></trkpt><trkpt lat="41.80811936371163" lon="13.021634495934558"><ele>243.0</ele><time>2026-04-18T10:52:31.999Z</time></trkpt><trkpt lat="41.80818381768462" lon="13.021674830775272"><ele>243.0</ele><time>2026-04-18T10:52:32.999Z</time></trkpt><trkpt lat="41.8082427726157" lon="13.021734432118064"><ele>243.0</ele><time>2026-04-18T10:52:34.999Z</time></trkpt><trkpt lat="41.80830585898627" lon="13.021800559305309"><ele>243.0</ele><time>2026-04-18T10:52:36.999Z</time></trkpt><trkpt lat="41.808364606731764" lon="13.021881861914995"><ele>243.0</ele><time>2026-04-18T10:52:38.999Z</time></trkpt><trkpt lat="41.80844712994554" lon="13.021989690449562"><ele>243.0</ele><time>2026-04-18T10:52:41.999Z</time></trkpt><trkpt lat="41.808516882488505" lon="13.022110846053273"><ele>242.60000000000002</ele><time>2026-04-18T10:52:44Z</time></trkpt><trkpt lat="41.80857403773797" lon="13.0222561875941"><ele>242.20000000000002</ele><time>2026-04-18T10:52:46Z</time></trkpt><trkpt lat="41.808607334599444" lon="13.022376494119321"><ele>241.8</ele><time>2026-04-18T10:52:48Z</time></trkpt><trkpt lat="41.80866403469309" lon="13.022481698905027"><ele>241.4</ele><time>2026-04-18T10:52:50Z</time></trkpt><trkpt lat="41.80871505852909" lon="13.022622497093552"><ele>241.0</ele><time>2026-04-18T10:52:52Z</time></trkpt><trkpt lat="41.808822130421575" lon="13.022704928706615"><ele>241.0</ele><time>2026-04-18T10:52:54Z</time></trkpt><trkpt lat="41.80889405787448" lon="13.022720151944812"><ele>241.00000000000003</ele><time>2026-04-18T10:52:55Z</time></trkpt><trkpt lat="41.808990461223" lon="13.022734269062688"><ele>241.00000000000003</ele><time>2026-04-18T10:52:56Z</time></trkpt><trkpt lat="41.809090716495255" lon="13.02276289787285"><ele>241.0</ele><time>2026-04-18T10:52:57Z</time></trkpt><trkpt lat="41.809198855504874" lon="13.022794279209334"><ele>241.0</ele><time>2026-04-18T10:52:58Z</time></trkpt><trkpt lat="41.80930460823424" lon="13.022824723822081"><ele>240.8</ele><time>2026-04-18T10:52:59Z</time></trkpt><trkpt lat="41.809405555243224" lon="13.022851421740802"><ele>240.60000000000002</ele><time>2026-04-18T10:53:00Z</time></trkpt><trkpt lat="41.80949829337429" lon="13.022867654560256"><ele>240.4</ele><time>2026-04-18T10:53:01Z</time></trkpt><trkpt lat="41.80959023998102" lon="13.022893959806227"><ele>240.2</ele><time>2026-04-18T10:53:02Z</time></trkpt><trkpt lat="41.80968329877793" lon="13.022923391650117"><ele>240.0</ele><time>2026-04-18T10:53:03Z</time></trkpt><trkpt lat="41.809775328600736" lon="13.022932643869158"><ele>240.0</ele><time>2026-04-18T10:53:04Z</time></trkpt><trkpt lat="41.80985879249039" lon="13.0229389356829"><ele>240.0</ele><time>2026-04-18T10:53:05Z</time></trkpt><trkpt lat="41.80994572881592" lon="13.022951165938641"><ele>240.0</ele><time>2026-04-18T10:53:06Z</time></trkpt><trkpt lat="41.81002478542812" lon="13.022950386088002"><ele>240.0</ele><time>2026-04-18T10:53:07Z</time></trkpt><trkpt lat="41.81009848228209" lon="13.02294495646319"><ele>240.0</ele><time>2026-04-18T10:53:08Z</time></trkpt><trkpt lat="41.81016255363732" lon="13.022959443785576"><ele>240.0</ele><time>2026-04-18T10:53:09Z</time></trkpt><trkpt lat="41.810266862927186" lon="13.02299217562636"><ele>240.0</ele><time>2026-04-18T10:53:11Z</time></trkpt><trkpt lat="41.810326550784225" lon="13.023065012619337"><ele>240.0</ele><time>2026-04-18T10:53:13Z</time></trkpt><trkpt lat="41.81034491205265" lon="13.023195621558722"><ele>240.0</ele><time>2026-04-18T10:53:15Z</time></trkpt><trkpt lat="41.81036844026646" lon="13.023352612804805"><ele>240.0</ele><time>2026-04-18T10:53:17Z</time></trkpt><trkpt lat="41.81037755842706" lon="13.023442491745683"><ele>240.0</ele><time>2026-04-18T10:53:18Z</time></trkpt><trkpt lat="41.81038433346096" lon="13.023535663374766"><ele>240.0</ele><time>2026-04-18T10:53:19Z</time></trkpt><trkpt lat="41.810407417479446" lon="13.023683460729954"><ele>240.16666666666666</ele><time>2026-04-18T10:53:21Z</time></trkpt><trkpt lat="41.8104248833366" lon="13.023817253469737"><ele>240.33333333333331</ele><time>2026-04-18T10:53:23Z</time></trkpt><trkpt lat="41.810461722949775" lon="13.023961037772107"><ele>240.5</ele><time>2026-04-18T10:53:25Z</time></trkpt><trkpt lat="41.81048945513684" lon="13.024037193832262"><ele>240.66666666666666</ele><time>2026-04-18T10:53:26Z</time></trkpt><trkpt lat="41.810522954485606" lon="13.024117311304861"><ele>240.83333333333331</ele><time>2026-04-18T10:53:27Z</time></trkpt><trkpt lat="41.81057253035054" lon="13.024227829124696"><ele>241.0</ele><time>2026-04-18T10:53:29Z</time></trkpt><trkpt lat="41.810634673453556" lon="13.024343802189323"><ele>241.14285714285717</ele><time>2026-04-18T10:53:31Z</time></trkpt><trkpt lat="41.81070147310003" lon="13.024484087838838"><ele>241.2857142857143</ele><time>2026-04-18T10:53:33Z</time></trkpt><trkpt lat="41.81072889236601" lon="13.024562337485403"><ele>241.42857142857144</ele><time>2026-04-18T10:53:34Z</time></trkpt><trkpt lat="41.810759262207064" lon="13.024641048870796"><ele>241.57142857142856</ele><time>2026-04-18T10:53:35Z</time></trkpt><trkpt lat="41.81079159246311" lon="13.024717867947722"><ele>241.7142857142857</ele><time>2026-04-18T10:53:36Z</time></trkpt><trkpt lat="41.81082491725376" lon="13.024792883331981"><ele>241.85714285714283</ele><time>2026-04-18T10:53:37Z</time></trkpt><trkpt lat="41.8108574771778" lon="13.024866480386473"><ele>242.0</ele><time>2026-04-18T10:53:38Z</time></trkpt><trkpt lat="41.81089580578657" lon="13.024955739214754"><ele>242.0</ele><time>2026-04-18T10:53:39Z</time></trkpt><trkpt lat="41.81092739313301" lon="13.025041751270727"><ele>242.0</ele><time>2026-04-18T10:53:40Z</time></trkpt><trkpt lat="41.81095510987856" lon="13.025122588989303"><ele>242.0</ele><time>2026-04-18T10:53:41Z</time></trkpt><trkpt lat="41.81099603632785" lon="13.025252664524068"><ele>242.0</ele><time>2026-04-18T10:53:43Z</time></trkpt><trkpt lat="41.811045219948575" lon="13.025380199100757"><ele>242.0</ele><time>2026-04-18T10:53:45Z</time></trkpt><trkpt lat="41.81109714816256" lon="13.0255206546181"><ele>242.8</ele><time>2026-04-18T10:53:47Z</time></trkpt><trkpt lat="41.81115835304189" lon="13.025663744133801"><ele>243.6</ele><time>2026-04-18T10:53:49Z</time></trkpt><trkpt lat="41.81119340752016" lon="13.0257499821406"><ele>244.40000000000003</ele><time>2026-04-18T10:53:50Z</time></trkpt><trkpt lat="41.81124880589111" lon="13.025872927396126"><ele>245.20000000000002</ele><time>2026-04-18T10:53:51Z</time></trkpt><trkpt lat="41.81129372537955" lon="13.025973962505816"><ele>246.0</ele><time>2026-04-18T10:53:52Z</time></trkpt><trkpt lat="41.81133194220967" lon="13.026052019896813"><ele>246.0</ele><time>2026-04-18T10:53:53Z</time></trkpt><trkpt lat="41.8114116769348" lon="13.02621047363413"><ele>246.0</ele><time>2026-04-18T10:53:55Z</time></trkpt><trkpt lat="41.811457043644296" lon="13.026282955869144"><ele>246.0</ele><time>2026-04-18T10:53:56Z</time></trkpt><trkpt lat="41.811512018552406" lon="13.026351791411045"><ele>246.0</ele><time>2026-04-18T10:53:57Z</time></trkpt><trkpt lat="41.81157255331041" lon="13.02642523862941"><ele>246.0</ele><time>2026-04-18T10:53:58Z</time></trkpt><trkpt lat="41.81162527513402" lon="13.026484161774539"><ele>246.0</ele><time>2026-04-18T10:53:59Z</time></trkpt><trkpt lat="41.81167966412809" lon="13.026533789911388"><ele>246.0</ele><time>2026-04-18T10:54:00Z</time></trkpt><trkpt lat="41.811770335159494" lon="13.026602735223232"><ele>246.0</ele><time>2026-04-18T10:54:02Z</time></trkpt><trkpt lat="41.811823763901714" lon="13.026650913906137"><ele>246.0</ele><time>2026-04-18T10:54:03Z</time></trkpt><trkpt lat="41.81188339240657" lon="13.026707004121956"><ele>246.0</ele><time>2026-04-18T10:54:04Z</time></trkpt><trkpt lat="41.81195247542875" lon="13.026741136936971"><ele>246.0</ele><time>2026-04-18T10:54:05Z</time></trkpt><trkpt lat="41.812014637119255" lon="13.026789820134624"><ele>246.0</ele><time>2026-04-18T10:54:06Z</time></trkpt><trkpt lat="41.81206246702618" lon="13.026856209529777"><ele>246.66666666666666</ele><time>2026-04-18T10:54:07Z</time></trkpt><trkpt lat="41.81212755295642" lon="13.026939018260329"><ele>247.33333333333331</ele><time>2026-04-18T10:54:08Z</time></trkpt><trkpt lat="41.81218579111178" lon="13.027020874572758"><ele>248.0</ele><time>2026-04-18T10:54:09Z</time></trkpt><trkpt lat="41.81223014451483" lon="13.027089517866251"><ele>248.66666666666666</ele><time>2026-04-18T10:54:10Z</time></trkpt><trkpt lat="41.81233021449162" lon="13.027205251715316"><ele>249.33333333333331</ele><time>2026-04-18T10:54:12Z</time></trkpt><trkpt lat="41.812377646843515" lon="13.027271280379304"><ele>250.0</ele><time>2026-04-18T10:54:13Z</time></trkpt><trkpt lat="41.81243506940171" lon="13.027330884132239"><ele>250.0</ele><time>2026-04-18T10:54:14Z</time></trkpt><trkpt lat="41.8124977419899" lon="13.027436083100444"><ele>250.0</ele><time>2026-04-18T10:54:16Z</time></trkpt><trkpt lat="41.81252658853901" lon="13.02753566417892"><ele>250.0</ele><time>2026-04-18T10:54:19Z</time></trkpt><trkpt lat="41.81255448384745" lon="13.027665761710518"><ele>250.0</ele><time>2026-04-18T10:54:42Z</time></trkpt><trkpt lat="41.81255423488573" lon="13.027751906923765"><ele>250.0</ele><time>2026-04-18T10:54:43Z</time></trkpt><trkpt lat="41.81263267174747" lon="13.027868920750503"><ele>250.8</ele><time>2026-04-18T10:54:45Z</time></trkpt><trkpt lat="41.812710097599464" lon="13.027932829462992"><ele>251.6</ele><time>2026-04-18T10:54:46Z</time></trkpt><trkpt lat="41.81280416538475" lon="13.028022630691245"><ele>252.39999999999998</ele><time>2026-04-18T10:54:47Z</time></trkpt><trkpt lat="41.81288805264801" lon="13.028126341899213"><ele>253.2</ele><time>2026-04-18T10:54:48Z</time></trkpt><trkpt lat="41.81297485602537" lon="13.028247862142784"><ele>254.0</ele><time>2026-04-18T10:54:49Z</time></trkpt><trkpt lat="41.813054391449924" lon="13.028366657892972"><ele>254.5</ele><time>2026-04-18T10:54:50Z</time></trkpt><trkpt lat="41.81313096430488" lon="13.028504756873094"><ele>255.0</ele><time>2026-04-18T10:54:51Z</time></trkpt><trkpt lat="41.81320640780618" lon="13.02864981625659"><ele>255.5</ele><time>2026-04-18T10:54:52Z</time></trkpt><trkpt lat="41.81328965229681" lon="13.028788820783342"><ele>256.0</ele><time>2026-04-18T10:54:53Z</time></trkpt><trkpt lat="41.81338201601457" lon="13.02892256005209"><ele>256.0</ele><time>2026-04-18T10:54:54Z</time></trkpt><trkpt lat="41.81347511886626" lon="13.029053804322979"><ele>256.0</ele><time>2026-04-18T10:54:55Z</time></trkpt><trkpt lat="41.81355535889535" lon="13.029170921887236"><ele>256.0</ele><time>2026-04-18T10:54:56Z</time></trkpt><trkpt lat="41.81362144179113" lon="13.02928327513554"><ele>256.0</ele><time>2026-04-18T10:54:57Z</time></trkpt><trkpt lat="41.81367905156802" lon="13.029380704051755"><ele>257.40000000000003</ele><time>2026-04-18T10:54:58Z</time></trkpt><trkpt lat="41.8137320064931" lon="13.02945872883748"><ele>258.8</ele><time>2026-04-18T10:54:59Z</time></trkpt><trkpt lat="41.81378475858447" lon="13.029545076817627"><ele>260.20000000000005</ele><time>2026-04-18T10:55:19Z</time></trkpt><trkpt lat="41.81385716888694" lon="13.029693625083292"><ele>261.6</ele><time>2026-04-18T10:55:21Z</time></trkpt><trkpt lat="41.81391291285325" lon="13.029801668700038"><ele>263.0</ele><time>2026-04-18T10:55:22Z</time></trkpt><trkpt lat="41.813983328040486" lon="13.029915600408856"><ele>263.75</ele><time>2026-04-18T10:55:23Z</time></trkpt><trkpt lat="41.814070208495046" lon="13.03002532220485"><ele>264.5</ele><time>2026-04-18T10:55:24Z</time></trkpt><trkpt lat="41.81415188049299" lon="13.030137005246875"><ele>265.25</ele><time>2026-04-18T10:55:25Z</time></trkpt><trkpt lat="41.81422860135205" lon="13.030248972121466"><ele>266.0</ele><time>2026-04-18T10:55:26Z</time></trkpt><trkpt lat="41.814303908840344" lon="13.030355680462346"><ele>266.2</ele><time>2026-04-18T10:55:27Z</time></trkpt><trkpt lat="41.81437396361697" lon="13.030464448174927"><ele>266.40000000000003</ele><time>2026-04-18T10:55:28Z</time></trkpt><trkpt lat="41.8144279425378" lon="13.030581122689183"><ele>266.6</ele><time>2026-04-18T10:55:29Z</time></trkpt><trkpt lat="41.814473126794574" lon="13.030705776598111"><ele>266.8</ele><time>2026-04-18T10:55:30Z</time></trkpt><trkpt lat="41.81451546441402" lon="13.030834454698411"><ele>267.0</ele><time>2026-04-18T10:55:31Z</time></trkpt><trkpt lat="41.81456917457866" lon="13.030956778348706"><ele>267.75</ele><time>2026-04-18T10:55:32Z</time></trkpt><trkpt lat="41.814631732857926" lon="13.031071273778405"><ele>268.5</ele><time>2026-04-18T10:55:33Z</time></trkpt><trkpt lat="41.81469214608111" lon="13.031193097044246"><ele>269.25</ele><time>2026-04-18T10:55:34Z</time></trkpt><trkpt lat="41.81475260848587" lon="13.031319670522304"><ele>270.0</ele><time>2026-04-18T10:55:35Z</time></trkpt><trkpt lat="41.814824173687796" lon="13.031469557155459"><ele>270.0</ele><time>2026-04-18T10:55:36Z</time></trkpt><trkpt lat="41.81489256747457" lon="13.031623983889057"><ele>270.0</ele><time>2026-04-18T10:55:37Z</time></trkpt><trkpt lat="41.81495148623706" lon="13.031775812415054"><ele>270.0</ele><time>2026-04-18T10:55:38Z</time></trkpt><trkpt lat="41.815014488273526" lon="13.031924489419717"><ele>270.0</ele><time>2026-04-18T10:55:39Z</time></trkpt><trkpt lat="41.81507828870192" lon="13.032068822212382"><ele>270.0</ele><time>2026-04-18T10:55:40Z</time></trkpt><trkpt lat="41.815150228956895" lon="13.0322150765509"><ele>270.0</ele><time>2026-04-18T10:55:41Z</time></trkpt><trkpt lat="41.81522303743675" lon="13.032369766773199"><ele>270.0</ele><time>2026-04-18T10:55:42Z</time></trkpt><trkpt lat="41.8152984111208" lon="13.032528284590903"><ele>270.0</ele><time>2026-04-18T10:55:43Z</time></trkpt><trkpt lat="41.81537299108906" lon="13.032675266614959"><ele>270.0</ele><time>2026-04-18T10:55:44Z</time></trkpt><trkpt lat="41.815445661247125" lon="13.032826331042298"><ele>270.0</ele><time>2026-04-18T10:55:45Z</time></trkpt><trkpt lat="41.815515883579735" lon="13.032974684295386"><ele>270.0</ele><time>2026-04-18T10:55:46Z</time></trkpt><trkpt lat="41.81558939201041" lon="13.033124195264325"><ele>270.0</ele><time>2026-04-18T10:55:47Z</time></trkpt><trkpt lat="41.81566086302734" lon="13.033270165154219"><ele>269.25</ele><time>2026-04-18T10:55:48Z</time></trkpt><trkpt lat="41.81573666000269" lon="13.033416090196777"><ele>268.5</ele><time>2026-04-18T10:55:49Z</time></trkpt><trkpt lat="41.8158066090657" lon="13.033545080852475"><ele>267.75</ele><time>2026-04-18T10:55:50Z</time></trkpt><trkpt lat="41.81587931815617" lon="13.033670386678878"><ele>267.0</ele><time>2026-04-18T10:55:51Z</time></trkpt><trkpt lat="41.81595606857676" lon="13.033787455625092"><ele>267.2</ele><time>2026-04-18T10:55:52Z</time></trkpt><trkpt lat="41.816036957869386" lon="13.033899887852535"><ele>267.4</ele><time>2026-04-18T10:55:53Z</time></trkpt><trkpt lat="41.81609988579462" lon="13.034004511921598"><ele>267.6</ele><time>2026-04-18T10:55:54Z</time></trkpt><trkpt lat="41.81616024072159" lon="13.034101293179743"><ele>267.8</ele><time>2026-04-18T10:55:55Z</time></trkpt><trkpt lat="41.81621377183987" lon="13.034188133409804"><ele>268.0</ele><time>2026-04-18T10:55:56Z</time></trkpt><trkpt lat="41.816267884887424" lon="13.034258698230976"><ele>268.0</ele><time>2026-04-18T10:55:57Z</time></trkpt><trkpt lat="41.81631541278979" lon="13.034323296592119"><ele>268.0</ele><time>2026-04-18T10:55:58Z</time></trkpt><trkpt lat="41.81638423404639" lon="13.034453994018055"><ele>268.0</ele><time>2026-04-18T10:56:00Z</time></trkpt><trkpt lat="41.8164649378031" lon="13.034580369145042"><ele>268.0</ele><time>2026-04-18T10:56:02Z</time></trkpt><trkpt lat="41.81650836804673" lon="13.034648530403084"><ele>268.0</ele><time>2026-04-18T10:56:03Z</time></trkpt><trkpt lat="41.81660191143061" lon="13.034754794097346"><ele>268.0</ele><time>2026-04-18T10:56:05Z</time></trkpt><trkpt lat="41.816668995418176" lon="13.034870499256298"><ele>268.0</ele><time>2026-04-18T10:56:07Z</time></trkpt><trkpt lat="41.81671672820052" lon="13.034979847025928"><ele>268.0</ele><time>2026-04-18T10:56:09Z</time></trkpt><trkpt lat="41.81678738330227" lon="13.035076905444347"><ele>268.0</ele><time>2026-04-18T10:56:11Z</time></trkpt><trkpt lat="41.816837030437746" lon="13.035186255734997"><ele>268.0</ele><time>2026-04-18T10:56:13Z</time></trkpt><trkpt lat="41.816889661763234" lon="13.035323321458304"><ele>267.6</ele><time>2026-04-18T10:56:15Z</time></trkpt><trkpt lat="41.81692846093362" lon="13.035457567827446"><ele>267.20000000000005</ele><time>2026-04-18T10:56:17.001Z</time></trkpt><trkpt lat="41.816992519764845" lon="13.035604640374226"><ele>266.8</ele><time>2026-04-18T10:56:19.001Z</time></trkpt><trkpt lat="41.817030978687654" lon="13.03570679074597"><ele>266.40000000000003</ele><time>2026-04-18T10:56:20.001Z</time></trkpt><trkpt lat="41.81706723216729" lon="13.035783698138511"><ele>266.0</ele><time>2026-04-18T10:56:21.001Z</time></trkpt><trkpt lat="41.81713521243228" lon="13.035904038477817"><ele>266.6666666666667</ele><time>2026-04-18T10:56:23.001Z</time></trkpt><trkpt lat="41.81717445909933" lon="13.035991975857165"><ele>267.33333333333337</ele><time>2026-04-18T10:56:25.001Z</time></trkpt><trkpt lat="41.817239997897936" lon="13.036119778730146"><ele>268.0</ele><time>2026-04-18T10:56:28.001Z</time></trkpt><trkpt lat="41.81729846465941" lon="13.036207850239286"><ele>268.6666666666667</ele><time>2026-04-18T10:56:29.001Z</time></trkpt><trkpt lat="41.81734812037014" lon="13.03629617657694"><ele>269.3333333333333</ele><time>2026-04-18T10:56:30.001Z</time></trkpt><trkpt lat="41.81738320700634" lon="13.03637625942071"><ele>270.0</ele><time>2026-04-18T10:56:31.001Z</time></trkpt><trkpt lat="41.81741500142756" lon="13.036453057210622"><ele>270.0</ele><time>2026-04-18T10:56:32.001Z</time></trkpt><trkpt lat="41.81745612116912" lon="13.036524150882675"><ele>270.0</ele><time>2026-04-18T10:56:33.001Z</time></trkpt><trkpt lat="41.81748756869031" lon="13.036606344904174"><ele>270.0</ele><time>2026-04-18T10:56:34.001Z</time></trkpt><trkpt lat="41.817537881980144" lon="13.03675137444784"><ele>270.0</ele><time>2026-04-18T10:56:36Z</time></trkpt><trkpt lat="41.81756718593394" lon="13.036827838974972"><ele>270.0</ele><time>2026-04-18T10:56:37Z</time></trkpt><trkpt lat="41.81760173350691" lon="13.036913839620057"><ele>270.0</ele><time>2026-04-18T10:56:38Z</time></trkpt><trkpt lat="41.81764377298298" lon="13.036994711683295"><ele>270.0</ele><time>2026-04-18T10:56:39Z</time></trkpt><trkpt lat="41.81768339211282" lon="13.037081770151929"><ele>270.0</ele><time>2026-04-18T10:56:40Z</time></trkpt><trkpt lat="41.817718340352286" lon="13.037175687389835"><ele>270.0</ele><time>2026-04-18T10:56:41Z</time></trkpt><trkpt lat="41.81774880267602" lon="13.037249919653272"><ele>270.0</ele><time>2026-04-18T10:56:42Z</time></trkpt><trkpt lat="41.81778054255953" lon="13.037325460950155"><ele>270.0</ele><time>2026-04-18T10:56:43Z</time></trkpt><trkpt lat="41.81782311134191" lon="13.037488160385236"><ele>270.0</ele><time>2026-04-18T10:56:45Z</time></trkpt><trkpt lat="41.81785551756713" lon="13.037564382705739"><ele>270.3333333333333</ele><time>2026-04-18T10:56:46Z</time></trkpt><trkpt lat="41.81790038202859" lon="13.037661214705663"><ele>270.6666666666667</ele><time>2026-04-18T10:56:47Z</time></trkpt><trkpt lat="41.81792800074806" lon="13.03775551343097"><ele>271.0</ele><time>2026-04-18T10:56:48Z</time></trkpt><trkpt lat="41.817957664246904" lon="13.037840443884125"><ele>271.33333333333337</ele><time>2026-04-18T10:56:49Z</time></trkpt><trkpt lat="41.81800029563573" lon="13.03792431577764"><ele>271.6666666666667</ele><time>2026-04-18T10:56:50Z</time></trkpt><trkpt lat="41.8180181337432" lon="13.038027314927348"><ele>272.0</ele><time>2026-04-18T10:56:51Z</time></trkpt><trkpt lat="41.81808137741307" lon="13.038179457177995"><ele>271.99999999999994</ele><time>2026-04-18T10:56:53Z</time></trkpt><trkpt lat="41.81811041738875" lon="13.038255098488836"><ele>272.0</ele><time>2026-04-18T10:56:54Z</time></trkpt><trkpt lat="41.818137080151125" lon="13.03833391998705"><ele>272.0</ele><time>2026-04-18T10:56:55Z</time></trkpt><trkpt lat="41.818176863520726" lon="13.03842421489891"><ele>272.0</ele><time>2026-04-18T10:56:56Z</time></trkpt><trkpt lat="41.81822273104142" lon="13.038497227796501"><ele>272.0</ele><time>2026-04-18T10:56:57Z</time></trkpt><trkpt lat="41.81826254065337" lon="13.038579808752305"><ele>271.99999999999994</ele><time>2026-04-18T10:56:58Z</time></trkpt><trkpt lat="41.81829789899324" lon="13.038662516540716"><ele>272.0</ele><time>2026-04-18T10:56:59Z</time></trkpt><trkpt lat="41.818311461588436" lon="13.038752760007426"><ele>272.1666666666667</ele><time>2026-04-18T10:57:00Z</time></trkpt><trkpt lat="41.818339557851736" lon="13.03883406562081"><ele>272.33333333333337</ele><time>2026-04-18T10:57:01Z</time></trkpt><trkpt lat="41.818383383411636" lon="13.038916560569081"><ele>272.5</ele><time>2026-04-18T10:57:02Z</time></trkpt><trkpt lat="41.818434272578926" lon="13.039009327096831"><ele>272.6666666666667</ele><time>2026-04-18T10:57:03Z</time></trkpt><trkpt lat="41.81848298271972" lon="13.039115176279143"><ele>272.8333333333333</ele><time>2026-04-18T10:57:04Z</time></trkpt><trkpt lat="41.81854565124126" lon="13.039243849524363"><ele>273.0</ele><time>2026-04-18T10:57:05Z</time></trkpt><trkpt lat="41.81861597328318" lon="13.039377220424777"><ele>273.4</ele><time>2026-04-18T10:57:06Z</time></trkpt><trkpt lat="41.81868484014064" lon="13.039498912318413"><ele>273.8</ele><time>2026-04-18T10:57:07Z</time></trkpt><trkpt lat="41.81874536302984" lon="13.03960043004166"><ele>274.2</ele><time>2026-04-18T10:57:08Z</time></trkpt><trkpt lat="41.818794504013404" lon="13.03968720571645"><ele>274.6</ele><time>2026-04-18T10:57:09Z</time></trkpt><trkpt lat="41.818834821767595" lon="13.039778880476034"><ele>275.0</ele><time>2026-04-18T10:57:10Z</time></trkpt><trkpt lat="41.81889088559447" lon="13.039889227917826"><ele>274.6666666666667</ele><time>2026-04-18T10:57:11Z</time></trkpt><trkpt lat="41.818953196223994" lon="13.039994736064875"><ele>274.33333333333337</ele><time>2026-04-18T10:57:12Z</time></trkpt><trkpt lat="41.81900702833093" lon="13.040087222968767"><ele>274.0</ele><time>2026-04-18T10:57:13Z</time></trkpt><trkpt lat="41.819046970853044" lon="13.040172658230397"><ele>273.6666666666667</ele><time>2026-04-18T10:57:14Z</time></trkpt><trkpt lat="41.81909749341532" lon="13.040248478642473"><ele>273.3333333333333</ele><time>2026-04-18T10:57:15Z</time></trkpt><trkpt lat="41.81914228733941" lon="13.040338957976038"><ele>273.0</ele><time>2026-04-18T10:57:16Z</time></trkpt><trkpt lat="41.819183781776005" lon="13.040424061051533"><ele>273.0</ele><time>2026-04-18T10:57:17Z</time></trkpt><trkpt lat="41.81922373015126" lon="13.040495150482428"><ele>273.0</ele><time>2026-04-18T10:57:18Z</time></trkpt><trkpt lat="41.81930352124117" lon="13.040634830419874"><ele>273.0</ele><time>2026-04-18T10:57:20Z</time></trkpt><trkpt lat="41.8193468365258" lon="13.04071373685259"><ele>273.0</ele><time>2026-04-18T10:57:21Z</time></trkpt><trkpt lat="41.81939549576448" lon="13.040801206387647"><ele>273.0</ele><time>2026-04-18T10:57:22Z</time></trkpt><trkpt lat="41.81943240129266" lon="13.040876951873205"><ele>273.0</ele><time>2026-04-18T10:57:23Z</time></trkpt><trkpt lat="41.81946879768122" lon="13.04095001760722"><ele>273.6</ele><time>2026-04-18T10:57:24Z</time></trkpt><trkpt lat="41.81950295679691" lon="13.041031683996117"><ele>274.20000000000005</ele><time>2026-04-18T10:57:25Z</time></trkpt><trkpt lat="41.819560890882876" lon="13.041186237812214"><ele>274.8</ele><time>2026-04-18T10:57:27Z</time></trkpt><trkpt lat="41.81961521359863" lon="13.041338673270497"><ele>275.40000000000003</ele><time>2026-04-18T10:57:29Z</time></trkpt><trkpt lat="41.81964900137867" lon="13.041439502497584"><ele>276.0</ele><time>2026-04-18T10:57:30Z</time></trkpt><trkpt lat="41.81968791577271" lon="13.04155354356894"><ele>275.6</ele><time>2026-04-18T10:57:31Z</time></trkpt><trkpt lat="41.819717572470026" lon="13.041641820896793"><ele>275.20000000000005</ele><time>2026-04-18T10:57:32Z</time></trkpt><trkpt lat="41.81976061623202" lon="13.041755710155249"><ele>274.79999999999995</ele><time>2026-04-18T10:57:33Z</time></trkpt><trkpt lat="41.819825779266424" lon="13.041906803310399"><ele>274.4</ele><time>2026-04-18T10:57:34Z</time></trkpt><trkpt lat="41.81988946370518" lon="13.042050199949202"><ele>274.0</ele><time>2026-04-18T10:57:35Z</time></trkpt><trkpt lat="41.819947989779756" lon="13.042150531425749"><ele>274.0</ele><time>2026-04-18T10:57:36Z</time></trkpt><trkpt lat="41.82000497697538" lon="13.042220669390332"><ele>274.0</ele><time>2026-04-18T10:57:37Z</time></trkpt><trkpt lat="41.82005430696109" lon="13.042296809289802"><ele>274.0</ele><time>2026-04-18T10:57:38Z</time></trkpt><trkpt lat="41.82013838555837" lon="13.042406414303352"><ele>274.0</ele><time>2026-04-18T10:57:40Z</time></trkpt><trkpt lat="41.82021184120163" lon="13.042467226941998"><ele>274.0</ele><time>2026-04-18T10:57:42Z</time></trkpt><trkpt lat="41.8202953632307" lon="13.042564186929868"><ele>274.28571428571433</ele><time>2026-04-18T10:57:44Z</time></trkpt><trkpt lat="41.82034824199359" lon="13.042623960207733"><ele>274.57142857142856</ele><time>2026-04-18T10:57:45Z</time></trkpt><trkpt lat="41.82040280228536" lon="13.042679197146438"><ele>274.8571428571429</ele><time>2026-04-18T10:57:46Z</time></trkpt><trkpt lat="41.820463649585676" lon="13.042730753880148"><ele>275.14285714285717</ele><time>2026-04-18T10:57:47Z</time></trkpt><trkpt lat="41.820517104273605" lon="13.04278106226323"><ele>275.42857142857144</ele><time>2026-04-18T10:57:48Z</time></trkpt><trkpt lat="41.82059549168815" lon="13.042870645015649"><ele>275.7142857142857</ele><time>2026-04-18T10:57:50Z</time></trkpt><trkpt lat="41.820644698986754" lon="13.04292649921669"><ele>276.0</ele><time>2026-04-18T10:57:52Z</time></trkpt><trkpt lat="41.82070126109672" lon="13.043012812930156"><ele>276.0</ele><time>2026-04-18T10:58:32.001Z</time></trkpt><trkpt lat="41.8207094248459" lon="13.043140648861705"><ele>276.0</ele><time>2026-04-18T10:58:34.001Z</time></trkpt><trkpt lat="41.82073503651424" lon="13.04329201285057"><ele>276.0</ele><time>2026-04-18T10:58:36.001Z</time></trkpt><trkpt lat="41.82076072772754" lon="13.043468389841806"><ele>276.0</ele><time>2026-04-18T10:58:38.001Z</time></trkpt><trkpt lat="41.82078023863219" lon="13.043556180807574"><ele>276.0</ele><time>2026-04-18T10:58:39.001Z</time></trkpt><trkpt lat="41.82079339432138" lon="13.043654786289727"><ele>276.0</ele><time>2026-04-18T10:58:40.001Z</time></trkpt><trkpt lat="41.82080807417095" lon="13.0437621193612"><ele>276.0</ele><time>2026-04-18T10:58:41.001Z</time></trkpt><trkpt lat="41.82082335102927" lon="13.04386597721864"><ele>276.0</ele><time>2026-04-18T10:58:42.001Z</time></trkpt><trkpt lat="41.82084077036581" lon="13.04397310879199"><ele>276.0</ele><time>2026-04-18T10:58:43.001Z</time></trkpt><trkpt lat="41.820862737626015" lon="13.044083198357171"><ele>276.0</ele><time>2026-04-18T10:58:44.001Z</time></trkpt><trkpt lat="41.82089158800347" lon="13.044199787646019"><ele>276.0</ele><time>2026-04-18T10:58:45.001Z</time></trkpt><trkpt lat="41.82092412334509" lon="13.04432034483806"><ele>276.0</ele><time>2026-04-18T10:58:46.001Z</time></trkpt><trkpt lat="41.82096161597049" lon="13.044441815080463"><ele>276.0</ele><time>2026-04-18T10:58:47.001Z</time></trkpt><trkpt lat="41.821007088447764" lon="13.044565122435124"><ele>276.0</ele><time>2026-04-18T10:58:48.001Z</time></trkpt><trkpt lat="41.82105263072414" lon="13.0446774564672"><ele>276.0</ele><time>2026-04-18T10:58:49.001Z</time></trkpt><trkpt lat="41.82110387494658" lon="13.044787316496942"><ele>276.0</ele><time>2026-04-18T10:58:50.001Z</time></trkpt><trkpt lat="41.82115390799604" lon="13.044909165473689"><ele>276.0</ele><time>2026-04-18T10:58:51.001Z</time></trkpt><trkpt lat="41.821211236042444" lon="13.045034491845334"><ele>276.0</ele><time>2026-04-18T10:58:52.001Z</time></trkpt><trkpt lat="41.82126544869504" lon="13.045163729953705"><ele>276.0</ele><time>2026-04-18T10:58:53.001Z</time></trkpt><trkpt lat="41.821320290778274" lon="13.04529832132644"><ele>276.0</ele><time>2026-04-18T10:58:54.001Z</time></trkpt><trkpt lat="41.82137349086161" lon="13.045440547306354"><ele>276.0</ele><time>2026-04-18T10:58:55.001Z</time></trkpt><trkpt lat="41.821427774235076" lon="13.045581651650762"><ele>276.0</ele><time>2026-04-18T10:58:56.001Z</time></trkpt><trkpt lat="41.82148496189476" lon="13.045723396436275"><ele>276.0</ele><time>2026-04-18T10:58:57.001Z</time></trkpt><trkpt lat="41.82154178302728" lon="13.045857053954084"><ele>276.0</ele><time>2026-04-18T10:58:58.001Z</time></trkpt><trkpt lat="41.821593958323085" lon="13.045993031063004"><ele>275.6</ele><time>2026-04-18T10:58:59.001Z</time></trkpt><trkpt lat="41.821644219605616" lon="13.046126236105621"><ele>275.20000000000005</ele><time>2026-04-18T10:59:00Z</time></trkpt><trkpt lat="41.82168383552434" lon="13.046244886579236"><ele>274.79999999999995</ele><time>2026-04-18T10:59:01Z</time></trkpt><trkpt lat="41.8217165980002" lon="13.046372472503728"><ele>274.4</ele><time>2026-04-18T10:59:02Z</time></trkpt><trkpt lat="41.821737687455325" lon="13.046513602301655"><ele>274.0</ele><time>2026-04-18T10:59:03Z</time></trkpt><trkpt lat="41.821755585027915" lon="13.046659053563861"><ele>274.5</ele><time>2026-04-18T10:59:04Z</time></trkpt><trkpt lat="41.821773662918474" lon="13.046810968540708"><ele>275.0</ele><time>2026-04-18T10:59:05Z</time></trkpt><trkpt lat="41.82178790625438" lon="13.046960456399876"><ele>275.5</ele><time>2026-04-18T10:59:06Z</time></trkpt><trkpt lat="41.821801878653545" lon="13.047109041382221"><ele>276.0</ele><time>2026-04-18T10:59:07Z</time></trkpt><trkpt lat="41.82181842154998" lon="13.047258101826374"><ele>276.0</ele><time>2026-04-18T10:59:08Z</time></trkpt><trkpt lat="41.82183591039323" lon="13.047410435030127"><ele>276.0</ele><time>2026-04-18T10:59:09Z</time></trkpt><trkpt lat="41.82185434783818" lon="13.047549647580624"><ele>276.0</ele><time>2026-04-18T10:59:10Z</time></trkpt><trkpt lat="41.82187597175926" lon="13.047695474334892"><ele>276.0</ele><time>2026-04-18T10:59:11Z</time></trkpt><trkpt lat="41.82189572022199" lon="13.047837195996676"><ele>276.0</ele><time>2026-04-18T10:59:12Z</time></trkpt><trkpt lat="41.82190993847944" lon="13.047985209711758"><ele>275.6</ele><time>2026-04-18T10:59:13Z</time></trkpt><trkpt lat="41.82192626081978" lon="13.048129323771029"><ele>275.20000000000005</ele><time>2026-04-18T10:59:14Z</time></trkpt><trkpt lat="41.82194484568636" lon="13.048275589406172"><ele>274.79999999999995</ele><time>2026-04-18T10:59:15Z</time></trkpt><trkpt lat="41.82196467288943" lon="13.048426289638593"><ele>274.4</ele><time>2026-04-18T10:59:16Z</time></trkpt><trkpt lat="41.82198362069298" lon="13.04858019740666"><ele>274.0</ele><time>2026-04-18T10:59:17Z</time></trkpt><trkpt lat="41.82200369202303" lon="13.048742471294544"><ele>274.0</ele><time>2026-04-18T10:59:18Z</time></trkpt><trkpt lat="41.82202893366687" lon="13.048903919474082"><ele>274.0</ele><time>2026-04-18T10:59:19Z</time></trkpt><trkpt lat="41.82205248455857" lon="13.049066124709505"><ele>274.0</ele><time>2026-04-18T10:59:20Z</time></trkpt><trkpt lat="41.82207496548828" lon="13.04922966059671"><ele>274.0</ele><time>2026-04-18T10:59:21Z</time></trkpt><trkpt lat="41.822097462857315" lon="13.049394952243105"><ele>274.0</ele><time>2026-04-18T10:59:22Z</time></trkpt><trkpt lat="41.82211832409089" lon="13.049565038210082"><ele>274.0</ele><time>2026-04-18T10:59:23Z</time></trkpt><trkpt lat="41.82213908252533" lon="13.04974064328685"><ele>274.0</ele><time>2026-04-18T10:59:24Z</time></trkpt><trkpt lat="41.8221590010187" lon="13.049902926875049"><ele>274.0</ele><time>2026-04-18T10:59:25Z</time></trkpt><trkpt lat="41.82217699733614" lon="13.050052394706459"><ele>273.4</ele><time>2026-04-18T10:59:26Z</time></trkpt><trkpt lat="41.82219518997402" lon="13.050176735375803"><ele>272.79999999999995</ele><time>2026-04-18T10:59:27Z</time></trkpt><trkpt lat="41.82219938502475" lon="13.050281297773916"><ele>272.20000000000005</ele><time>2026-04-18T10:59:28Z</time></trkpt><trkpt lat="41.82215427869576" lon="13.050402176320913"><ele>271.6</ele><time>2026-04-18T10:59:30Z</time></trkpt><trkpt lat="41.822059804186054" lon="13.050433647922043"><ele>271.0</ele><time>2026-04-18T10:59:34Z</time></trkpt><trkpt lat="41.82197029978592" lon="13.050504445937678"><ele>271.0</ele><time>2026-04-18T10:59:36Z</time></trkpt><trkpt lat="41.82191288671112" lon="13.050545068762132"><ele>271.0</ele><time>2026-04-18T10:59:37Z</time></trkpt><trkpt lat="41.821839226875234" lon="13.050598713367846"><ele>271.0</ele><time>2026-04-18T10:59:38Z</time></trkpt><trkpt lat="41.82175682010625" lon="13.050660806200849"><ele>271.0</ele><time>2026-04-18T10:59:39Z</time></trkpt><trkpt lat="41.82166698024065" lon="13.050732230040005"><ele>271.0</ele><time>2026-04-18T10:59:40Z</time></trkpt><trkpt lat="41.82155953991629" lon="13.050809292489149"><ele>270.0</ele><time>2026-04-18T10:59:41Z</time></trkpt><trkpt lat="41.82144252039494" lon="13.05089723574399"><ele>269.0</ele><time>2026-04-18T10:59:42Z</time></trkpt><trkpt lat="41.82132834880547" lon="13.050992260251387"><ele>268.0</ele><time>2026-04-18T10:59:43Z</time></trkpt><trkpt lat="41.82121282055708" lon="13.051083015929695"><ele>267.0</ele><time>2026-04-18T10:59:44Z</time></trkpt><trkpt lat="41.82110358436206" lon="13.051160280023533"><ele>267.0</ele><time>2026-04-18T10:59:45Z</time></trkpt><trkpt lat="41.820999010815925" lon="13.051236052215733"><ele>267.0</ele><time>2026-04-18T10:59:46Z</time></trkpt><trkpt lat="41.820904816730874" lon="13.05130875924277"><ele>267.0</ele><time>2026-04-18T10:59:47Z</time></trkpt><trkpt lat="41.82080775818575" lon="13.051385132888036"><ele>267.0</ele><time>2026-04-18T10:59:48Z</time></trkpt><trkpt lat="41.82070703328874" lon="13.051463304612437"><ele>267.25</ele><time>2026-04-18T10:59:49Z</time></trkpt><trkpt lat="41.8206032519252" lon="13.051549300938477"><ele>267.5</ele><time>2026-04-18T10:59:50Z</time></trkpt><trkpt lat="41.82050087279925" lon="13.051634295607602"><ele>267.75</ele><time>2026-04-18T10:59:51Z</time></trkpt><trkpt lat="41.820396295171186" lon="13.051715746852906"><ele>268.0</ele><time>2026-04-18T10:59:52Z</time></trkpt><trkpt lat="41.820284064055784" lon="13.051803930202457"><ele>267.5</ele><time>2026-04-18T10:59:53Z</time></trkpt><trkpt lat="41.820175633482755" lon="13.051888379078147"><ele>267.0</ele><time>2026-04-18T10:59:54Z</time></trkpt><trkpt lat="41.82006157707281" lon="13.051970162030942"><ele>266.5</ele><time>2026-04-18T10:59:55Z</time></trkpt><trkpt lat="41.81995339676138" lon="13.052060999610337"><ele>266.0</ele><time>2026-04-18T10:59:56Z</time></trkpt><trkpt lat="41.81984158102179" lon="13.052150937340514"><ele>265.5</ele><time>2026-04-18T10:59:57Z</time></trkpt><trkpt lat="41.81972892017924" lon="13.052232298535255"><ele>265.0</ele><time>2026-04-18T10:59:58Z</time></trkpt><trkpt lat="41.81962191566998" lon="13.052317227627553"><ele>264.5</ele><time>2026-04-18T10:59:59Z</time></trkpt><trkpt lat="41.81951691805321" lon="13.052390308018785"><ele>264.0</ele><time>2026-04-18T11:00:00.001Z</time></trkpt><trkpt lat="41.81941246934116" lon="13.052445875100334"><ele>263.4</ele><time>2026-04-18T11:00:01.001Z</time></trkpt><trkpt lat="41.8193112869815" lon="13.052482938812219"><ele>262.79999999999995</ele><time>2026-04-18T11:00:02.001Z</time></trkpt><trkpt lat="41.81920598022542" lon="13.052509779705892"><ele>262.20000000000005</ele><time>2026-04-18T11:00:03.001Z</time></trkpt><trkpt lat="41.819099822026935" lon="13.052520564722078"><ele>261.6</ele><time>2026-04-18T11:00:04.001Z</time></trkpt><trkpt lat="41.81899269162406" lon="13.052533773487633"><ele>261.0</ele><time>2026-04-18T11:00:05.001Z</time></trkpt><trkpt lat="41.81888464747986" lon="13.052541839041519"><ele>261.0</ele><time>2026-04-18T11:00:06.001Z</time></trkpt><trkpt lat="41.81877559671334" lon="13.052553405256537"><ele>261.0</ele><time>2026-04-18T11:00:07.001Z</time></trkpt><trkpt lat="41.81866528908696" lon="13.052567094792296"><ele>261.0</ele><time>2026-04-18T11:00:08.001Z</time></trkpt><trkpt lat="41.818562969463" lon="13.052584152565556"><ele>261.0</ele><time>2026-04-18T11:00:09.001Z</time></trkpt><trkpt lat="41.81846188502432" lon="13.05260077093148"><ele>261.0</ele><time>2026-04-18T11:00:10.001Z</time></trkpt><trkpt lat="41.8183800946475" lon="13.052618292370866"><ele>260.6666666666667</ele><time>2026-04-18T11:00:11.001Z</time></trkpt><trkpt lat="41.8183029045382" lon="13.052629646970619"><ele>260.3333333333333</ele><time>2026-04-18T11:00:12.001Z</time></trkpt><trkpt lat="41.81818804904338" lon="13.052643859068997"><ele>260.0</ele><time>2026-04-18T11:00:14.001Z</time></trkpt><trkpt lat="41.81810981587111" lon="13.052681950460276"><ele>259.66666666666663</ele><time>2026-04-18T11:00:16.001Z</time></trkpt><trkpt lat="41.81809070488378" lon="13.05278304085513"><ele>259.3333333333333</ele><time>2026-04-18T11:00:18.001Z</time></trkpt><trkpt lat="41.818108686543994" lon="13.05287874736353"><ele>259.0</ele><time>2026-04-18T11:00:20.001Z</time></trkpt><trkpt lat="41.818128971042086" lon="13.0529676546351"><ele>259.0</ele><time>2026-04-18T11:00:22.001Z</time></trkpt><trkpt lat="41.81813465179779" lon="13.053053218236101"><ele>259.0</ele><time>2026-04-18T11:00:24.001Z</time></trkpt><trkpt lat="41.81813344041665" lon="13.053147746746822"><ele>259.0</ele><time>2026-04-18T11:00:26.001Z</time></trkpt><trkpt lat="41.81812967507654" lon="13.053252825388443"><ele>259.0</ele><time>2026-04-18T11:00:29.001Z</time></trkpt><trkpt lat="41.81813833396884" lon="13.053389960232527"><ele>259.0</ele><time>2026-04-18T11:00:32.001Z</time></trkpt><trkpt lat="41.81816026147714" lon="13.053560939632062"><ele>259.0</ele><time>2026-04-18T11:00:34.001Z</time></trkpt><trkpt lat="41.81817603896239" lon="13.0536548929636"><ele>259.3333333333333</ele><time>2026-04-18T11:00:35.001Z</time></trkpt><trkpt lat="41.81819510511833" lon="13.053751589236622"><ele>259.66666666666663</ele><time>2026-04-18T11:00:36.001Z</time></trkpt><trkpt lat="41.81821358386209" lon="13.053856084554138"><ele>260.0</ele><time>2026-04-18T11:00:37.001Z</time></trkpt><trkpt lat="41.81823956909772" lon="13.053960300978153"><ele>260.3333333333333</ele><time>2026-04-18T11:00:38.001Z</time></trkpt><trkpt lat="41.818262533205775" lon="13.054057096423811"><ele>260.6666666666667</ele><time>2026-04-18T11:00:39.001Z</time></trkpt><trkpt lat="41.81828319202738" lon="13.054159715073647"><ele>261.0</ele><time>2026-04-18T11:00:40.001Z</time></trkpt><trkpt lat="41.81830584810799" lon="13.054265512469822"><ele>261.0</ele><time>2026-04-18T11:00:41.001Z</time></trkpt><trkpt lat="41.818326181853486" lon="13.054369992515623"><ele>261.0</ele><time>2026-04-18T11:00:42.001Z</time></trkpt><trkpt lat="41.81835067679595" lon="13.05447524113883"><ele>261.0</ele><time>2026-04-18T11:00:43.001Z</time></trkpt><trkpt lat="41.81838251551063" lon="13.054578439829836"><ele>261.0</ele><time>2026-04-18T11:00:44.001Z</time></trkpt><trkpt lat="41.81840960127278" lon="13.054679881057233"><ele>261.0</ele><time>2026-04-18T11:00:45.001Z</time></trkpt><trkpt lat="41.81843372706311" lon="13.054781826094313"><ele>261.0</ele><time>2026-04-18T11:00:46.001Z</time></trkpt><trkpt lat="41.818449121927934" lon="13.054888451021368"><ele>261.0</ele><time>2026-04-18T11:00:47.001Z</time></trkpt><trkpt lat="41.818460847603625" lon="13.055064058870782"><ele>261.0</ele><time>2026-04-18T11:00:49.001Z</time></trkpt><trkpt lat="41.81845271103546" lon="13.055157771753526"><ele>261.0</ele><time>2026-04-18T11:00:50.001Z</time></trkpt><trkpt lat="41.81843027363113" lon="13.055251066889454"><ele>261.0</ele><time>2026-04-18T11:00:51.001Z</time></trkpt><trkpt lat="41.81839812571876" lon="13.055344642128807"><ele>261.0</ele><time>2026-04-18T11:00:52.001Z</time></trkpt><trkpt lat="41.81836660654163" lon="13.055437434816806"><ele>261.0</ele><time>2026-04-18T11:00:53.001Z</time></trkpt><trkpt lat="41.81832825848877" lon="13.055569586666474"><ele>261.0</ele><time>2026-04-18T11:00:55.001Z</time></trkpt><trkpt lat="41.81830600193792" lon="13.05571344338245"><ele>261.0</ele><time>2026-04-18T11:00:57.001Z</time></trkpt><trkpt lat="41.818289500196656" lon="13.055848471369904"><ele>261.0</ele><time>2026-04-18T11:00:59Z</time></trkpt><trkpt lat="41.81824605298443" lon="13.05598547444225"><ele>261.0</ele><time>2026-04-18T11:01:01Z</time></trkpt><trkpt lat="41.818187156892975" lon="13.056095719958176"><ele>261.0</ele><time>2026-04-18T11:01:03Z</time></trkpt><trkpt lat="41.81810652001684" lon="13.056207852409262"><ele>262.25</ele><time>2026-04-18T11:01:05Z</time></trkpt><trkpt lat="41.81801731790895" lon="13.056319242525095"><ele>263.5</ele><time>2026-04-18T11:01:07Z</time></trkpt><trkpt lat="41.81796007730024" lon="13.056460606576513"><ele>264.75</ele><time>2026-04-18T11:01:09Z</time></trkpt><trkpt lat="41.81789321108341" lon="13.056587988584498"><ele>266.0</ele><time>2026-04-18T11:01:11Z</time></trkpt><trkpt lat="41.81785354346864" lon="13.056736131554493"><ele>266.6666666666667</ele><time>2026-04-18T11:01:13Z</time></trkpt><trkpt lat="41.81787693185175" lon="13.05689983364684"><ele>267.33333333333337</ele><time>2026-04-18T11:01:15Z</time></trkpt><trkpt lat="41.81790721567552" lon="13.05697649720816"><ele>268.0</ele><time>2026-04-18T11:01:16Z</time></trkpt><trkpt lat="41.81793128292987" lon="13.057057357662345"><ele>268.6666666666667</ele><time>2026-04-18T11:01:17Z</time></trkpt><trkpt lat="41.81794076691433" lon="13.057141626483217"><ele>269.3333333333333</ele><time>2026-04-18T11:01:18Z</time></trkpt><trkpt lat="41.81793022760289" lon="13.05731544546571"><ele>270.0</ele><time>2026-04-18T11:01:20Z</time></trkpt><trkpt lat="41.81792194809108" lon="13.057412029009624"><ele>270.3333333333333</ele><time>2026-04-18T11:01:21Z</time></trkpt><trkpt lat="41.817908838796924" lon="13.057511760184033"><ele>270.6666666666667</ele><time>2026-04-18T11:01:22Z</time></trkpt><trkpt lat="41.817900687529125" lon="13.057613426609752"><ele>271.0</ele><time>2026-04-18T11:01:23Z</time></trkpt><trkpt lat="41.81790011919329" lon="13.05771456326139"><ele>271.33333333333337</ele><time>2026-04-18T11:01:24Z</time></trkpt><trkpt lat="41.81789998304861" lon="13.057816047476605"><ele>271.6666666666667</ele><time>2026-04-18T11:01:25Z</time></trkpt><trkpt lat="41.81789930698175" lon="13.057923619661656"><ele>272.0</ele><time>2026-04-18T11:01:26Z</time></trkpt><trkpt lat="41.8178956258271" lon="13.05801851074383"><ele>272.0</ele><time>2026-04-18T11:01:27Z</time></trkpt><trkpt lat="41.81789037602701" lon="13.058111377885803"><ele>272.0</ele><time>2026-04-18T11:01:28Z</time></trkpt><trkpt lat="41.817872685910096" lon="13.05820563341912"><ele>272.0</ele><time>2026-04-18T11:01:29Z</time></trkpt><trkpt lat="41.81785379466597" lon="13.05828808626535"><ele>272.0</ele><time>2026-04-18T11:01:30Z</time></trkpt><trkpt lat="41.81781196565332" lon="13.058449879946293"><ele>272.0</ele><time>2026-04-18T11:01:32Z</time></trkpt><trkpt lat="41.817783900793124" lon="13.058549225049447"><ele>272.0</ele><time>2026-04-18T11:01:33Z</time></trkpt><trkpt lat="41.81775735465679" lon="13.058658033029364"><ele>272.2</ele><time>2026-04-18T11:01:34Z</time></trkpt><trkpt lat="41.817730736011804" lon="13.058748248448705"><ele>272.4</ele><time>2026-04-18T11:01:35Z</time></trkpt><trkpt lat="41.81769871715272" lon="13.058892159467655"><ele>272.6</ele><time>2026-04-18T11:01:37Z</time></trkpt><trkpt lat="41.81770272091862" lon="13.059032656623426"><ele>272.8</ele><time>2026-04-18T11:01:39Z</time></trkpt><trkpt lat="41.81768888497208" lon="13.059170220848518"><ele>273.0</ele><time>2026-04-18T11:01:41Z</time></trkpt><trkpt lat="41.817645546173914" lon="13.059327409753358"><ele>273.0</ele><time>2026-04-18T11:01:43Z</time></trkpt><trkpt lat="41.81758404240898" lon="13.059504712995038"><ele>273.0</ele><time>2026-04-18T11:01:45Z</time></trkpt><trkpt lat="41.817559664409806" lon="13.059593757953538"><ele>273.0</ele><time>2026-04-18T11:01:47Z</time></trkpt><trkpt lat="41.81755396470648" lon="13.05972166588718"><ele>273.0</ele><time>2026-04-18T11:01:50Z</time></trkpt><trkpt lat="41.81749878713441" lon="13.059801121927633"><ele>273.0</ele><time>2026-04-18T11:01:53Z</time></trkpt><trkpt lat="41.817461055157644" lon="13.059916271446083"><ele>273.6</ele><time>2026-04-18T11:01:55Z</time></trkpt><trkpt lat="41.8174240688346" lon="13.060062051170778"><ele>274.20000000000005</ele><time>2026-04-18T11:01:57Z</time></trkpt><trkpt lat="41.817393347982254" lon="13.06018703534567"><ele>274.8</ele><time>2026-04-18T11:01:59Z</time></trkpt><trkpt lat="41.817342871879845" lon="13.060320487557282"><ele>275.40000000000003</ele><time>2026-04-18T11:02:01Z</time></trkpt><trkpt lat="41.81729432908051" lon="13.060442902489799"><ele>276.0</ele><time>2026-04-18T11:02:03Z</time></trkpt><trkpt lat="41.81721484528733" lon="13.060528210004655"><ele>276.0</ele><time>2026-04-18T11:02:05Z</time></trkpt><trkpt lat="41.81714328872108" lon="13.06055418774199"><ele>276.0</ele><time>2026-04-18T11:02:06Z</time></trkpt><trkpt lat="41.817080850541664" lon="13.060597053224802"><ele>276.0</ele><time>2026-04-18T11:02:07Z</time></trkpt><trkpt lat="41.816988141664275" lon="13.060696839316119"><ele>276.0</ele><time>2026-04-18T11:02:09Z</time></trkpt><trkpt lat="41.81694733845562" lon="13.060778718782768"><ele>276.0</ele><time>2026-04-18T11:02:10Z</time></trkpt><trkpt lat="41.81690906273133" lon="13.060869757523099"><ele>276.0</ele><time>2026-04-18T11:02:11Z</time></trkpt><trkpt lat="41.81686618598035" lon="13.060957673375228"><ele>275.6666666666667</ele><time>2026-04-18T11:02:12Z</time></trkpt><trkpt lat="41.81682547057044" lon="13.06102554573332"><ele>275.3333333333333</ele><time>2026-04-18T11:02:13Z</time></trkpt><trkpt lat="41.816779981784826" lon="13.061118459625385"><ele>275.0</ele><time>2026-04-18T11:02:15Z</time></trkpt><trkpt lat="41.8167345590516" lon="13.061208317509763"><ele>274.66666666666663</ele><time>2026-04-18T11:02:18Z</time></trkpt><trkpt lat="41.81671136124132" lon="13.061287319695904"><ele>274.3333333333333</ele><time>2026-04-18T11:02:20Z</time></trkpt><trkpt lat="41.81666085238173" lon="13.061401779181518"><ele>274.0</ele><time>2026-04-18T11:02:22Z</time></trkpt><trkpt lat="41.816607573862576" lon="13.061545771359112"><ele>274.4</ele><time>2026-04-18T11:02:24Z</time></trkpt><trkpt lat="41.816563879359634" lon="13.061674273919394"><ele>274.79999999999995</ele><time>2026-04-18T11:02:26Z</time></trkpt><trkpt lat="41.816555594031115" lon="13.06184215929116"><ele>275.20000000000005</ele><time>2026-04-18T11:02:28Z</time></trkpt><trkpt lat="41.81656788873796" lon="13.061930712854544"><ele>275.6</ele><time>2026-04-18T11:02:29Z</time></trkpt><trkpt lat="41.81657422522887" lon="13.062040723388"><ele>276.0</ele><time>2026-04-18T11:02:30Z</time></trkpt><trkpt lat="41.8165992664317" lon="13.06219376123467"><ele>276.0</ele><time>2026-04-18T11:02:32Z</time></trkpt><trkpt lat="41.81661891258531" lon="13.062278368970613"><ele>276.0</ele><time>2026-04-18T11:02:33Z</time></trkpt><trkpt lat="41.8166355355721" lon="13.06242326970714"><ele>276.0</ele><time>2026-04-18T11:02:35Z</time></trkpt><trkpt lat="41.81663395627449" lon="13.062552280880915"><ele>276.0</ele><time>2026-04-18T11:02:37.001Z</time></trkpt><trkpt lat="41.816602683220964" lon="13.062642178161706"><ele>276.0</ele><time>2026-04-18T11:02:39.001Z</time></trkpt><trkpt lat="41.81655896871122" lon="13.062728671034796"><ele>276.0</ele><time>2026-04-18T11:02:41.001Z</time></trkpt><trkpt lat="41.8164691719423" lon="13.06276439780919"><ele>276.0</ele><time>2026-04-18T11:02:43.001Z</time></trkpt><trkpt lat="41.816360552408305" lon="13.06270063208207"><ele>276.0</ele><time>2026-04-18T11:02:45.001Z</time></trkpt><trkpt lat="41.81627729047626" lon="13.062617080490154"><ele>276.0</ele><time>2026-04-18T11:02:47.001Z</time></trkpt><trkpt lat="41.8162134560275" lon="13.062518352491159"><ele>276.0</ele><time>2026-04-18T11:02:49.001Z</time></trkpt><trkpt lat="41.81617058685759" lon="13.062455188583488"><ele>276.0</ele><time>2026-04-18T11:02:50.001Z</time></trkpt><trkpt lat="41.816069303002244" lon="13.062349984338024"><ele>276.0</ele><time>2026-04-18T11:02:52.001Z</time></trkpt><trkpt lat="41.81600605010695" lon="13.062295331882126"><ele>276.0</ele><time>2026-04-18T11:02:53Z</time></trkpt><trkpt lat="41.815929497547714" lon="13.06220147429488"><ele>276.0</ele><time>2026-04-18T11:02:55Z</time></trkpt><trkpt lat="41.8158869530434" lon="13.062117340304754"><ele>276.0</ele><time>2026-04-18T11:02:57Z</time></trkpt><trkpt lat="41.81582139031834" lon="13.06210863913525"><ele>276.0</ele><time>2026-04-18T11:02:59Z</time></trkpt><trkpt lat="41.81575786851884" lon="13.062204123538775"><ele>276.0</ele><time>2026-04-18T11:03:01Z</time></trkpt><trkpt lat="41.815699420358" lon="13.062335667121799"><ele>276.1666666666667</ele><time>2026-04-18T11:03:03Z</time></trkpt><trkpt lat="41.8156499783002" lon="13.06239255335796"><ele>276.3333333333333</ele><time>2026-04-18T11:03:04Z</time></trkpt><trkpt lat="41.81556342521239" lon="13.062454903985328"><ele>276.5</ele><time>2026-04-18T11:03:06Z</time></trkpt><trkpt lat="41.815475745227324" lon="13.06245936063608"><ele>276.66666666666663</ele><time>2026-04-18T11:03:08Z</time></trkpt><trkpt lat="41.815375335830964" lon="13.062478174373261"><ele>276.8333333333333</ele><time>2026-04-18T11:03:11Z</time></trkpt><trkpt lat="41.81530366976543" lon="13.062522083371935"><ele>277.0</ele><time>2026-04-18T11:03:13Z</time></trkpt><trkpt lat="41.815232381848" lon="13.062573609737331"><ele>277.0</ele><time>2026-04-18T11:03:15Z</time></trkpt><trkpt lat="41.81516890029405" lon="13.062644881677729"><ele>277.0</ele><time>2026-04-18T11:03:17Z</time></trkpt><trkpt lat="41.815079609009324" lon="13.06271351688657"><ele>277.0</ele><time>2026-04-18T11:03:19Z</time></trkpt><trkpt lat="41.81498190526867" lon="13.062809839241254"><ele>277.0</ele><time>2026-04-18T11:03:21Z</time></trkpt><trkpt lat="41.814867712048304" lon="13.062951525318597"><ele>277.66666666666663</ele><time>2026-04-18T11:03:23Z</time></trkpt><trkpt lat="41.814792323321065" lon="13.06298716182072"><ele>278.3333333333333</ele><time>2026-04-18T11:03:26Z</time></trkpt><trkpt lat="41.81473641315671" lon="13.063056743380296"><ele>279.0</ele><time>2026-04-18T11:03:28Z</time></trkpt><trkpt lat="41.81467895821931" lon="13.063128281493226"><ele>279.6666666666667</ele><time>2026-04-18T11:03:30Z</time></trkpt><trkpt lat="41.814642931594925" lon="13.063213416093232"><ele>280.33333333333337</ele><time>2026-04-18T11:03:32Z</time></trkpt><trkpt lat="41.814621318338325" lon="13.063337019924571"><ele>281.0</ele><time>2026-04-18T11:03:34Z</time></trkpt><trkpt lat="41.81456799446483" lon="13.063475408187097"><ele>282.40000000000003</ele><time>2026-04-18T11:03:36Z</time></trkpt><trkpt lat="41.81449637849359" lon="13.06357389404953"><ele>283.8</ele><time>2026-04-18T11:03:38Z</time></trkpt><trkpt lat="41.81441276972789" lon="13.063656834614415"><ele>285.20000000000005</ele><time>2026-04-18T11:03:40Z</time></trkpt><trkpt lat="41.81434120105995" lon="13.063755557340246"><ele>286.6</ele><time>2026-04-18T11:03:42Z</time></trkpt><trkpt lat="41.81427363712974" lon="13.063861445004626"><ele>288.0</ele><time>2026-04-18T11:03:44Z</time></trkpt><trkpt lat="41.814249306821054" lon="13.06395023459712"><ele>288.0</ele><time>2026-04-18T11:03:46Z</time></trkpt><trkpt lat="41.81425878483531" lon="13.064058613016467"><ele>288.0</ele><time>2026-04-18T11:03:48Z</time></trkpt><trkpt lat="41.814278641208304" lon="13.06414225373559"><ele>288.0</ele><time>2026-04-18T11:03:49Z</time></trkpt><trkpt lat="41.814323272375795" lon="13.064287431481983"><ele>288.0</ele><time>2026-04-18T11:03:51Z</time></trkpt><trkpt lat="41.81436933604918" lon="13.064419187636064"><ele>288.0</ele><time>2026-04-18T11:03:53Z</time></trkpt><trkpt lat="41.81442204750146" lon="13.064536684107363"><ele>290.25</ele><time>2026-04-18T11:03:55Z</time></trkpt><trkpt lat="41.8144848931292" lon="13.064670220100679"><ele>292.5</ele><time>2026-04-18T11:03:57Z</time></trkpt><trkpt lat="41.81453396350235" lon="13.06479310008495"><ele>294.75</ele><time>2026-04-18T11:03:59Z</time></trkpt><trkpt lat="41.81456076219998" lon="13.064959209235713"><ele>297.0</ele><time>2026-04-18T11:04:01Z</time></trkpt><trkpt lat="41.81459347718261" lon="13.065096048462477"><ele>298.8</ele><time>2026-04-18T11:04:03Z</time></trkpt><trkpt lat="41.81459613207595" lon="13.065233493434977"><ele>300.6</ele><time>2026-04-18T11:04:05Z</time></trkpt><trkpt lat="41.8145733446239" lon="13.065319205795115"><ele>302.40000000000003</ele><time>2026-04-18T11:04:06Z</time></trkpt><trkpt lat="41.81457357329747" lon="13.06544503991853"><ele>304.2</ele><time>2026-04-18T11:04:08Z</time></trkpt><trkpt lat="41.81455227794376" lon="13.065583220062523"><ele>306.0</ele><time>2026-04-18T11:04:10Z</time></trkpt><trkpt lat="41.814546748130084" lon="13.06571969790984"><ele>307.2</ele><time>2026-04-18T11:04:12Z</time></trkpt><trkpt lat="41.8145524696346" lon="13.065874501857474"><ele>308.40000000000003</ele><time>2026-04-18T11:04:14Z</time></trkpt><trkpt lat="41.81455005831016" lon="13.066015444437923"><ele>309.6</ele><time>2026-04-18T11:04:16Z</time></trkpt><trkpt lat="41.81454470753391" lon="13.066167751106352"><ele>310.8</ele><time>2026-04-18T11:04:18Z</time></trkpt><trkpt lat="41.8145766644423" lon="13.066295494573604"><ele>312.0</ele><time>2026-04-18T11:04:20Z</time></trkpt><trkpt lat="41.81457640306163" lon="13.066438111665844"><ele>312.0</ele><time>2026-04-18T11:04:22Z</time></trkpt><trkpt lat="41.81454275243446" lon="13.066553753930695"><ele>312.0</ele><time>2026-04-18T11:04:24Z</time></trkpt><trkpt lat="41.81445529293236" lon="13.066638061071343"><ele>312.0</ele><time>2026-04-18T11:04:26Z</time></trkpt><trkpt lat="41.814377209742325" lon="13.066737032633336"><ele>312.0</ele><time>2026-04-18T11:04:28Z</time></trkpt><trkpt lat="41.814319007376014" lon="13.066839711952328"><ele>312.0</ele><time>2026-04-18T11:04:30Z</time></trkpt><trkpt lat="41.814248801205835" lon="13.066949421287804"><ele>316.0</ele><time>2026-04-18T11:04:32Z</time></trkpt><trkpt lat="41.81418048124487" lon="13.067056886676442"><ele>320.0</ele><time>2026-04-18T11:04:34Z</time></trkpt><trkpt lat="41.81409884750427" lon="13.067150380580358"><ele>324.0</ele><time>2026-04-18T11:04:36Z</time></trkpt><trkpt lat="41.81398914696786" lon="13.067203402606307"><ele>328.0</ele><time>2026-04-18T11:04:38Z</time></trkpt><trkpt lat="41.81387759290299" lon="13.06724586978555"><ele>332.0</ele><time>2026-04-18T11:04:40Z</time></trkpt><trkpt lat="41.813790612590275" lon="13.067349456975306"><ele>332.0</ele><time>2026-04-18T11:04:42Z</time></trkpt><trkpt lat="41.81373616387064" lon="13.067393718123416"><ele>332.0</ele><time>2026-04-18T11:04:43Z</time></trkpt><trkpt lat="41.81364463490314" lon="13.067483813743923"><ele>332.0</ele><time>2026-04-18T11:04:45Z</time></trkpt><trkpt lat="41.81354187995646" lon="13.06754707292412"><ele>332.0</ele><time>2026-04-18T11:04:47Z</time></trkpt><trkpt lat="41.81343524202022" lon="13.067599292964555"><ele>332.0</ele><time>2026-04-18T11:04:49Z</time></trkpt><trkpt lat="41.81331776206602" lon="13.067675323733555"><ele>332.5</ele><time>2026-04-18T11:04:51Z</time></trkpt><trkpt lat="41.81325054479208" lon="13.067707315684999"><ele>333.0</ele><time>2026-04-18T11:04:52Z</time></trkpt><trkpt lat="41.81318861688983" lon="13.067732633807838"><ele>333.5</ele><time>2026-04-18T11:04:53Z</time></trkpt><trkpt lat="41.81312361544823" lon="13.067750628199397"><ele>334.0</ele><time>2026-04-18T11:04:54Z</time></trkpt><trkpt lat="41.81301491634853" lon="13.067802932594237"><ele>334.5</ele><time>2026-04-18T11:04:56Z</time></trkpt><trkpt lat="41.812967955455036" lon="13.067864260391225"><ele>335.0</ele><time>2026-04-18T11:04:57Z</time></trkpt><trkpt lat="41.81293473187726" lon="13.067940960189775"><ele>334.99999999999994</ele><time>2026-04-18T11:04:58Z</time></trkpt><trkpt lat="41.81289383597268" lon="13.068015460776694"><ele>335.0</ele><time>2026-04-18T11:04:59Z</time></trkpt><trkpt lat="41.81284255518198" lon="13.068081758945995"><ele>335.0</ele><time>2026-04-18T11:05:00Z</time></trkpt><trkpt lat="41.812788631056435" lon="13.068140850085326"><ele>335.0</ele><time>2026-04-18T11:05:01Z</time></trkpt><trkpt lat="41.81273647661106" lon="13.068191364222793"><ele>335.0</ele><time>2026-04-18T11:05:02Z</time></trkpt><trkpt lat="41.81268257671924" lon="13.068240494858456"><ele>334.99999999999994</ele><time>2026-04-18T11:05:03Z</time></trkpt><trkpt lat="41.81262567494625" lon="13.06828144675563"><ele>335.0</ele><time>2026-04-18T11:05:04Z</time></trkpt><trkpt lat="41.81250505906155" lon="13.06831636917137"><ele>336.33333333333337</ele><time>2026-04-18T11:05:06Z</time></trkpt><trkpt lat="41.81243280330752" lon="13.06832916992948"><ele>337.6666666666667</ele><time>2026-04-18T11:05:07Z</time></trkpt><trkpt lat="41.81235658542452" lon="13.068349874998253"><ele>339.0</ele><time>2026-04-18T11:05:08Z</time></trkpt><trkpt lat="41.81227424943721" lon="13.068387792454828"><ele>340.3333333333333</ele><time>2026-04-18T11:05:09Z</time></trkpt><trkpt lat="41.81220388477727" lon="13.068445426977112"><ele>341.66666666666663</ele><time>2026-04-18T11:05:10Z</time></trkpt><trkpt lat="41.812127072571144" lon="13.068504101808212"><ele>343.0</ele><time>2026-04-18T11:05:11Z</time></trkpt><trkpt lat="41.81205661358408" lon="13.068532878422369"><ele>343.0</ele><time>2026-04-18T11:05:12Z</time></trkpt><trkpt lat="41.81198268315461" lon="13.068552165150507"><ele>343.0</ele><time>2026-04-18T11:05:13Z</time></trkpt><trkpt lat="41.81191381341359" lon="13.068573426753602"><ele>343.0</ele><time>2026-04-18T11:05:14Z</time></trkpt><trkpt lat="41.81179811063154" lon="13.068623591538277"><ele>343.0</ele><time>2026-04-18T11:05:16Z</time></trkpt><trkpt lat="41.8116947055468" lon="13.06871994652531"><ele>343.0</ele><time>2026-04-18T11:05:18Z</time></trkpt><trkpt lat="41.8116252855634" lon="13.06885772122612"><ele>344.59999999999997</ele><time>2026-04-18T11:05:20Z</time></trkpt><trkpt lat="41.811557340191904" lon="13.06898374734988"><ele>346.2</ele><time>2026-04-18T11:05:22Z</time></trkpt><trkpt lat="41.81148092687882" lon="13.069117407954296"><ele>347.8</ele><time>2026-04-18T11:05:24Z</time></trkpt><trkpt lat="41.81143453221504" lon="13.069178124138416"><ele>349.4</ele><time>2026-04-18T11:05:25Z</time></trkpt><trkpt lat="41.81134178085326" lon="13.069285981275314"><ele>351.0</ele><time>2026-04-18T11:05:27Z</time></trkpt><trkpt lat="41.81122118925119" lon="13.069366808841218"><ele>353.20000000000005</ele><time>2026-04-18T11:05:29Z</time></trkpt><trkpt lat="41.811108650548015" lon="13.069427563957014"><ele>355.40000000000003</ele><time>2026-04-18T11:05:31Z</time></trkpt><trkpt lat="41.811059881817975" lon="13.069484327339552"><ele>357.6</ele><time>2026-04-18T11:05:32Z</time></trkpt><trkpt lat="41.81101785939577" lon="13.069550479723075"><ele>359.8</ele><time>2026-04-18T11:05:33Z</time></trkpt><trkpt lat="41.81091641718058" lon="13.069632441943515"><ele>362.0</ele><time>2026-04-18T11:05:35Z</time></trkpt><trkpt lat="41.810816368927874" lon="13.069696712748044"><ele>364.8</ele><time>2026-04-18T11:05:37Z</time></trkpt><trkpt lat="41.810725801111126" lon="13.069764934605601"><ele>367.6</ele><time>2026-04-18T11:05:39Z</time></trkpt><trkpt lat="41.81062580657289" lon="13.069880562431345"><ele>370.40000000000003</ele><time>2026-04-18T11:05:41Z</time></trkpt><trkpt lat="41.81056549050689" lon="13.069930111260907"><ele>373.20000000000005</ele><time>2026-04-18T11:05:42Z</time></trkpt><trkpt lat="41.810501406283656" lon="13.069979461688966"><ele>376.0</ele><time>2026-04-18T11:05:43Z</time></trkpt><trkpt lat="41.81044422853807" lon="13.07004291266369"><ele>376.0</ele><time>2026-04-18T11:05:44Z</time></trkpt><trkpt lat="41.81039183117793" lon="13.070092590178698"><ele>376.0</ele><time>2026-04-18T11:05:45Z</time></trkpt><trkpt lat="41.81034010146792" lon="13.070143293671633"><ele>376.0</ele><time>2026-04-18T11:05:46Z</time></trkpt><trkpt lat="41.81029210894666" lon="13.070199545669213"><ele>376.0</ele><time>2026-04-18T11:05:47Z</time></trkpt><trkpt lat="41.81021087235485" lon="13.070327875445573"><ele>376.0</ele><time>2026-04-18T11:05:49Z</time></trkpt><trkpt lat="41.8101291911237" lon="13.070420494289303"><ele>376.0</ele><time>2026-04-18T11:05:51Z</time></trkpt><trkpt lat="41.81002456936843" lon="13.070475806753189"><ele>383.0</ele><time>2026-04-18T11:05:53Z</time></trkpt><trkpt lat="41.80991951291549" lon="13.070507502079328"><ele>390.0</ele><time>2026-04-18T11:05:55Z</time></trkpt><trkpt lat="41.80983032572619" lon="13.070604122890092"><ele>397.0</ele><time>2026-04-18T11:05:57Z</time></trkpt><trkpt lat="41.809740066040476" lon="13.070683569777763"><ele>404.0</ele><time>2026-04-18T11:05:59Z</time></trkpt><trkpt lat="41.80963835137613" lon="13.070774983815076"><ele>404.0</ele><time>2026-04-18T11:06:01Z</time></trkpt><trkpt lat="41.8095435023177" lon="13.070850656766654"><ele>404.0</ele><time>2026-04-18T11:06:03Z</time></trkpt><trkpt lat="41.809475945835814" lon="13.070959570254635"><ele>404.0</ele><time>2026-04-18T11:06:05Z</time></trkpt><trkpt lat="41.80938027681763" lon="13.071036248215204"><ele>404.0</ele><time>2026-04-18T11:06:07Z</time></trkpt><trkpt lat="41.80927344302926" lon="13.071051739408487"><ele>404.0</ele><time>2026-04-18T11:06:09Z</time></trkpt><trkpt lat="41.80921456525274" lon="13.07100019924501"><ele>403.99999999999994</ele><time>2026-04-18T11:06:28Z</time></trkpt><trkpt lat="41.809250882074835" lon="13.070913563395473"><ele>404.0</ele><time>2026-04-18T11:06:31Z</time></trkpt><trkpt lat="41.80933030215757" lon="13.07086527944731"><ele>404.0</ele><time>2026-04-18T11:06:33Z</time></trkpt><trkpt lat="41.80935975674327" lon="13.070764541023083"><ele>404.0</ele><time>2026-04-18T11:06:35Z</time></trkpt><trkpt lat="41.80930931489684" lon="13.070670931594663"><ele>403.99999999999994</ele><time>2026-04-18T11:06:37Z</time></trkpt><trkpt lat="41.80927444797701" lon="13.070566813394011"><ele>404.0</ele><time>2026-04-18T11:06:39Z</time></trkpt><trkpt lat="41.80925662496563" lon="13.07044531185733"><ele>408.6</ele><time>2026-04-18T11:06:41Z</time></trkpt><trkpt lat="41.80923846730674" lon="13.07032158197653"><ele>413.2</ele><time>2026-04-18T11:06:43Z</time></trkpt><trkpt lat="41.809224553132026" lon="13.07019486451318"><ele>417.80000000000007</ele><time>2026-04-18T11:06:45Z</time></trkpt><trkpt lat="41.80918974386381" lon="13.070061530914083"><ele>422.40000000000003</ele><time>2026-04-18T11:06:47Z</time></trkpt><trkpt lat="41.80914796892331" lon="13.069916164461944"><ele>427.0</ele><time>2026-04-18T11:06:49Z</time></trkpt><trkpt lat="41.80913105023225" lon="13.069831933788512"><ele>427.00000000000006</ele><time>2026-04-18T11:06:50Z</time></trkpt><trkpt lat="41.809122650083914" lon="13.069746284130463"><ele>427.0</ele><time>2026-04-18T11:06:51Z</time></trkpt><trkpt lat="41.80910184102027" lon="13.069584541078068"><ele>427.0</ele><time>2026-04-18T11:06:53Z</time></trkpt><trkpt lat="41.80908674039932" lon="13.069501483462094"><ele>427.0</ele><time>2026-04-18T11:06:54Z</time></trkpt><trkpt lat="41.80906123973009" lon="13.069379135799679"><ele>427.00000000000006</ele><time>2026-04-18T11:06:56Z</time></trkpt><trkpt lat="41.80904081960546" lon="13.069280933146946"><ele>427.0</ele><time>2026-04-18T11:06:58Z</time></trkpt><trkpt lat="41.80901021097754" lon="13.069186565953853"><ele>425.1666666666667</ele><time>2026-04-18T11:07:00Z</time></trkpt><trkpt lat="41.8089525216474" lon="13.069086701108183"><ele>423.33333333333337</ele><time>2026-04-18T11:07:02Z</time></trkpt><trkpt lat="41.80889584330288" lon="13.068987518053383"><ele>421.5</ele><time>2026-04-18T11:07:04Z</time></trkpt><trkpt lat="41.808856274958956" lon="13.068896444116298"><ele>419.66666666666663</ele><time>2026-04-18T11:07:06Z</time></trkpt><trkpt lat="41.808772515955795" lon="13.068846137709546"><ele>417.8333333333333</ele><time>2026-04-18T11:07:08Z</time></trkpt><trkpt lat="41.808695381007155" lon="13.068817712243218"><ele>416.0</ele><time>2026-04-18T11:07:15Z</time></trkpt><trkpt lat="41.80860679355885" lon="13.06878206200433"><ele>416.0</ele><time>2026-04-18T11:07:17Z</time></trkpt><trkpt lat="41.80853878497744" lon="13.068705607876444"><ele>416.0</ele><time>2026-04-18T11:07:19Z</time></trkpt><trkpt lat="41.80848226173523" lon="13.068585849915076"><ele>416.0</ele><time>2026-04-18T11:07:21Z</time></trkpt><trkpt lat="41.8084570800437" lon="13.068451343760332"><ele>416.0</ele><time>2026-04-18T11:07:23Z</time></trkpt><trkpt lat="41.8084374878286" lon="13.068305498442536"><ele>416.0</ele><time>2026-04-18T11:07:25Z</time></trkpt><trkpt lat="41.80841659175658" lon="13.068205880441853"><ele>418.0</ele><time>2026-04-18T11:07:27Z</time></trkpt><trkpt lat="41.80838465001284" lon="13.068122481096674"><ele>420.0</ele><time>2026-04-18T11:07:29Z</time></trkpt><trkpt lat="41.80834664552971" lon="13.0680542814957"><ele>422.0</ele><time>2026-04-18T11:07:31Z</time></trkpt><trkpt lat="41.80830923933674" lon="13.067954613922584"><ele>424.0</ele><time>2026-04-18T11:07:34Z</time></trkpt><trkpt lat="41.808310633910395" lon="13.067859847785837"><ele>426.0</ele><time>2026-04-18T11:07:38Z</time></trkpt><trkpt lat="41.80831070622053" lon="13.067773725623994"><ele>428.0</ele><time>2026-04-18T11:07:40Z</time></trkpt><trkpt lat="41.80831128061099" lon="13.067651079046318"><ele>430.0</ele><time>2026-04-18T11:07:42Z</time></trkpt><trkpt lat="41.80830688994376" lon="13.06751675511428"><ele>429.1666666666667</ele><time>2026-04-18T11:07:44Z</time></trkpt><trkpt lat="41.80828758252536" lon="13.06739428272127"><ele>428.33333333333337</ele><time>2026-04-18T11:07:46Z</time></trkpt><trkpt lat="41.80826080132577" lon="13.067265596892787"><ele>427.5</ele><time>2026-04-18T11:07:48Z</time></trkpt><trkpt lat="41.8082458958765" lon="13.067179552682749"><ele>426.66666666666663</ele><time>2026-04-18T11:07:50Z</time></trkpt><trkpt lat="41.80822160876218" lon="13.067094345112483"><ele>425.8333333333333</ele><time>2026-04-18T11:07:52Z</time></trkpt><trkpt lat="41.80816723444186" lon="13.06696536422799"><ele>425.0</ele><time>2026-04-18T11:07:54Z</time></trkpt><trkpt lat="41.808138351826784" lon="13.066882265713247"><ele>424.99999999999994</ele><time>2026-04-18T11:07:55Z</time></trkpt><trkpt lat="41.80810566417986" lon="13.066791920440304"><ele>425.0</ele><time>2026-04-18T11:07:56Z</time></trkpt><trkpt lat="41.80806898641876" lon="13.066695718221501"><ele>425.0</ele><time>2026-04-18T11:07:57Z</time></trkpt><trkpt lat="41.80802450962186" lon="13.066595813902044"><ele>425.0</ele><time>2026-04-18T11:07:58Z</time></trkpt><trkpt lat="41.80797713273159" lon="13.066491819778383"><ele>424.99999999999994</ele><time>2026-04-18T11:07:59Z</time></trkpt><trkpt lat="41.8079349375601" lon="13.066393398521376"><ele>425.0</ele><time>2026-04-18T11:08:00Z</time></trkpt><trkpt lat="41.807892264028716" lon="13.066295814489772"><ele>422.3333333333333</ele><time>2026-04-18T11:08:01Z</time></trkpt><trkpt lat="41.807858664601035" lon="13.066191850689144"><ele>419.66666666666663</ele><time>2026-04-18T11:08:02Z</time></trkpt><trkpt lat="41.80781505710757" lon="13.066087305627752"><ele>417.0</ele><time>2026-04-18T11:08:03Z</time></trkpt><trkpt lat="41.807777679746785" lon="13.065996068717855"><ele>414.33333333333337</ele><time>2026-04-18T11:08:04Z</time></trkpt><trkpt lat="41.80774167662453" lon="13.065919692624885"><ele>411.6666666666667</ele><time>2026-04-18T11:08:05Z</time></trkpt><trkpt lat="41.807705047583106" lon="13.065764496050807"><ele>409.0</ele><time>2026-04-18T11:08:07Z</time></trkpt><trkpt lat="41.807684014240934" lon="13.065684618466634"><ele>406.6</ele><time>2026-04-18T11:08:08Z</time></trkpt><trkpt lat="41.80766100019106" lon="13.065551177384867"><ele>404.2</ele><time>2026-04-18T11:08:10Z</time></trkpt><trkpt lat="41.8076332289246" lon="13.065422148449219"><ele>401.8</ele><time>2026-04-18T11:08:12Z</time></trkpt><trkpt lat="41.80760762519042" lon="13.065300082727946"><ele>399.40000000000003</ele><time>2026-04-18T11:08:14Z</time></trkpt><trkpt lat="41.8075678515835" lon="13.065200602024625"><ele>397.0</ele><time>2026-04-18T11:08:17Z</time></trkpt><trkpt lat="41.80752435802647" lon="13.065108591103417"><ele>398.25</ele><time>2026-04-18T11:08:19Z</time></trkpt><trkpt lat="41.807449231252605" lon="13.065015894839782"><ele>399.5</ele><time>2026-04-18T11:08:21Z</time></trkpt><trkpt lat="41.80734122520101" lon="13.06493871906984"><ele>400.75</ele><time>2026-04-18T11:08:23Z</time></trkpt><trkpt lat="41.80724107211081" lon="13.064877459036099"><ele>402.0</ele><time>2026-04-18T11:08:25Z</time></trkpt><trkpt lat="41.807134268492696" lon="13.064814570754187"><ele>402.0</ele><time>2026-04-18T11:08:27Z</time></trkpt><trkpt lat="41.80704972738697" lon="13.064707021570245"><ele>402.0</ele><time>2026-04-18T11:08:29Z</time></trkpt><trkpt lat="41.806995194873004" lon="13.064661377042116"><ele>402.0</ele><time>2026-04-18T11:08:30Z</time></trkpt><trkpt lat="41.8069712263938" lon="13.064573843014893"><ele>402.0</ele><time>2026-04-18T11:08:31Z</time></trkpt><trkpt lat="41.806931250124244" lon="13.06443437561836"><ele>402.0</ele><time>2026-04-18T11:08:33Z</time></trkpt><trkpt lat="41.80688200160625" lon="13.064274672644821"><ele>402.0</ele><time>2026-04-18T11:08:35Z</time></trkpt><trkpt lat="41.80688750394914" lon="13.064182261302285"><ele>402.0</ele><time>2026-04-18T11:08:36Z</time></trkpt><trkpt lat="41.806878854854226" lon="13.064091465069817"><ele>402.0</ele><time>2026-04-18T11:08:37Z</time></trkpt><trkpt lat="41.806862146381285" lon="13.063992107793197"><ele>402.0</ele><time>2026-04-18T11:08:38Z</time></trkpt><trkpt lat="41.80684593864843" lon="13.063897283931796"><ele>402.0</ele><time>2026-04-18T11:08:39Z</time></trkpt><trkpt lat="41.80682370787354" lon="13.06380058781199"><ele>402.0</ele><time>2026-04-18T11:08:40Z</time></trkpt><trkpt lat="41.80680832196963" lon="13.06369952722365"><ele>402.0</ele><time>2026-04-18T11:08:41Z</time></trkpt><trkpt lat="41.80679254431967" lon="13.06359616698789"><ele>402.8333333333333</ele><time>2026-04-18T11:08:42Z</time></trkpt><trkpt lat="41.806775788135276" lon="13.063499833421789"><ele>403.66666666666663</ele><time>2026-04-18T11:08:43Z</time></trkpt><trkpt lat="41.806761086797266" lon="13.063403935899323"><ele>404.5</ele><time>2026-04-18T11:08:44Z</time></trkpt><trkpt lat="41.806751335990725" lon="13.063309277582983"><ele>405.3333333333333</ele><time>2026-04-18T11:08:45Z</time></trkpt><trkpt lat="41.80672582742315" lon="13.06322470733434"><ele>406.16666666666663</ele><time>2026-04-18T11:08:46Z</time></trkpt><trkpt lat="41.80665902295265" lon="13.063087347561261"><ele>407.0</ele><time>2026-04-18T11:08:48Z</time></trkpt><trkpt lat="41.80661881207934" lon="13.06302018057635"><ele>404.8571428571429</ele><time>2026-04-18T11:08:49Z</time></trkpt><trkpt lat="41.806561347925964" lon="13.06297784071087"><ele>402.7142857142857</ele><time>2026-04-18T11:08:50Z</time></trkpt><trkpt lat="41.80649383314792" lon="13.06293526798781"><ele>400.57142857142856</ele><time>2026-04-18T11:08:51Z</time></trkpt><trkpt lat="41.80642962459958" lon="13.062888175205956"><ele>398.42857142857144</ele><time>2026-04-18T11:08:52Z</time></trkpt><trkpt lat="41.80639314498241" lon="13.06281379628316"><ele>396.2857142857143</ele><time>2026-04-18T11:08:53Z</time></trkpt><trkpt lat="41.80634314918038" lon="13.062758599655591"><ele>394.14285714285717</ele><time>2026-04-18T11:08:54Z</time></trkpt><trkpt lat="41.806299455291104" lon="13.062638516889908"><ele>392.0</ele><time>2026-04-18T11:08:56Z</time></trkpt><trkpt lat="41.80625951719976" lon="13.062553101862088"><ele>393.49999999999994</ele><time>2026-04-18T11:08:58Z</time></trkpt><trkpt lat="41.80625814386412" lon="13.062415948452768"><ele>395.0</ele><time>2026-04-18T11:09:00Z</time></trkpt><trkpt lat="41.8062659336021" lon="13.062326068623568"><ele>396.5</ele><time>2026-04-18T11:09:01Z</time></trkpt><trkpt lat="41.80627401034985" lon="13.062233087455683"><ele>398.0</ele><time>2026-04-18T11:09:02Z</time></trkpt><trkpt lat="41.80628243117695" lon="13.062137355912824"><ele>399.49999999999994</ele><time>2026-04-18T11:09:03Z</time></trkpt><trkpt lat="41.80628862243609" lon="13.061989649859658"><ele>401.0</ele><time>2026-04-18T11:09:05Z</time></trkpt><trkpt lat="41.806296804455194" lon="13.061875588854623"><ele>401.0</ele><time>2026-04-18T11:09:07Z</time></trkpt><trkpt lat="41.80629952765271" lon="13.061760737253543"><ele>401.0</ele><time>2026-04-18T11:09:09Z</time></trkpt><trkpt lat="41.806322262149436" lon="13.061589863190186"><ele>401.0</ele><time>2026-04-18T11:09:11Z</time></trkpt><trkpt lat="41.806336081236736" lon="13.061474386371808"><ele>401.0</ele><time>2026-04-18T11:09:12Z</time></trkpt><trkpt lat="41.806359366233785" lon="13.061365727185292"><ele>401.0</ele><time>2026-04-18T11:09:13Z</time></trkpt><trkpt lat="41.80638657832818" lon="13.061227655269303"><ele>402.8333333333333</ele><time>2026-04-18T11:09:14Z</time></trkpt><trkpt lat="41.806407241139006" lon="13.061097508140396"><ele>404.66666666666663</ele><time>2026-04-18T11:09:15Z</time></trkpt><trkpt lat="41.806411087209746" lon="13.060982089702904"><ele>406.5</ele><time>2026-04-18T11:09:16Z</time></trkpt><trkpt lat="41.80642396420312" lon="13.060873498031542"><ele>408.33333333333337</ele><time>2026-04-18T11:09:17Z</time></trkpt><trkpt lat="41.80643113505677" lon="13.06075328218138"><ele>410.1666666666667</ele><time>2026-04-18T11:09:18Z</time></trkpt><trkpt lat="41.80642168318119" lon="13.060636059579647"><ele>412.0</ele><time>2026-04-18T11:09:19Z</time></trkpt><trkpt lat="41.80640345332785" lon="13.060527512631872"><ele>414.0</ele><time>2026-04-18T11:09:20Z</time></trkpt><trkpt lat="41.80635799311969" lon="13.060427246603433"><ele>416.0</ele><time>2026-04-18T11:09:21Z</time></trkpt><trkpt lat="41.806309799132165" lon="13.060330265289094"><ele>418.0</ele><time>2026-04-18T11:09:22Z</time></trkpt><trkpt lat="41.80624030756097" lon="13.060249213178167"><ele>420.0</ele><time>2026-04-18T11:09:23Z</time></trkpt><trkpt lat="41.80617597943425" lon="13.06015467431507"><ele>422.0</ele><time>2026-04-18T11:09:24Z</time></trkpt><trkpt lat="41.8061187210112" lon="13.060065282461819"><ele>421.99999999999994</ele><time>2026-04-18T11:09:25Z</time></trkpt><trkpt lat="41.80605048689625" lon="13.059988730005236"><ele>422.0</ele><time>2026-04-18T11:09:26Z</time></trkpt><trkpt lat="41.80598020440333" lon="13.05991066778068"><ele>422.0</ele><time>2026-04-18T11:09:27Z</time></trkpt><trkpt lat="41.80589501551805" lon="13.059866057999733"><ele>422.0</ele><time>2026-04-18T11:09:28Z</time></trkpt><trkpt lat="41.80582669880846" lon="13.05982491156588"><ele>421.99999999999994</ele><time>2026-04-18T11:09:29Z</time></trkpt><trkpt lat="41.80576788631334" lon="13.059794407173648"><ele>422.0</ele><time>2026-04-18T11:09:30Z</time></trkpt><trkpt lat="41.805673774980086" lon="13.059739259139983"><ele>425.0</ele><time>2026-04-18T11:09:32Z</time></trkpt><trkpt lat="41.80558182185465" lon="13.059697436427149"><ele>428.0</ele><time>2026-04-18T11:09:34Z</time></trkpt><trkpt lat="41.80548156826128" lon="13.059683664804457"><ele>431.00000000000006</ele><time>2026-04-18T11:09:36Z</time></trkpt><trkpt lat="41.80537964716146" lon="13.059708922829367"><ele>434.0</ele><time>2026-04-18T11:09:38Z</time></trkpt><trkpt lat="41.80528319488661" lon="13.059733135240709"><ele>437.0</ele><time>2026-04-18T11:09:40Z</time></trkpt><trkpt lat="41.80518876004782" lon="13.059754217300847"><ele>433.66666666666663</ele><time>2026-04-18T11:09:42Z</time></trkpt><trkpt lat="41.805096653066784" lon="13.059758103882851"><ele>430.3333333333333</ele><time>2026-04-18T11:09:44Z</time></trkpt><trkpt lat="41.80500106649474" lon="13.059760869783627"><ele>427.0</ele><time>2026-04-18T11:09:46Z</time></trkpt><trkpt lat="41.804927836539576" lon="13.059745306620185"><ele>423.66666666666663</ele><time>2026-04-18T11:09:48Z</time></trkpt><trkpt lat="41.80487579380432" lon="13.059686701763336"><ele>420.3333333333333</ele><time>2026-04-18T11:09:50Z</time></trkpt><trkpt lat="41.804839960025944" lon="13.059607664698689"><ele>417.0</ele><time>2026-04-18T11:09:52Z</time></trkpt><trkpt lat="41.80483055686945" lon="13.059498782968692"><ele>417.0</ele><time>2026-04-18T11:09:54Z</time></trkpt><trkpt lat="41.804853884225416" lon="13.059396759169388"><ele>417.0</ele><time>2026-04-18T11:09:56Z</time></trkpt><trkpt lat="41.80489485306257" lon="13.059306287632513"><ele>417.0</ele><time>2026-04-18T11:09:58Z</time></trkpt><trkpt lat="41.804952044662556" lon="13.059242556851494"><ele>417.0</ele><time>2026-04-18T11:10:00Z</time></trkpt><trkpt lat="41.80503890564508" lon="13.05919141751021"><ele>417.0</ele><time>2026-04-18T11:10:02Z</time></trkpt><trkpt lat="41.80512643215852" lon="13.059109068592193"><ele>417.0</ele><time>2026-04-18T11:10:04Z</time></trkpt><trkpt lat="41.80518876436299" lon="13.05906156637704"><ele>419.0</ele><time>2026-04-18T11:10:05Z</time></trkpt><trkpt lat="41.805245435675275" lon="13.058993850726779"><ele>421.0</ele><time>2026-04-18T11:10:06Z</time></trkpt><trkpt lat="41.80529000264836" lon="13.058930667249529"><ele>423.0</ele><time>2026-04-18T11:10:07Z</time></trkpt><trkpt lat="41.805325417832215" lon="13.058853906837419"><ele>425.0</ele><time>2026-04-18T11:10:08Z</time></trkpt><trkpt lat="41.80535631739898" lon="13.058760169813372"><ele>427.0</ele><time>2026-04-18T11:10:09Z</time></trkpt><trkpt lat="41.80537386581466" lon="13.058667643338907"><ele>429.0</ele><time>2026-04-18T11:10:10Z</time></trkpt><trkpt lat="41.80539926520783" lon="13.058527984093562"><ele>429.0</ele><time>2026-04-18T11:10:12Z</time></trkpt><trkpt lat="41.80545257679015" lon="13.058374893056737"><ele>429.0</ele><time>2026-04-18T11:10:14Z</time></trkpt><trkpt lat="41.80550290967197" lon="13.058306111076346"><ele>429.0</ele><time>2026-04-18T11:10:15Z</time></trkpt><trkpt lat="41.80555336210395" lon="13.058238307298943"><ele>429.0</ele><time>2026-04-18T11:10:16Z</time></trkpt><trkpt lat="41.8056018167287" lon="13.058174097365843"><ele>429.0</ele><time>2026-04-18T11:10:17Z</time></trkpt><trkpt lat="41.805614442766" lon="13.05808356851943"><ele>429.0</ele><time>2026-04-18T11:10:18Z</time></trkpt><trkpt lat="41.80563967123975" lon="13.057916103121308"><ele>428.42857142857144</ele><time>2026-04-18T11:10:20Z</time></trkpt><trkpt lat="41.80564728883258" lon="13.05782495566973"><ele>427.8571428571429</ele><time>2026-04-18T11:10:21Z</time></trkpt><trkpt lat="41.80565854674007" lon="13.057732765847842"><ele>427.2857142857143</ele><time>2026-04-18T11:10:22Z</time></trkpt><trkpt lat="41.805674853933624" lon="13.057643896774913"><ele>426.7142857142857</ele><time>2026-04-18T11:10:23Z</time></trkpt><trkpt lat="41.80572612926046" lon="13.05756225094298"><ele>426.1428571428571</ele><time>2026-04-18T11:10:24Z</time></trkpt><trkpt lat="41.805756444823594" lon="13.057475230369807"><ele>425.57142857142856</ele><time>2026-04-18T11:10:25Z</time></trkpt><trkpt lat="41.80579343175898" lon="13.057394184935559"><ele>425.0</ele><time>2026-04-18T11:10:26Z</time></trkpt><trkpt lat="41.80582766422019" lon="13.0573166594076"><ele>425.0</ele><time>2026-04-18T11:10:27Z</time></trkpt><trkpt lat="41.805858094980444" lon="13.057235845923644"><ele>425.0</ele><time>2026-04-18T11:10:28Z</time></trkpt><trkpt lat="41.805887523294444" lon="13.05715479254168"><ele>425.0</ele><time>2026-04-18T11:10:29Z</time></trkpt><trkpt lat="41.80590366522737" lon="13.05706202020148"><ele>425.0</ele><time>2026-04-18T11:10:30Z</time></trkpt><trkpt lat="41.80587999640492" lon="13.0569645011112"><ele>425.0</ele><time>2026-04-18T11:10:31Z</time></trkpt><trkpt lat="41.80587253448905" lon="13.056878251319768"><ele>425.0</ele><time>2026-04-18T11:10:32Z</time></trkpt><trkpt lat="41.80585201528662" lon="13.056785027440887"><ele>425.0</ele><time>2026-04-18T11:10:33Z</time></trkpt><trkpt lat="41.8058253915352" lon="13.056703829660384"><ele>427.2857142857143</ele><time>2026-04-18T11:10:34Z</time></trkpt><trkpt lat="41.80579754513969" lon="13.056612197619215"><ele>429.57142857142856</ele><time>2026-04-18T11:10:35Z</time></trkpt><trkpt lat="41.80576857851493" lon="13.05651781847683"><ele>431.8571428571429</ele><time>2026-04-18T11:10:36Z</time></trkpt><trkpt lat="41.80574479579873" lon="13.056425615303269"><ele>434.1428571428571</ele><time>2026-04-18T11:10:37Z</time></trkpt><trkpt lat="41.8057184704055" lon="13.056328510515925"><ele>436.42857142857144</ele><time>2026-04-18T11:10:38Z</time></trkpt><trkpt lat="41.80569093011556" lon="13.056238036407583"><ele>438.7142857142857</ele><time>2026-04-18T11:10:39Z</time></trkpt><trkpt lat="41.80565594870203" lon="13.056154826656975"><ele>441.0</ele><time>2026-04-18T11:10:40Z</time></trkpt><trkpt lat="41.805626897401694" lon="13.056061623976587"><ele>441.0</ele><time>2026-04-18T11:10:41Z</time></trkpt><trkpt lat="41.80557568354375" lon="13.055987921529766"><ele>441.0</ele><time>2026-04-18T11:10:42Z</time></trkpt><trkpt lat="41.8054874702688" lon="13.055879115007919"><ele>441.0</ele><time>2026-04-18T11:10:44Z</time></trkpt><trkpt lat="41.805363915912686" lon="13.055857335655002"><ele>441.0</ele><time>2026-04-18T11:10:46Z</time></trkpt><trkpt lat="41.805301924195966" lon="13.055826835612667"><ele>441.0</ele><time>2026-04-18T11:10:47Z</time></trkpt><trkpt lat="41.80518244175458" lon="13.05582376510232"><ele>438.4</ele><time>2026-04-18T11:10:49Z</time></trkpt><trkpt lat="41.805055497701" lon="13.05579628729454"><ele>435.8</ele><time>2026-04-18T11:10:51Z</time></trkpt><trkpt lat="41.80493784408013" lon="13.055782776127861"><ele>433.19999999999993</ele><time>2026-04-18T11:10:53Z</time></trkpt><trkpt lat="41.80487177221223" lon="13.055777273581434"><ele>430.59999999999997</ele><time>2026-04-18T11:10:54Z</time></trkpt><trkpt lat="41.8048004696073" lon="13.055765000318065"><ele>428.0</ele><time>2026-04-18T11:10:55Z</time></trkpt><trkpt lat="41.80473119879067" lon="13.055748990016367"><ele>428.0</ele><time>2026-04-18T11:10:56Z</time></trkpt><trkpt lat="41.804666214125334" lon="13.05573063304251"><ele>427.99999999999994</ele><time>2026-04-18T11:10:57Z</time></trkpt><trkpt lat="41.80455440973355" lon="13.055690624643272"><ele>427.99999999999994</ele><time>2026-04-18T11:10:59Z</time></trkpt><trkpt lat="41.80445489733975" lon="13.055621528835399"><ele>428.0</ele><time>2026-04-18T11:11:01Z</time></trkpt><trkpt lat="41.8043872418657" lon="13.055506365270606"><ele>428.0</ele><time>2026-04-18T11:11:03Z</time></trkpt><trkpt lat="41.80437833849292" lon="13.055325315852395"><ele>427.99999999999994</ele><time>2026-04-18T11:11:05Z</time></trkpt><trkpt lat="41.80442334887646" lon="13.05515979647755"><ele>428.0</ele><time>2026-04-18T11:11:07Z</time></trkpt><trkpt lat="41.804460389264825" lon="13.055083797891175"><ele>428.0</ele><time>2026-04-18T11:11:08Z</time></trkpt><trkpt lat="41.804506207784236" lon="13.055018623401185"><ele>428.0</ele><time>2026-04-18T11:11:09Z</time></trkpt><trkpt lat="41.80456629465314" lon="13.0549616683866"><ele>427.99999999999994</ele><time>2026-04-18T11:11:10Z</time></trkpt><trkpt lat="41.804636739472855" lon="13.054917999795506"><ele>428.0</ele><time>2026-04-18T11:11:11Z</time></trkpt><trkpt lat="41.8047074402251" lon="13.054884988624227"><ele>423.49999999999994</ele><time>2026-04-18T11:11:12Z</time></trkpt><trkpt lat="41.80477426053507" lon="13.054850233650809"><ele>419.0</ele><time>2026-04-18T11:11:13Z</time></trkpt><trkpt lat="41.80484209343045" lon="13.054827514469078"><ele>414.5</ele><time>2026-04-18T11:11:14Z</time></trkpt><trkpt lat="41.80491296637039" lon="13.054830313207495"><ele>410.0</ele><time>2026-04-18T11:11:15Z</time></trkpt><trkpt lat="41.804986789248154" lon="13.05483785636202"><ele>405.49999999999994</ele><time>2026-04-18T11:11:16Z</time></trkpt><trkpt lat="41.80506057357949" lon="13.05483300448064"><ele>401.0</ele><time>2026-04-18T11:11:17Z</time></trkpt><trkpt lat="41.805150488411854" lon="13.054846696813984"><ele>404.16666666666663</ele><time>2026-04-18T11:11:18Z</time></trkpt><trkpt lat="41.80524106257541" lon="13.054853696743201"><ele>407.3333333333333</ele><time>2026-04-18T11:11:19Z</time></trkpt><trkpt lat="41.805313021835595" lon="13.054854974886593"><ele>410.5</ele><time>2026-04-18T11:11:20Z</time></trkpt><trkpt lat="41.805381471367625" lon="13.054851146246781"><ele>413.66666666666663</ele><time>2026-04-18T11:11:21Z</time></trkpt><trkpt lat="41.80548736453895" lon="13.054799530056396"><ele>416.8333333333333</ele><time>2026-04-18T11:11:23Z</time></trkpt><trkpt lat="41.80553390601781" lon="13.05472781089798"><ele>420.0</ele><time>2026-04-18T11:11:24Z</time></trkpt><trkpt lat="41.805615792981506" lon="13.054698668669815"><ele>420.0</ele><time>2026-04-18T11:11:25Z</time></trkpt><trkpt lat="41.80566982087792" lon="13.05460661376261"><ele>420.0</ele><time>2026-04-18T11:11:26Z</time></trkpt><trkpt lat="41.80572482996004" lon="13.054524268291935"><ele>420.0</ele><time>2026-04-18T11:11:27Z</time></trkpt><trkpt lat="41.80577705257959" lon="13.054435038074399"><ele>420.0</ele><time>2026-04-18T11:11:28Z</time></trkpt><trkpt lat="41.8058187871099" lon="13.054333096731858"><ele>420.0</ele><time>2026-04-18T11:11:29Z</time></trkpt><trkpt lat="41.80585737376411" lon="13.054249060320391"><ele>420.0</ele><time>2026-04-18T11:11:30Z</time></trkpt><trkpt lat="41.805919167386925" lon="13.054187659161018"><ele>420.0</ele><time>2026-04-18T11:11:31Z</time></trkpt><trkpt lat="41.805984464283355" lon="13.05413928766399"><ele>420.0</ele><time>2026-04-18T11:11:32Z</time></trkpt><trkpt lat="41.80602809771747" lon="13.05406372957194"><ele>420.0</ele><time>2026-04-18T11:11:33Z</time></trkpt><trkpt lat="41.80604441006498" lon="13.053958290040907"><ele>420.0</ele><time>2026-04-18T11:11:34Z</time></trkpt><trkpt lat="41.80606948478703" lon="13.053824407598754"><ele>420.0</ele><time>2026-04-18T11:11:35Z</time></trkpt><trkpt lat="41.806116304793875" lon="13.053708571164243"><ele>420.0</ele><time>2026-04-18T11:11:36Z</time></trkpt><trkpt lat="41.806170852864334" lon="13.053596803937948"><ele>420.6</ele><time>2026-04-18T11:11:37Z</time></trkpt><trkpt lat="41.80621952331375" lon="13.053463813096695"><ele>421.2</ele><time>2026-04-18T11:11:38Z</time></trkpt><trkpt lat="41.8062679280764" lon="13.053315552964818"><ele>421.79999999999995</ele><time>2026-04-18T11:11:39Z</time></trkpt><trkpt lat="41.80630723250916" lon="13.053194457322219"><ele>422.4</ele><time>2026-04-18T11:11:40Z</time></trkpt><trkpt lat="41.806353024784634" lon="13.053057196082163"><ele>423.0</ele><time>2026-04-18T11:11:41Z</time></trkpt><trkpt lat="41.80640401819846" lon="13.052940795260868"><ele>420.59999999999997</ele><time>2026-04-18T11:11:42Z</time></trkpt><trkpt lat="41.806483337835786" lon="13.052859728800001"><ele>418.2</ele><time>2026-04-18T11:11:43Z</time></trkpt><trkpt lat="41.806563306290066" lon="13.052840458130602"><ele>415.8</ele><time>2026-04-18T11:11:44Z</time></trkpt><trkpt lat="41.80664314400215" lon="13.052822060985068"><ele>413.4</ele><time>2026-04-18T11:11:45Z</time></trkpt><trkpt lat="41.80674659204765" lon="13.052818133240445"><ele>411.0</ele><time>2026-04-18T11:11:46Z</time></trkpt><trkpt lat="41.8068677106825" lon="13.052796072243439"><ele>411.0</ele><time>2026-04-18T11:11:47Z</time></trkpt><trkpt lat="41.806982039656575" lon="13.052756926836198"><ele>411.0</ele><time>2026-04-18T11:11:48Z</time></trkpt><trkpt lat="41.80707845171458" lon="13.052688815025713"><ele>411.0</ele><time>2026-04-18T11:11:49Z</time></trkpt><trkpt lat="41.80718085160841" lon="13.052641825372563"><ele>411.0</ele><time>2026-04-18T11:11:50Z</time></trkpt><trkpt lat="41.80728198214684" lon="13.052588759336281"><ele>411.0</ele><time>2026-04-18T11:11:51Z</time></trkpt><trkpt lat="41.80737152236469" lon="13.05251526385064"><ele>411.4</ele><time>2026-04-18T11:11:52Z</time></trkpt><trkpt lat="41.80745889197573" lon="13.052440721745413"><ele>411.8</ele><time>2026-04-18T11:11:53Z</time></trkpt><trkpt lat="41.80755737587722" lon="13.052354661508215"><ele>412.2</ele><time>2026-04-18T11:11:54Z</time></trkpt><trkpt lat="41.80762132675341" lon="13.052273679522509"><ele>412.59999999999997</ele><time>2026-04-18T11:11:55Z</time></trkpt><trkpt lat="41.80769053114109" lon="13.052188895205"><ele>413.0</ele><time>2026-04-18T11:11:56Z</time></trkpt><trkpt lat="41.8077626991272" lon="13.052114955095382"><ele>413.0</ele><time>2026-04-18T11:11:57Z</time></trkpt><trkpt lat="41.8078341150444" lon="13.052030411545763"><ele>413.0</ele><time>2026-04-18T11:11:58Z</time></trkpt><trkpt lat="41.807902622108095" lon="13.051942264828504"><ele>413.0</ele><time>2026-04-18T11:11:59Z</time></trkpt><trkpt lat="41.807960507886534" lon="13.051849629427732"><ele>413.0</ele><time>2026-04-18T11:12:00Z</time></trkpt><trkpt lat="41.807981582051845" lon="13.05172333490231"><ele>413.0</ele><time>2026-04-18T11:12:01Z</time></trkpt><trkpt lat="41.807971335190885" lon="13.051590118931436"><ele>409.59999999999997</ele><time>2026-04-18T11:12:02Z</time></trkpt><trkpt lat="41.80794949871234" lon="13.051459690187704"><ele>406.2</ele><time>2026-04-18T11:12:03Z</time></trkpt><trkpt lat="41.80794969044143" lon="13.051340229087561"><ele>402.8</ele><time>2026-04-18T11:12:04Z</time></trkpt><trkpt lat="41.80798634887811" lon="13.05122632479071"><ele>399.4</ele><time>2026-04-18T11:12:05Z</time></trkpt><trkpt lat="41.808074724249025" lon="13.051180096102028"><ele>396.0</ele><time>2026-04-18T11:12:06Z</time></trkpt><trkpt lat="41.80816230247157" lon="13.051129437326745"><ele>396.0</ele><time>2026-04-18T11:12:07Z</time></trkpt><trkpt lat="41.80823959274413" lon="13.051052226539127"><ele>396.0</ele><time>2026-04-18T11:12:08Z</time></trkpt><trkpt lat="41.80832625940291" lon="13.05099044604099"><ele>396.0</ele><time>2026-04-18T11:12:09Z</time></trkpt><trkpt lat="41.80839854458487" lon="13.05089553045511"><ele>396.0</ele><time>2026-04-18T11:12:10Z</time></trkpt><trkpt lat="41.808460903691106" lon="13.050787141377036"><ele>396.0</ele><time>2026-04-18T11:12:11Z</time></trkpt><trkpt lat="41.80850211005679" lon="13.050665117160726"><ele>397.0</ele><time>2026-04-18T11:12:12Z</time></trkpt><trkpt lat="41.80851555733051" lon="13.050526648510457"><ele>398.0</ele><time>2026-04-18T11:12:13Z</time></trkpt><trkpt lat="41.80852419640016" lon="13.050400225415132"><ele>399.0</ele><time>2026-04-18T11:12:14Z</time></trkpt><trkpt lat="41.80853562190132" lon="13.05026633231456"><ele>400.0</ele><time>2026-04-18T11:12:15Z</time></trkpt><trkpt lat="41.808544231563324" lon="13.05012748609419"><ele>401.0</ele><time>2026-04-18T11:12:16Z</time></trkpt><trkpt lat="41.808571204453955" lon="13.050002477798682"><ele>398.20000000000005</ele><time>2026-04-18T11:12:17Z</time></trkpt><trkpt lat="41.80861778801955" lon="13.049896601965015"><ele>395.40000000000003</ele><time>2026-04-18T11:12:18Z</time></trkpt><trkpt lat="41.80870512074968" lon="13.049838003284261"><ele>392.6</ele><time>2026-04-18T11:12:19Z</time></trkpt><trkpt lat="41.80878163357743" lon="13.049754966118908"><ele>389.8</ele><time>2026-04-18T11:12:20Z</time></trkpt><trkpt lat="41.80886846314469" lon="13.049690577797415"><ele>387.0</ele><time>2026-04-18T11:12:21Z</time></trkpt><trkpt lat="41.80894144640892" lon="13.049583808218161"><ele>387.0</ele><time>2026-04-18T11:12:22Z</time></trkpt><trkpt lat="41.80900243757793" lon="13.049446220596089"><ele>387.0</ele><time>2026-04-18T11:12:23Z</time></trkpt><trkpt lat="41.80905422418978" lon="13.049309024330809"><ele>387.0</ele><time>2026-04-18T11:12:24Z</time></trkpt><trkpt lat="41.809104939495" lon="13.049182909625385"><ele>387.0</ele><time>2026-04-18T11:12:25Z</time></trkpt><trkpt lat="41.80914240675705" lon="13.049048499004673"><ele>387.0</ele><time>2026-04-18T11:12:26Z</time></trkpt><trkpt lat="41.80917851048446" lon="13.048915316413417"><ele>387.40000000000003</ele><time>2026-04-18T11:12:27Z</time></trkpt><trkpt lat="41.809210317942764" lon="13.048789398517586"><ele>387.8</ele><time>2026-04-18T11:12:28Z</time></trkpt><trkpt lat="41.80923640944713" lon="13.048661493177026"><ele>388.2</ele><time>2026-04-18T11:12:29Z</time></trkpt><trkpt lat="41.8092704413244" lon="13.04854017728818"><ele>388.6</ele><time>2026-04-18T11:12:30Z</time></trkpt><trkpt lat="41.809313976114126" lon="13.048423345068187"><ele>389.0</ele><time>2026-04-18T11:12:31Z</time></trkpt><trkpt lat="41.809390708981425" lon="13.048343586939914"><ele>385.4</ele><time>2026-04-18T11:12:32Z</time></trkpt><trkpt lat="41.80946808772186" lon="13.048262286854213"><ele>381.79999999999995</ele><time>2026-04-18T11:12:33Z</time></trkpt><trkpt lat="41.809551881697004" lon="13.048202774306997"><ele>378.20000000000005</ele><time>2026-04-18T11:12:34Z</time></trkpt><trkpt lat="41.80964347163077" lon="13.048131907025299"><ele>374.6</ele><time>2026-04-18T11:12:35Z</time></trkpt><trkpt lat="41.809740905900036" lon="13.048048959433125"><ele>371.0</ele><time>2026-04-18T11:12:36Z</time></trkpt><trkpt lat="41.80982590674745" lon="13.04794723475163"><ele>371.0</ele><time>2026-04-18T11:12:37Z</time></trkpt><trkpt lat="41.80990961723738" lon="13.04783717014129"><ele>371.0</ele><time>2026-04-18T11:12:38Z</time></trkpt><trkpt lat="41.809967662842034" lon="13.047710187172147"><ele>371.0</ele><time>2026-04-18T11:12:39Z</time></trkpt><trkpt lat="41.81001305275598" lon="13.047561006646102"><ele>371.0</ele><time>2026-04-18T11:12:40Z</time></trkpt><trkpt lat="41.81005256317418" lon="13.047401134273946"><ele>368.0</ele><time>2026-04-18T11:12:41Z</time></trkpt><trkpt lat="41.81008669349967" lon="13.047250101142977"><ele>365.0</ele><time>2026-04-18T11:12:42Z</time></trkpt><trkpt lat="41.81012327941764" lon="13.047103311468785"><ele>362.0</ele><time>2026-04-18T11:12:43Z</time></trkpt><trkpt lat="41.810163323772414" lon="13.04696609989046"><ele>359.0</ele><time>2026-04-18T11:12:44Z</time></trkpt><trkpt lat="41.81019432224327" lon="13.046827545653821"><ele>363.5</ele><time>2026-04-18T11:12:45Z</time></trkpt><trkpt lat="41.81021595394391" lon="13.04668161818874"><ele>368.0</ele><time>2026-04-18T11:12:46Z</time></trkpt><trkpt lat="41.810215875677585" lon="13.046534842891955"><ele>372.5</ele><time>2026-04-18T11:12:47Z</time></trkpt><trkpt lat="41.81020694401829" lon="13.046371829257955"><ele>377.0</ele><time>2026-04-18T11:12:48Z</time></trkpt><trkpt lat="41.810169671614524" lon="13.046225791662106"><ele>371.25</ele><time>2026-04-18T11:12:49Z</time></trkpt><trkpt lat="41.81014177177589" lon="13.04607820999074"><ele>365.5</ele><time>2026-04-18T11:12:50Z</time></trkpt><trkpt lat="41.81010735458066" lon="13.045933148935488"><ele>359.75</ele><time>2026-04-18T11:12:51Z</time></trkpt><trkpt lat="41.81008926182352" lon="13.045776908192808"><ele>354.0</ele><time>2026-04-18T11:12:52Z</time></trkpt><trkpt lat="41.81008837525473" lon="13.045621076783155"><ele>352.0</ele><time>2026-04-18T11:12:53Z</time></trkpt><trkpt lat="41.81010130885745" lon="13.0454623371131"><ele>350.0</ele><time>2026-04-18T11:12:54Z</time></trkpt><trkpt lat="41.81012983554109" lon="13.045307545017055"><ele>348.0</ele><time>2026-04-18T11:12:55Z</time></trkpt><trkpt lat="41.81016720523273" lon="13.045152211198964"><ele>346.0</ele><time>2026-04-18T11:12:56Z</time></trkpt><trkpt lat="41.81020885730249" lon="13.04499902364295"><ele>346.75</ele><time>2026-04-18T11:12:57Z</time></trkpt><trkpt lat="41.81025587149418" lon="13.044849193864938"><ele>347.5</ele><time>2026-04-18T11:12:58Z</time></trkpt><trkpt lat="41.81029550265872" lon="13.044707242650423"><ele>348.25</ele><time>2026-04-18T11:12:59Z</time></trkpt><trkpt lat="41.81033607980763" lon="13.044562827012225"><ele>349.0</ele><time>2026-04-18T11:13:00Z</time></trkpt><trkpt lat="41.81037370661315" lon="13.044419788031583"><ele>349.0</ele><time>2026-04-18T11:13:01Z</time></trkpt><trkpt lat="41.8104047807989" lon="13.04427268150922"><ele>349.0</ele><time>2026-04-18T11:13:02Z</time></trkpt><trkpt lat="41.81042931250268" lon="13.044124461838678"><ele>349.0</ele><time>2026-04-18T11:13:03Z</time></trkpt><trkpt lat="41.81044058899301" lon="13.04397461430628"><ele>349.0</ele><time>2026-04-18T11:13:04Z</time></trkpt><trkpt lat="41.81043146775748" lon="13.043820476615393"><ele>345.79999999999995</ele><time>2026-04-18T11:13:05Z</time></trkpt><trkpt lat="41.810400273356514" lon="13.043678465453212"><ele>342.59999999999997</ele><time>2026-04-18T11:13:06Z</time></trkpt><trkpt lat="41.810385996565074" lon="13.043533046053144"><ele>339.4</ele><time>2026-04-18T11:13:07Z</time></trkpt><trkpt lat="41.81035848456072" lon="13.04339125376466"><ele>336.2</ele><time>2026-04-18T11:13:08Z</time></trkpt><trkpt lat="41.81033571084976" lon="13.043248530702778"><ele>333.0</ele><time>2026-04-18T11:13:09Z</time></trkpt><trkpt lat="41.81031072673478" lon="13.043110726439243"><ele>331.0</ele><time>2026-04-18T11:13:10Z</time></trkpt><trkpt lat="41.81027036596663" lon="13.042991974977848"><ele>329.0</ele><time>2026-04-18T11:13:11Z</time></trkpt><trkpt lat="41.81021877826045" lon="13.042893700068705"><ele>327.0</ele><time>2026-04-18T11:13:12Z</time></trkpt><trkpt lat="41.81014589157938" lon="13.042806831149155"><ele>325.0</ele><time>2026-04-18T11:13:13Z</time></trkpt><trkpt lat="41.810060040316024" lon="13.042737400472475"><ele>323.0</ele><time>2026-04-18T11:13:14Z</time></trkpt><trkpt lat="41.80995494251704" lon="13.042690106716467"><ele>323.0</ele><time>2026-04-18T11:13:15Z</time></trkpt><trkpt lat="41.80983249579348" lon="13.04266849445112"><ele>323.0</ele><time>2026-04-18T11:13:16Z</time></trkpt><trkpt lat="41.809710172888416" lon="13.042641248625607"><ele>323.0</ele><time>2026-04-18T11:13:17Z</time></trkpt><trkpt lat="41.80959462514657" lon="13.042608710281856"><ele>323.0</ele><time>2026-04-18T11:13:18Z</time></trkpt><trkpt lat="41.809480496533844" lon="13.04257773023925"><ele>323.0</ele><time>2026-04-18T11:13:19Z</time></trkpt><trkpt lat="41.809372789761305" lon="13.04251647482759"><ele>323.0</ele><time>2026-04-18T11:13:20Z</time></trkpt><trkpt lat="41.80926465056489" lon="13.042460421085426"><ele>323.0</ele><time>2026-04-18T11:13:21Z</time></trkpt><trkpt lat="41.8091515680071" lon="13.042411201006074"><ele>323.0</ele><time>2026-04-18T11:13:22Z</time></trkpt><trkpt lat="41.809054847461674" lon="13.042295497837367"><ele>321.0</ele><time>2026-04-18T11:13:23Z</time></trkpt><trkpt lat="41.80895764333621" lon="13.042187738629895"><ele>319.0</ele><time>2026-04-18T11:13:24Z</time></trkpt><trkpt lat="41.808848221111674" lon="13.042077922888904"><ele>317.0</ele><time>2026-04-18T11:13:25Z</time></trkpt><trkpt lat="41.808751874722276" lon="13.041946911144274"><ele>315.0</ele><time>2026-04-18T11:13:26Z</time></trkpt><trkpt lat="41.80866134519166" lon="13.041809349874782"><ele>315.0</ele><time>2026-04-18T11:13:27Z</time></trkpt><trkpt lat="41.808578655311806" lon="13.041681129997787"><ele>315.0</ele><time>2026-04-18T11:13:28Z</time></trkpt><trkpt lat="41.808499599930066" lon="13.04154733127716"><ele>315.0</ele><time>2026-04-18T11:13:29Z</time></trkpt><trkpt lat="41.8084164886569" lon="13.04140698590426"><ele>315.0</ele><time>2026-04-18T11:13:30Z</time></trkpt><trkpt lat="41.808333977033094" lon="13.041268736685222"><ele>314.0</ele><time>2026-04-18T11:13:31Z</time></trkpt><trkpt lat="41.80826285125279" lon="13.04111732908348"><ele>313.0</ele><time>2026-04-18T11:13:32Z</time></trkpt><trkpt lat="41.80819329444763" lon="13.040960470185444"><ele>312.0</ele><time>2026-04-18T11:13:33Z</time></trkpt><trkpt lat="41.80811994470069" lon="13.040803837645242"><ele>311.0</ele><time>2026-04-18T11:13:34Z</time></trkpt><trkpt lat="41.80803748928101" lon="13.040673945851845"><ele>310.25</ele><time>2026-04-18T11:13:35Z</time></trkpt><trkpt lat="41.807944415981666" lon="13.040561996717033"><ele>309.5</ele><time>2026-04-18T11:13:36Z</time></trkpt><trkpt lat="41.807850013328434" lon="13.040471902231102"><ele>308.75</ele><time>2026-04-18T11:13:37Z</time></trkpt><trkpt lat="41.80774728621017" lon="13.040401190410812"><ele>308.0</ele><time>2026-04-18T11:13:38Z</time></trkpt><trkpt lat="41.807635423560946" lon="13.040348487728918"><ele>308.0</ele><time>2026-04-18T11:13:39Z</time></trkpt><trkpt lat="41.807527421782346" lon="13.040314843515844"><ele>308.0</ele><time>2026-04-18T11:13:40Z</time></trkpt><trkpt lat="41.807412872726715" lon="13.040307816207424"><ele>308.0</ele><time>2026-04-18T11:13:41Z</time></trkpt><trkpt lat="41.80730470903646" lon="13.040315769309373"><ele>308.0</ele><time>2026-04-18T11:13:42Z</time></trkpt><trkpt lat="41.80719924205526" lon="13.040303067657884"><ele>308.0</ele><time>2026-04-18T11:13:43Z</time></trkpt><trkpt lat="41.807094517041484" lon="13.040268110195735"><ele>308.0</ele><time>2026-04-18T11:13:44Z</time></trkpt><trkpt lat="41.80699577719923" lon="13.04020083497669"><ele>308.0</ele><time>2026-04-18T11:13:45Z</time></trkpt><trkpt lat="41.8068928188618" lon="13.040106292101822"><ele>308.0</ele><time>2026-04-18T11:13:46Z</time></trkpt><trkpt lat="41.806786869910255" lon="13.040019225491717"><ele>308.0</ele><time>2026-04-18T11:13:47Z</time></trkpt><trkpt lat="41.80668172199574" lon="13.039933745957644"><ele>308.25</ele><time>2026-04-18T11:13:48Z</time></trkpt><trkpt lat="41.80657225238855" lon="13.039844232940684"><ele>308.5</ele><time>2026-04-18T11:13:49Z</time></trkpt><trkpt lat="41.80646095932915" lon="13.039756700389654"><ele>308.75</ele><time>2026-04-18T11:13:50Z</time></trkpt><trkpt lat="41.806347745813675" lon="13.03967958792793"><ele>309.0</ele><time>2026-04-18T11:13:51Z</time></trkpt><trkpt lat="41.806234372204074" lon="13.039619650022534"><ele>309.0</ele><time>2026-04-18T11:13:52Z</time></trkpt><trkpt lat="41.80611482317798" lon="13.039555113209596"><ele>309.0</ele><time>2026-04-18T11:13:53Z</time></trkpt><trkpt lat="41.80599059797466" lon="13.039494913648001"><ele>309.0</ele><time>2026-04-18T11:13:54Z</time></trkpt><trkpt lat="41.805859966523165" lon="13.039431073552038"><ele>309.0</ele><time>2026-04-18T11:13:55Z</time></trkpt><trkpt lat="41.805729082971304" lon="13.039375546471812"><ele>307.25</ele><time>2026-04-18T11:13:56Z</time></trkpt><trkpt lat="41.805600613026776" lon="13.039318713307518"><ele>305.5</ele><time>2026-04-18T11:13:57Z</time></trkpt><trkpt lat="41.80547048723021" lon="13.039266066617854"><ele>303.75</ele><time>2026-04-18T11:13:58Z</time></trkpt><trkpt lat="41.80534114634606" lon="13.039213254212479"><ele>302.0</ele><time>2026-04-18T11:13:59Z</time></trkpt><trkpt lat="41.8052116731423" lon="13.0391597794621"><ele>301.0</ele><time>2026-04-18T11:14:00Z</time></trkpt><trkpt lat="41.80508555167247" lon="13.039111211132065"><ele>300.0</ele><time>2026-04-18T11:14:01Z</time></trkpt><trkpt lat="41.80496105909977" lon="13.03906092083082"><ele>299.0</ele><time>2026-04-18T11:14:02Z</time></trkpt><trkpt lat="41.80483976067721" lon="13.039013560496391"><ele>298.0</ele><time>2026-04-18T11:14:03Z</time></trkpt><trkpt lat="41.80472751791979" lon="13.038973799563642"><ele>298.0</ele><time>2026-04-18T11:14:04Z</time></trkpt><trkpt lat="41.80459831492631" lon="13.038923456234595"><ele>298.0</ele><time>2026-04-18T11:14:05Z</time></trkpt><trkpt lat="41.80447070544693" lon="13.038871578203654"><ele>298.0</ele><time>2026-04-18T11:14:06Z</time></trkpt><trkpt lat="41.80434074698006" lon="13.038820920819308"><ele>298.0</ele><time>2026-04-18T11:14:07Z</time></trkpt><trkpt lat="41.80421222740702" lon="13.03877124582548"><ele>296.75</ele><time>2026-04-18T11:14:08Z</time></trkpt><trkpt lat="41.80408732335995" lon="13.038723813194801"><ele>295.5</ele><time>2026-04-18T11:14:09Z</time></trkpt><trkpt lat="41.80395616487254" lon="13.038683264374031"><ele>294.25</ele><time>2026-04-18T11:14:10Z</time></trkpt><trkpt lat="41.80382632144668" lon="13.038639926788232"><ele>293.0</ele><time>2026-04-18T11:14:11Z</time></trkpt><trkpt lat="41.80369390748548" lon="13.038585100861402"><ele>293.0</ele><time>2026-04-18T11:14:12Z</time></trkpt><trkpt lat="41.803560608180035" lon="13.03853334576094"><ele>293.0</ele><time>2026-04-18T11:14:13Z</time></trkpt><trkpt lat="41.80343082168804" lon="13.038482843472744"><ele>293.0</ele><time>2026-04-18T11:14:14Z</time></trkpt><trkpt lat="41.80330105946078" lon="13.038431098457004"><ele>293.0</ele><time>2026-04-18T11:14:15Z</time></trkpt><trkpt lat="41.80316719624819" lon="13.038385023017709"><ele>291.0</ele><time>2026-04-18T11:14:16Z</time></trkpt><trkpt lat="41.803037941944254" lon="13.038348055110003"><ele>289.0</ele><time>2026-04-18T11:14:17Z</time></trkpt><trkpt lat="41.80290683825402" lon="13.038317366580683"><ele>287.0</ele><time>2026-04-18T11:14:18Z</time></trkpt><trkpt lat="41.802773925373025" lon="13.038289529781801"><ele>285.0</ele><time>2026-04-18T11:14:19Z</time></trkpt><trkpt lat="41.80264181825543" lon="13.038268375814845"><ele>283.75</ele><time>2026-04-18T11:14:20Z</time></trkpt><trkpt lat="41.80250804990415" lon="13.03824713071354"><ele>282.5</ele><time>2026-04-18T11:14:21Z</time></trkpt><trkpt lat="41.802374982123354" lon="13.03822663106127"><ele>281.25</ele><time>2026-04-18T11:14:22Z</time></trkpt><trkpt lat="41.8022408093151" lon="13.038207895248373"><ele>280.0</ele><time>2026-04-18T11:14:23Z</time></trkpt><trkpt lat="41.80210733444706" lon="13.038187806430049"><ele>280.0</ele><time>2026-04-18T11:14:24Z</time></trkpt><trkpt lat="41.801975457845124" lon="13.038168133769103"><ele>280.0</ele><time>2026-04-18T11:14:25Z</time></trkpt><trkpt lat="41.80184296376904" lon="13.038146098537311"><ele>280.0</ele><time>2026-04-18T11:14:26Z</time></trkpt><trkpt lat="41.80170717923394" lon="13.038131870130863"><ele>280.0</ele><time>2026-04-18T11:14:27Z</time></trkpt><trkpt lat="41.80156299906564" lon="13.038114948028579"><ele>279.0</ele><time>2026-04-18T11:14:28Z</time></trkpt><trkpt lat="41.8014373404065" lon="13.038096507973847"><ele>278.0</ele><time>2026-04-18T11:14:29Z</time></trkpt><trkpt lat="41.80130857061936" lon="13.038073585909963"><ele>277.0</ele><time>2026-04-18T11:14:30Z</time></trkpt><trkpt lat="41.80118364386548" lon="13.038040791083205"><ele>276.0</ele><time>2026-04-18T11:14:31Z</time></trkpt><trkpt lat="41.80105714739319" lon="13.037992888931235"><ele>274.75</ele><time>2026-04-18T11:14:32Z</time></trkpt><trkpt lat="41.800946765495674" lon="13.037905216812065"><ele>273.5</ele><time>2026-04-18T11:14:33Z</time></trkpt><trkpt lat="41.80083942623275" lon="13.037811458937675"><ele>272.25</ele><time>2026-04-18T11:14:34Z</time></trkpt><trkpt lat="41.80073720497858" lon="13.037714253343013"><ele>271.0</ele><time>2026-04-18T11:14:35Z</time></trkpt><trkpt lat="41.800633909364535" lon="13.03760603576636"><ele>271.0</ele><time>2026-04-18T11:14:36Z</time></trkpt><trkpt lat="41.80053433739757" lon="13.037492292505302"><ele>271.0</ele><time>2026-04-18T11:14:37Z</time></trkpt><trkpt lat="41.80042951931406" lon="13.037375916197862"><ele>271.0</ele><time>2026-04-18T11:14:38Z</time></trkpt><trkpt lat="41.80033644683882" lon="13.037245466537222"><ele>271.0</ele><time>2026-04-18T11:14:39Z</time></trkpt><trkpt lat="41.80024278919626" lon="13.037118173408237"><ele>269.5</ele><time>2026-04-18T11:14:40Z</time></trkpt><trkpt lat="41.800149726494446" lon="13.036989040436394"><ele>268.0</ele><time>2026-04-18T11:14:41Z</time></trkpt><trkpt lat="41.80005837847949" lon="13.036857886824906"><ele>266.5</ele><time>2026-04-18T11:14:42Z</time></trkpt><trkpt lat="41.799968934180136" lon="13.036720188007251"><ele>265.0</ele><time>2026-04-18T11:14:43Z</time></trkpt><trkpt lat="41.79988981638926" lon="13.036574102359147"><ele>264.5</ele><time>2026-04-18T11:14:44Z</time></trkpt><trkpt lat="41.799809117947" lon="13.036422267416159"><ele>264.0</ele><time>2026-04-18T11:14:45Z</time></trkpt><trkpt lat="41.79973126996834" lon="13.036267370893446"><ele>263.5</ele><time>2026-04-18T11:14:46Z</time></trkpt><trkpt lat="41.799653043064005" lon="13.036108254168814"><ele>263.0</ele><time>2026-04-18T11:14:47Z</time></trkpt><trkpt lat="41.79958191488918" lon="13.035958559471801"><ele>263.0</ele><time>2026-04-18T11:14:48Z</time></trkpt><trkpt lat="41.79951126815584" lon="13.035813717082751"><ele>263.0</ele><time>2026-04-18T11:14:49Z</time></trkpt><trkpt lat="41.799438822779166" lon="13.035677481389735"><ele>263.0</ele><time>2026-04-18T11:14:50Z</time></trkpt><trkpt lat="41.79937061666542" lon="13.035547459971326"><ele>263.0</ele><time>2026-04-18T11:14:51Z</time></trkpt><trkpt lat="41.79930593114623" lon="13.035422093465945"><ele>261.4</ele><time>2026-04-18T11:14:52Z</time></trkpt><trkpt lat="41.79923516109047" lon="13.03530403964533"><ele>259.8</ele><time>2026-04-18T11:14:53Z</time></trkpt><trkpt lat="41.79916443941682" lon="13.035184785909928"><ele>258.2</ele><time>2026-04-18T11:14:54Z</time></trkpt><trkpt lat="41.799097364108185" lon="13.035071066991126"><ele>256.6</ele><time>2026-04-18T11:14:55Z</time></trkpt><trkpt lat="41.79903029547024" lon="13.03494879765764"><ele>255.0</ele><time>2026-04-18T11:14:56Z</time></trkpt><trkpt lat="41.798965904618484" lon="13.034832322715454"><ele>255.0</ele><time>2026-04-18T11:14:57Z</time></trkpt><trkpt lat="41.79890491558092" lon="13.034715719343195"><ele>255.0</ele><time>2026-04-18T11:14:58Z</time></trkpt><trkpt lat="41.79884759874264" lon="13.034599031473988"><ele>255.0</ele><time>2026-04-18T11:14:59Z</time></trkpt><trkpt lat="41.79878358827944" lon="13.034486011207656"><ele>255.0</ele><time>2026-04-18T11:15:00Z</time></trkpt><trkpt lat="41.798725066443886" lon="13.034378713598567"><ele>255.0</ele><time>2026-04-18T11:15:01Z</time></trkpt><trkpt lat="41.79866867799293" lon="13.034270176707986"><ele>255.0</ele><time>2026-04-18T11:15:02Z</time></trkpt><trkpt lat="41.79860863470862" lon="13.034175351125144"><ele>255.0</ele><time>2026-04-18T11:15:03Z</time></trkpt><trkpt lat="41.79855114861476" lon="13.034079389115275"><ele>255.0</ele><time>2026-04-18T11:15:04Z</time></trkpt><trkpt lat="41.798491117214326" lon="13.03397635002382"><ele>255.0</ele><time>2026-04-18T11:15:05Z</time></trkpt><trkpt lat="41.79843026860698" lon="13.033867919487069"><ele>255.0</ele><time>2026-04-18T11:15:06Z</time></trkpt><trkpt lat="41.79836062143466" lon="13.03375151845341"><ele>254.5</ele><time>2026-04-18T11:15:07Z</time></trkpt><trkpt lat="41.798286934334854" lon="13.033626855287537"><ele>254.0</ele><time>2026-04-18T11:15:08Z</time></trkpt><trkpt lat="41.798211940789436" lon="13.033498198288642"><ele>253.5</ele><time>2026-04-18T11:15:09Z</time></trkpt><trkpt lat="41.7981395861028" lon="13.033360870229176"><ele>253.0</ele><time>2026-04-18T11:15:10Z</time></trkpt><trkpt lat="41.7980648959342" lon="13.033225623680133"><ele>253.0</ele><time>2026-04-18T11:15:11Z</time></trkpt><trkpt lat="41.79799383865957" lon="13.033086023129892"><ele>253.0</ele><time>2026-04-18T11:15:12Z</time></trkpt><trkpt lat="41.79792221777446" lon="13.032943313312636"><ele>253.0</ele><time>2026-04-18T11:15:13Z</time></trkpt><trkpt lat="41.79785203914591" lon="13.032805323925922"><ele>253.0</ele><time>2026-04-18T11:15:14Z</time></trkpt><trkpt lat="41.797787891561434" lon="13.032661909578442"><ele>253.0</ele><time>2026-04-18T11:15:15Z</time></trkpt><trkpt lat="41.79771986672538" lon="13.032529697300543"><ele>253.0</ele><time>2026-04-18T11:15:16Z</time></trkpt><trkpt lat="41.797646755257034" lon="13.032396352465376"><ele>253.0</ele><time>2026-04-18T11:15:17Z</time></trkpt><trkpt lat="41.79758242390184" lon="13.032266977096722"><ele>253.0</ele><time>2026-04-18T11:15:18Z</time></trkpt><trkpt lat="41.79751063508398" lon="13.032135148561128"><ele>253.0</ele><time>2026-04-18T11:15:19Z</time></trkpt><trkpt lat="41.79744063419559" lon="13.031995756294481"><ele>253.0</ele><time>2026-04-18T11:15:20Z</time></trkpt><trkpt lat="41.79736523107835" lon="13.031861229407122"><ele>253.0</ele><time>2026-04-18T11:15:21Z</time></trkpt><trkpt lat="41.797296560423874" lon="13.0317204032435"><ele>253.0</ele><time>2026-04-18T11:15:22Z</time></trkpt><trkpt lat="41.79722815217704" lon="13.031576950909349"><ele>251.75</ele><time>2026-04-18T11:15:23Z</time></trkpt><trkpt lat="41.797160665609475" lon="13.031433983999305"><ele>250.5</ele><time>2026-04-18T11:15:24Z</time></trkpt><trkpt lat="41.79709063563946" lon="13.031292835353483"><ele>249.25</ele><time>2026-04-18T11:15:25Z</time></trkpt><trkpt lat="41.79701882394792" lon="13.031150972633403"><ele>248.0</ele><time>2026-04-18T11:15:26Z</time></trkpt><trkpt lat="41.7969474844768" lon="13.031008243544395"><ele>248.0</ele><time>2026-04-18T11:15:27Z</time></trkpt><trkpt lat="41.79687401831546" lon="13.030861076109558"><ele>248.0</ele><time>2026-04-18T11:15:28Z</time></trkpt><trkpt lat="41.79679886755853" lon="13.03072058232035"><ele>248.0</ele><time>2026-04-18T11:15:29Z</time></trkpt><trkpt lat="41.79672592813321" lon="13.030581138715725"><ele>248.0</ele><time>2026-04-18T11:15:30Z</time></trkpt><trkpt lat="41.79665159022176" lon="13.030442480919982"><ele>250.25</ele><time>2026-04-18T11:15:31Z</time></trkpt><trkpt lat="41.79656283414316" lon="13.030316767937668"><ele>252.5</ele><time>2026-04-18T11:15:32Z</time></trkpt><trkpt lat="41.7964622205788" lon="13.030204921178703"><ele>254.75</ele><time>2026-04-18T11:15:33Z</time></trkpt><trkpt lat="41.79635507474412" lon="13.030119696897346"><ele>257.0</ele><time>2026-04-18T11:15:34Z</time></trkpt><trkpt lat="41.79623090000571" lon="13.0300478980157"><ele>257.0</ele><time>2026-04-18T11:15:35Z</time></trkpt><trkpt lat="41.796111411748775" lon="13.029977898147122"><ele>257.0</ele><time>2026-04-18T11:15:36Z</time></trkpt><trkpt lat="41.795986603059994" lon="13.029902816360496"><ele>257.0</ele><time>2026-04-18T11:15:37Z</time></trkpt><trkpt lat="41.79585657285022" lon="13.029824606837884"><ele>257.0</ele><time>2026-04-18T11:15:38Z</time></trkpt><trkpt lat="41.795725272112186" lon="13.029743345840396"><ele>256.75</ele><time>2026-04-18T11:15:39Z</time></trkpt><trkpt lat="41.79560464981409" lon="13.029673403720892"><ele>256.5</ele><time>2026-04-18T11:15:40Z</time></trkpt><trkpt lat="41.79548565558943" lon="13.02960276740726"><ele>256.25</ele><time>2026-04-18T11:15:41Z</time></trkpt><trkpt lat="41.79536384666005" lon="13.029532074282077"><ele>256.0</ele><time>2026-04-18T11:15:42Z</time></trkpt><trkpt lat="41.79524721946105" lon="13.02945711491733"><ele>256.25</ele><time>2026-04-18T11:15:43Z</time></trkpt><trkpt lat="41.795131192673765" lon="13.02938495097353"><ele>256.5</ele><time>2026-04-18T11:15:44Z</time></trkpt><trkpt lat="41.79502327685039" lon="13.029311108793665"><ele>256.75</ele><time>2026-04-18T11:15:45Z</time></trkpt><trkpt lat="41.79491493416537" lon="13.029235127307082"><ele>257.0</ele><time>2026-04-18T11:15:46Z</time></trkpt><trkpt lat="41.794803708907665" lon="13.029155908441059"><ele>257.0</ele><time>2026-04-18T11:15:47Z</time></trkpt><trkpt lat="41.79469645701149" lon="13.029081289496478"><ele>257.0</ele><time>2026-04-18T11:15:48Z</time></trkpt><trkpt lat="41.794587757430065" lon="13.029013191801274"><ele>257.0</ele><time>2026-04-18T11:15:49Z</time></trkpt><trkpt lat="41.79448373753843" lon="13.028946941452"><ele>257.0</ele><time>2026-04-18T11:15:50Z</time></trkpt><trkpt lat="41.79437549033218" lon="13.02887553992944"><ele>258.75</ele><time>2026-04-18T11:15:51Z</time></trkpt><trkpt lat="41.79427076105673" lon="13.028809314525446"><ele>260.5</ele><time>2026-04-18T11:15:52Z</time></trkpt><trkpt lat="41.794167984628764" lon="13.028744106499072"><ele>262.25</ele><time>2026-04-18T11:15:53Z</time></trkpt><trkpt lat="41.7940661652407" lon="13.028677837987047"><ele>264.0</ele><time>2026-04-18T11:15:54Z</time></trkpt><trkpt lat="41.793969055412376" lon="13.028614663339104"><ele>264.0</ele><time>2026-04-18T11:15:55Z</time></trkpt><trkpt lat="41.79386803841363" lon="13.028554212101966"><ele>264.0</ele><time>2026-04-18T11:15:56Z</time></trkpt><trkpt lat="41.79377265491494" lon="13.028492995393668"><ele>264.0</ele><time>2026-04-18T11:15:57Z</time></trkpt><trkpt lat="41.793669052325235" lon="13.028428585787786"><ele>264.0</ele><time>2026-04-18T11:15:58Z</time></trkpt><trkpt lat="41.793565423645376" lon="13.02836228879758"><ele>264.0</ele><time>2026-04-18T11:15:59Z</time></trkpt><trkpt lat="41.793461319964806" lon="13.028297922796666"><ele>264.75</ele><time>2026-04-18T11:16:00Z</time></trkpt><trkpt lat="41.79335394705177" lon="13.02823193143053"><ele>265.5</ele><time>2026-04-18T11:16:01Z</time></trkpt><trkpt lat="41.79324196995318" lon="13.028164784336091"><ele>266.25</ele><time>2026-04-18T11:16:02Z</time></trkpt><trkpt lat="41.79312828414339" lon="13.028104404752947"><ele>267.0</ele><time>2026-04-18T11:16:03Z</time></trkpt><trkpt lat="41.79301039287295" lon="13.0280391808723"><ele>267.0</ele><time>2026-04-18T11:16:04Z</time></trkpt><trkpt lat="41.792892470132074" lon="13.027972765463307"><ele>267.0</ele><time>2026-04-18T11:16:05Z</time></trkpt><trkpt lat="41.79277518429153" lon="13.027901274889711"><ele>267.0</ele><time>2026-04-18T11:16:06Z</time></trkpt><trkpt lat="41.79265552472405" lon="13.027834214544495"><ele>267.0</ele><time>2026-04-18T11:16:07Z</time></trkpt><trkpt lat="41.792533931953734" lon="13.02776698734244"><ele>268.25</ele><time>2026-04-18T11:16:08Z</time></trkpt><trkpt lat="41.7924139571571" lon="13.027702647119357"><ele>269.5</ele><time>2026-04-18T11:16:09Z</time></trkpt><trkpt lat="41.79229800446865" lon="13.027634877707348"><ele>270.75</ele><time>2026-04-18T11:16:10Z</time></trkpt><trkpt lat="41.792179327520465" lon="13.027566675682852"><ele>272.0</ele><time>2026-04-18T11:16:11Z</time></trkpt><trkpt lat="41.792060342700324" lon="13.027505499540585"><ele>271.5</ele><time>2026-04-18T11:16:12Z</time></trkpt><trkpt lat="41.79194675940786" lon="13.027448490948858"><ele>271.0</ele><time>2026-04-18T11:16:13Z</time></trkpt><trkpt lat="41.79183677694522" lon="13.027395501313302"><ele>270.5</ele><time>2026-04-18T11:16:14Z</time></trkpt><trkpt lat="41.791727296811516" lon="13.02733124556452"><ele>270.0</ele><time>2026-04-18T11:16:15Z</time></trkpt><trkpt lat="41.79161542146885" lon="13.027274030780077"><ele>270.0</ele><time>2026-04-18T11:16:16Z</time></trkpt><trkpt lat="41.791505331748695" lon="13.027214066330869"><ele>270.0</ele><time>2026-04-18T11:16:17Z</time></trkpt><trkpt lat="41.79138981476693" lon="13.02716620631924"><ele>270.0</ele><time>2026-04-18T11:16:18Z</time></trkpt><trkpt lat="41.791275544681405" lon="13.027108316347242"><ele>270.0</ele><time>2026-04-18T11:16:19Z</time></trkpt><trkpt lat="41.79116269688177" lon="13.027046558082123"><ele>270.0</ele><time>2026-04-18T11:16:20Z</time></trkpt><trkpt lat="41.791050874687265" lon="13.026982574886508"><ele>270.0</ele><time>2026-04-18T11:16:21Z</time></trkpt><trkpt lat="41.79094276132983" lon="13.026925944966479"><ele>270.0</ele><time>2026-04-18T11:16:22Z</time></trkpt><trkpt lat="41.79082877644371" lon="13.026855438038583"><ele>270.0</ele><time>2026-04-18T11:16:23Z</time></trkpt><trkpt lat="41.79071420037303" lon="13.026798487523088"><ele>272.0</ele><time>2026-04-18T11:16:24Z</time></trkpt><trkpt lat="41.79059908202711" lon="13.026736511749354"><ele>274.0</ele><time>2026-04-18T11:16:25Z</time></trkpt><trkpt lat="41.79048616716154" lon="13.026675948450288"><ele>276.0</ele><time>2026-04-18T11:16:26Z</time></trkpt><trkpt lat="41.79037303265136" lon="13.026614735176821"><ele>278.0</ele><time>2026-04-18T11:16:27Z</time></trkpt><trkpt lat="41.79026223858646" lon="13.026552032791795"><ele>281.25</ele><time>2026-04-18T11:16:28Z</time></trkpt><trkpt lat="41.79015432182482" lon="13.02649653887789"><ele>284.5</ele><time>2026-04-18T11:16:29Z</time></trkpt><trkpt lat="41.79004266674732" lon="13.026437901073537"><ele>287.75</ele><time>2026-04-18T11:16:30Z</time></trkpt><trkpt lat="41.789928780367106" lon="13.02637046630993"><ele>291.0</ele><time>2026-04-18T11:16:31Z</time></trkpt><trkpt lat="41.789817615836526" lon="13.026308157278004"><ele>291.0</ele><time>2026-04-18T11:16:32Z</time></trkpt><trkpt lat="41.789700612258855" lon="13.026266565958371"><ele>291.0</ele><time>2026-04-18T11:16:33Z</time></trkpt><trkpt lat="41.789583038350486" lon="13.026234707343985"><ele>291.0</ele><time>2026-04-18T11:16:34Z</time></trkpt><trkpt lat="41.78946284590075" lon="13.026225475685322"><ele>291.0</ele><time>2026-04-18T11:16:35Z</time></trkpt><trkpt lat="41.78933990898196" lon="13.026207713179652"><ele>289.0</ele><time>2026-04-18T11:16:36Z</time></trkpt><trkpt lat="41.789218071744415" lon="13.026194065883818"><ele>287.0</ele><time>2026-04-18T11:16:37Z</time></trkpt><trkpt lat="41.78909632499282" lon="13.026189457155242"><ele>285.0</ele><time>2026-04-18T11:16:38Z</time></trkpt><trkpt lat="41.7889766044351" lon="13.026176807171804"><ele>283.0</ele><time>2026-04-18T11:16:39Z</time></trkpt><trkpt lat="41.7888635203729" lon="13.026169901489967"><ele>283.0</ele><time>2026-04-18T11:16:40Z</time></trkpt><trkpt lat="41.78874463285207" lon="13.026156129908514"><ele>283.0</ele><time>2026-04-18T11:16:41Z</time></trkpt><trkpt lat="41.78862118783512" lon="13.026142857274822"><ele>283.0</ele><time>2026-04-18T11:16:42Z</time></trkpt><trkpt lat="41.78849918432313" lon="13.026132253660641"><ele>283.0</ele><time>2026-04-18T11:16:43Z</time></trkpt><trkpt lat="41.78837850237861" lon="13.026127068845515"><ele>282.0</ele><time>2026-04-18T11:16:44Z</time></trkpt><trkpt lat="41.78825748194324" lon="13.02611680079788"><ele>281.0</ele><time>2026-04-18T11:16:45Z</time></trkpt><trkpt lat="41.78814548045884" lon="13.026108750932687"><ele>280.0</ele><time>2026-04-18T11:16:46Z</time></trkpt><trkpt lat="41.78803917759429" lon="13.026101502113011"><ele>279.0</ele><time>2026-04-18T11:16:47Z</time></trkpt><trkpt lat="41.78793822195756" lon="13.026094266964012"><ele>278.0</ele><time>2026-04-18T11:16:48Z</time></trkpt><trkpt lat="41.78783222542441" lon="13.026083926485947"><ele>278.0</ele><time>2026-04-18T11:16:49Z</time></trkpt><trkpt lat="41.787727267358456" lon="13.026077134439747"><ele>278.0</ele><time>2026-04-18T11:16:50Z</time></trkpt><trkpt lat="41.787621867366326" lon="13.026069273372837"><ele>278.0</ele><time>2026-04-18T11:16:51Z</time></trkpt><trkpt lat="41.78751734149105" lon="13.02605927042064"><ele>278.0</ele><time>2026-04-18T11:16:52Z</time></trkpt><trkpt lat="41.78741476611358" lon="13.026050031513611"><ele>278.0</ele><time>2026-04-18T11:16:53Z</time></trkpt><trkpt lat="41.78731651581143" lon="13.026037312038596"><ele>277.1666666666667</ele><time>2026-04-18T11:16:54Z</time></trkpt><trkpt lat="41.78722763156621" lon="13.026024787414082"><ele>276.33333333333337</ele><time>2026-04-18T11:16:55Z</time></trkpt><trkpt lat="41.787158099765136" lon="13.026003574767405"><ele>275.5</ele><time>2026-04-18T11:16:56Z</time></trkpt><trkpt lat="41.78710144969305" lon="13.025952582921217"><ele>274.6666666666667</ele><time>2026-04-18T11:16:57Z</time></trkpt><trkpt lat="41.787085593322466" lon="13.025779424804108"><ele>273.8333333333333</ele><time>2026-04-18T11:16:59Z</time></trkpt><trkpt lat="41.78707116413982" lon="13.025668991725434"><ele>273.0</ele><time>2026-04-18T11:17:00Z</time></trkpt><trkpt lat="41.78705472441143" lon="13.02554831286772"><ele>272.6</ele><time>2026-04-18T11:17:01Z</time></trkpt><trkpt lat="41.787020593876086" lon="13.025427820677805"><ele>272.20000000000005</ele><time>2026-04-18T11:17:02Z</time></trkpt><trkpt lat="41.78700765510954" lon="13.025290671410318"><ele>271.8</ele><time>2026-04-18T11:17:03Z</time></trkpt><trkpt lat="41.78698883579983" lon="13.025153801159496"><ele>271.40000000000003</ele><time>2026-04-18T11:17:04Z</time></trkpt><trkpt lat="41.78697019130982" lon="13.02502425241671"><ele>271.0</ele><time>2026-04-18T11:17:05Z</time></trkpt><trkpt lat="41.786956258785395" lon="13.02488861424674"><ele>270.6</ele><time>2026-04-18T11:17:06Z</time></trkpt><trkpt lat="41.78695655385686" lon="13.024752278749641"><ele>270.20000000000005</ele><time>2026-04-18T11:17:07Z</time></trkpt><trkpt lat="41.78699704371637" lon="13.024624508906362"><ele>269.79999999999995</ele><time>2026-04-18T11:17:08Z</time></trkpt><trkpt lat="41.78702543910698" lon="13.024497553470043"><ele>269.4</ele><time>2026-04-18T11:17:09Z</time></trkpt><trkpt lat="41.78703800767034" lon="13.024371772860219"><ele>269.0</ele><time>2026-04-18T11:17:10Z</time></trkpt><trkpt lat="41.78708042610722" lon="13.024259886834272"><ele>268.33333333333337</ele><time>2026-04-18T11:17:11Z</time></trkpt><trkpt lat="41.78710965195807" lon="13.02414576977941"><ele>267.6666666666667</ele><time>2026-04-18T11:17:12Z</time></trkpt><trkpt lat="41.78712080171247" lon="13.024036378784468"><ele>267.0</ele><time>2026-04-18T11:17:13Z</time></trkpt><trkpt lat="41.78715830653478" lon="13.023961827016015"><ele>266.3333333333333</ele><time>2026-04-18T11:17:14Z</time></trkpt><trkpt lat="41.78717141136017" lon="13.023875731606353"><ele>265.66666666666663</ele><time>2026-04-18T11:17:15Z</time></trkpt><trkpt lat="41.78723089383867" lon="13.023736066838397"><ele>265.0</ele><time>2026-04-18T11:17:17Z</time></trkpt><trkpt lat="41.78733112646014" lon="13.023631623871456"><ele>265.0</ele><time>2026-04-18T11:17:19Z</time></trkpt><trkpt lat="41.78739909215475" lon="13.02357098757049"><ele>265.0</ele><time>2026-04-18T11:17:20Z</time></trkpt><trkpt lat="41.78747994944928" lon="13.023513815183954"><ele>265.0</ele><time>2026-04-18T11:17:21Z</time></trkpt><trkpt lat="41.78756571481983" lon="13.023445991154778"><ele>265.0</ele><time>2026-04-18T11:17:22Z</time></trkpt><trkpt lat="41.7876566649308" lon="13.02338515007293"><ele>265.0</ele><time>2026-04-18T11:17:23Z</time></trkpt><trkpt lat="41.78775408503594" lon="13.023315974117816"><ele>266.5</ele><time>2026-04-18T11:17:24Z</time></trkpt><trkpt lat="41.78785471177988" lon="13.023250511218603"><ele>268.0</ele><time>2026-04-18T11:17:25Z</time></trkpt><trkpt lat="41.78796021469078" lon="13.023181808854268"><ele>269.5</ele><time>2026-04-18T11:17:26Z</time></trkpt><trkpt lat="41.78806633755465" lon="13.023108920669404"><ele>271.0</ele><time>2026-04-18T11:17:27Z</time></trkpt><trkpt lat="41.788165892560066" lon="13.023038607698375"><ele>271.0</ele><time>2026-04-18T11:17:28Z</time></trkpt><trkpt lat="41.78826123857212" lon="13.022974267623951"><ele>271.0</ele><time>2026-04-18T11:17:29Z</time></trkpt><trkpt lat="41.788358944937336" lon="13.022913381403296"><ele>271.0</ele><time>2026-04-18T11:17:30Z</time></trkpt><trkpt lat="41.7884556434459" lon="13.022846491634274"><ele>271.0</ele><time>2026-04-18T11:17:31Z</time></trkpt><trkpt lat="41.78855061399197" lon="13.022785655557152"><ele>271.0</ele><time>2026-04-18T11:17:32Z</time></trkpt><trkpt lat="41.7886400711072" lon="13.022725594995846"><ele>272.0</ele><time>2026-04-18T11:17:33Z</time></trkpt><trkpt lat="41.78871686248123" lon="13.022666138238176"><ele>273.0</ele><time>2026-04-18T11:17:34Z</time></trkpt><trkpt lat="41.788769260133904" lon="13.02260405181138"><ele>274.0</ele><time>2026-04-18T11:17:35.001Z</time></trkpt><trkpt lat="41.78879944640215" lon="13.022461430156788"><ele>275.0</ele><time>2026-04-18T11:17:37.001Z</time></trkpt><trkpt lat="41.78878741591389" lon="13.022372047508643"><ele>276.0</ele><time>2026-04-18T11:17:38.001Z</time></trkpt><trkpt lat="41.788759815956844" lon="13.022279393709198"><ele>277.0</ele><time>2026-04-18T11:17:39.001Z</time></trkpt><trkpt lat="41.788728479079815" lon="13.022179893563866"><ele>277.0</ele><time>2026-04-18T11:17:40.001Z</time></trkpt><trkpt lat="41.788706066166526" lon="13.022075631645022"><ele>277.0</ele><time>2026-04-18T11:17:41.001Z</time></trkpt><trkpt lat="41.78868551718046" lon="13.021952095471605"><ele>277.0</ele><time>2026-04-18T11:17:42.001Z</time></trkpt><trkpt lat="41.78866355568305" lon="13.021817012310194"><ele>277.0</ele><time>2026-04-18T11:17:43.001Z</time></trkpt><trkpt lat="41.788639125745455" lon="13.021671974542624"><ele>277.0</ele><time>2026-04-18T11:17:44.001Z</time></trkpt><trkpt lat="41.788618006550195" lon="13.021527460782202"><ele>275.75</ele><time>2026-04-18T11:17:45.001Z</time></trkpt><trkpt lat="41.788589856031656" lon="13.021384604338644"><ele>274.5</ele><time>2026-04-18T11:17:46Z</time></trkpt><trkpt lat="41.788549324002176" lon="13.021243272550981"><ele>273.25</ele><time>2026-04-18T11:17:47Z</time></trkpt><trkpt lat="41.788489809363064" lon="13.021107462400478"><ele>272.0</ele><time>2026-04-18T11:17:48Z</time></trkpt><trkpt lat="41.78841682707082" lon="13.020979451422672"><ele>271.0</ele><time>2026-04-18T11:17:49Z</time></trkpt><trkpt lat="41.78835956918152" lon="13.020847557336317"><ele>270.0</ele><time>2026-04-18T11:17:50Z</time></trkpt><trkpt lat="41.78830229247525" lon="13.020712312291092"><ele>269.0</ele><time>2026-04-18T11:17:51Z</time></trkpt><trkpt lat="41.78824944304308" lon="13.020574796126022"><ele>268.0</ele><time>2026-04-18T11:17:52Z</time></trkpt><trkpt lat="41.78820086898432" lon="13.020439590596409"><ele>267.5</ele><time>2026-04-18T11:17:53Z</time></trkpt><trkpt lat="41.788151949280135" lon="13.020304943162918"><ele>267.0</ele><time>2026-04-18T11:17:54Z</time></trkpt><trkpt lat="41.7881052886017" lon="13.020163955744279"><ele>266.5</ele><time>2026-04-18T11:17:55Z</time></trkpt><trkpt lat="41.788063000673134" lon="13.020023224436141"><ele>266.0</ele><time>2026-04-18T11:17:56Z</time></trkpt><trkpt lat="41.788015971887006" lon="13.019886752368757"><ele>265.25</ele><time>2026-04-18T11:17:57Z</time></trkpt><trkpt lat="41.78797004434272" lon="13.019749539817152"><ele>264.5</ele><time>2026-04-18T11:17:58Z</time></trkpt><trkpt lat="41.78792375247245" lon="13.019611597216269"><ele>263.75</ele><time>2026-04-18T11:17:59Z</time></trkpt><trkpt lat="41.787890080585285" lon="13.01946767662257"><ele>263.0</ele><time>2026-04-18T11:18:00Z</time></trkpt><trkpt lat="41.78785855187032" lon="13.01931961653028"><ele>263.0</ele><time>2026-04-18T11:18:01Z</time></trkpt><trkpt lat="41.78783816809797" lon="13.019166474949214"><ele>263.0</ele><time>2026-04-18T11:18:02Z</time></trkpt><trkpt lat="41.78781996778654" lon="13.019024009041962"><ele>263.0</ele><time>2026-04-18T11:18:03Z</time></trkpt><trkpt lat="41.78780554946232" lon="13.018892856740747"><ele>263.0</ele><time>2026-04-18T11:18:04Z</time></trkpt><trkpt lat="41.78780132045618" lon="13.018764893329852"><ele>263.0</ele><time>2026-04-18T11:18:05Z</time></trkpt><trkpt lat="41.78778353424602" lon="13.01864241147931"><ele>262.4</ele><time>2026-04-18T11:18:06Z</time></trkpt><trkpt lat="41.78776313344741" lon="13.01852050595342"><ele>261.8</ele><time>2026-04-18T11:18:07Z</time></trkpt><trkpt lat="41.78774299609205" lon="13.018399657994335"><ele>261.2</ele><time>2026-04-18T11:18:08Z</time></trkpt><trkpt lat="41.78772561180814" lon="13.018278641105859"><ele>260.6</ele><time>2026-04-18T11:18:09Z</time></trkpt><trkpt lat="41.78771253959722" lon="13.018149992210748"><ele>260.0</ele><time>2026-04-18T11:18:10Z</time></trkpt><trkpt lat="41.78769119282628" lon="13.018020182546099"><ele>259.8</ele><time>2026-04-18T11:18:11Z</time></trkpt><trkpt lat="41.78767215760609" lon="13.017884008729236"><ele>259.6</ele><time>2026-04-18T11:18:12Z</time></trkpt><trkpt lat="41.787647847666676" lon="13.01774710667313"><ele>259.4</ele><time>2026-04-18T11:18:13Z</time></trkpt><trkpt lat="41.787629585001085" lon="13.017606045508872"><ele>259.2</ele><time>2026-04-18T11:18:14Z</time></trkpt><trkpt lat="41.78761007538371" lon="13.01746828859121"><ele>259.0</ele><time>2026-04-18T11:18:15Z</time></trkpt><trkpt lat="41.7875849980141" lon="13.017326322608277"><ele>258.4</ele><time>2026-04-18T11:18:16Z</time></trkpt><trkpt lat="41.78756557915509" lon="13.017180635800623"><ele>257.79999999999995</ele><time>2026-04-18T11:18:17Z</time></trkpt><trkpt lat="41.78754407825968" lon="13.017030559317309"><ele>257.20000000000005</ele><time>2026-04-18T11:18:18Z</time></trkpt><trkpt lat="41.7875194910656" lon="13.016879279936"><ele>256.6</ele><time>2026-04-18T11:18:19Z</time></trkpt><trkpt lat="41.787496592424375" lon="13.01673915416707"><ele>256.0</ele><time>2026-04-18T11:18:20Z</time></trkpt><trkpt lat="41.78747530556217" lon="13.016596553358891"><ele>255.4</ele><time>2026-04-18T11:18:21Z</time></trkpt><trkpt lat="41.78745428096577" lon="13.016459879451945"><ele>254.8</ele><time>2026-04-18T11:18:22Z</time></trkpt><trkpt lat="41.78743237862608" lon="13.016319403335086"><ele>254.20000000000002</ele><time>2026-04-18T11:18:23Z</time></trkpt><trkpt lat="41.78741493838375" lon="13.016187019499643"><ele>253.60000000000002</ele><time>2026-04-18T11:18:24Z</time></trkpt><trkpt lat="41.78739614123424" lon="13.016052056082952"><ele>253.0</ele><time>2026-04-18T11:18:25Z</time></trkpt><trkpt lat="41.78737683983208" lon="13.01591953072431"><ele>253.0</ele><time>2026-04-18T11:18:26Z</time></trkpt><trkpt lat="41.78735676398862" lon="13.01579547308138"><ele>253.0</ele><time>2026-04-18T11:18:27Z</time></trkpt><trkpt lat="41.78733705532831" lon="13.015664383894537"><ele>253.0</ele><time>2026-04-18T11:18:28Z</time></trkpt><trkpt lat="41.787315523563585" lon="13.01553172013961"><ele>253.0</ele><time>2026-04-18T11:18:29Z</time></trkpt><trkpt lat="41.78729843201288" lon="13.015404144774566"><ele>253.0</ele><time>2026-04-18T11:18:30Z</time></trkpt><trkpt lat="41.7872799595229" lon="13.015265377841718"><ele>253.0</ele><time>2026-04-18T11:18:31Z</time></trkpt><trkpt lat="41.787263477953736" lon="13.015129892576804"><ele>253.0</ele><time>2026-04-18T11:18:32Z</time></trkpt><trkpt lat="41.78724272129347" lon="13.014985610998329"><ele>253.0</ele><time>2026-04-18T11:18:33Z</time></trkpt><trkpt lat="41.78722432609808" lon="13.014838286925755"><ele>253.0</ele><time>2026-04-18T11:18:34Z</time></trkpt><trkpt lat="41.787204611547295" lon="13.01469399563384"><ele>253.0</ele><time>2026-04-18T11:18:35Z</time></trkpt><trkpt lat="41.78717773531881" lon="13.014543358501328"><ele>253.2</ele><time>2026-04-18T11:18:36Z</time></trkpt><trkpt lat="41.78714848583617" lon="13.014397154461816"><ele>253.4</ele><time>2026-04-18T11:18:37Z</time></trkpt><trkpt lat="41.78710826149069" lon="13.014258528076923"><ele>253.59999999999997</ele><time>2026-04-18T11:18:38Z</time></trkpt><trkpt lat="41.787070352912444" lon="13.014120391472584"><ele>253.79999999999998</ele><time>2026-04-18T11:18:39Z</time></trkpt><trkpt lat="41.78702417757021" lon="13.01398437762514"><ele>254.0</ele><time>2026-04-18T11:18:40Z</time></trkpt><trkpt lat="41.786981992470366" lon="13.013853872721334"><ele>254.16666666666669</ele><time>2026-04-18T11:18:41Z</time></trkpt><trkpt lat="41.78694259639634" lon="13.01372926691882"><ele>254.33333333333334</ele><time>2026-04-18T11:18:42Z</time></trkpt><trkpt lat="41.78690412027033" lon="13.013615275983565"><ele>254.5</ele><time>2026-04-18T11:18:43Z</time></trkpt><trkpt lat="41.78687172436599" lon="13.013512976600726"><ele>254.66666666666669</ele><time>2026-04-18T11:18:44Z</time></trkpt><trkpt lat="41.78684182440051" lon="13.013426149232298"><ele>254.83333333333334</ele><time>2026-04-18T11:18:45Z</time></trkpt><trkpt lat="41.78679797406413" lon="13.013304688373653"><ele>255.0</ele><time>2026-04-18T11:18:47Z</time></trkpt><trkpt lat="41.78678022981377" lon="13.013217820112242"><ele>258.0</ele><time>2026-04-18T11:18:50Z</time></trkpt></trkseg></trk></gpx>